[[{"header":{"parameterUnit":"m.s-1","parameterCategory":1,"la1":31.0,"la2":29.5877,"lo1":-88.7671,"lo2":-86.6584,"dy":0.0162,"dx":0.0185,"nx":115,"ny":88,"refTime":"2024-03-20T00:00:00:Z","depth":0,"parameterNumber":2,"parameterNumberName":"U-component_of_WINDS"},"data":[0.0,0.0,0.0,0.0,0.0,0.0,0.0,0.0,0.0,0.0,0.0,0.0,0.0,0.0,0.0,0.0,0.0,0.0,0.0,0.0,0.0,0.0,0.0,0.0,0.0,0.0,0.0,0.0,0.0,0.0,0.0,0.0,0.0,0.0,0.0,0.0,0.0,0.0,0.0,0.0,0.0,0.0,0.0,0.0,0.0,0.0,0.0,0.0,0.0,0.0,0.0,0.0,0.0,0.0,0.0,0.0,0.0,0.0,0.0,0.0,0.0,0.0,0.0,0.0,0.0,0.0,0.0,0.0,0.0,0.0,0.0,0.0,0.0,0.0,0.0,0.0,0.0,0.0,0.0,0.0,0.0,0.0,0.0,0.0,0.0,0.0,0.0,0.0,0.0,0.0,0.0,0.0,0.0,0.0,0.0,0.0,0.0,0.0,0.0,0.0,0.0,0.0,0.0,0.0,0.0,0.0,0.0,0.0,0.0,0.0,0.0,0.0,0.0,0.0,0.0,0.0,0.0,0.0,0.0,0.0,0.0,0.0,0.0,0.0,0.0,0.0,0.0,0.0,0.0,0.0,0.0,0.0,0.0,0.0,0.0,0.0,0.0,0.0,0.0,0.0,0.0,0.0,0.0,0.0,0.0,0.0,0.0,0.0,0.0,0.0,0.0,0.0,0.0,0.0,0.0,0.0,0.0,0.0,0.0,0.0,0.0,0.0,0.0,0.0,0.0,0.0,0.0,0.0,0.0,0.0,0.0,0.0,0.0,0.0,0.0,0.0,0.0,0.0,0.0,0.0,0.0,0.0,0.0,0.0,0.0,0.0,0.0,0.0,0.0,0.0,0.0,0.0,0.0,0.0,0.0,0.0,0.0,0.0,0.0,0.0,0.0,0.0,0.0,0.0,0.0,0.0,0.0,0.0,0.0,0.0,0.0,0.0,0.0,0.0,0.0,0.0,0.0,0.0,0.0,0.0,0.0,0.0,0.0,0.0,0.0,0.0,0.0,0.0,0.0,0.0,0.0,0.0,0.0,0.0,0.0,0.0,0.0,0.0,0.0,0.0,0.0,0.0,0.0,0.0,0.0,0.0,0.0,0.0,0.0,0.0,0.0,0.0,0.0,0.0,0.0,0.0,0.0,0.0,0.0,0.0,0.0,0.0,0.0,0.0,0.0,0.0,0.0,0.0,0.0,0.0,0.0,0.0,0.0,0.0,0.0,0.0,0.0,0.0,0.0,0.0,0.0,0.0,0.0,0.0,0.0,0.0,0.0,0.0,0.0,0.0,0.0,0.0,0.0,0.0,0.0,0.0,0.0,0.0,0.0,0.0,0.0,0.0,0.0,0.0,0.0,0.0,0.0,0.0,0.0,0.0,0.0,0.0,0.0,0.0,0.0,0.0,0.0,0.0,0.0,0.0,0.0,0.0,0.0,0.0,0.0,0.0,0.0,0.0,0.0,0.0,0.0,0.0,0.0,0.0,0.0,0.0,0.0,0.0,0.0,0.0,0.0,0.0,0.0,0.0,0.0,0.0,0.0,0.0,0.0,0.0,0.0,0.0,0.0,0.0,0.0,0.0,0.0,0.0,0.0,0.0,0.0,0.0,0.0,0.0,0.0,0.0,0.0,0.0,0.0,0.0,0.0,0.0,0.0,0.0,0.0,0.0,0.0,0.0,0.0,0.0,0.0,0.0,0.0,0.0,0.0,0.0,0.0,0.0,0.0,0.0,0.0,0.0,0.0,0.0,0.0,0.0,0.0,0.0,0.0,0.0,0.0,0.0,0.0,0.0,0.0,0.0,0.0,0.0,0.0,0.0,0.0,0.0,0.0,0.0,0.0,0.0,0.0,0.0,0.0,0.0,0.0,0.0,0.0,0.0,0.0,0.0,0.0,0.0,0.0,0.0,0.0,0.0,0.0,0.0,0.0,0.0,0.0,0.0,0.0,0.0,0.0,0.0,0.0,0.0,0.0,0.0,0.0,0.0,0.0,0.0,0.0,0.0,0.0,0.0,0.0,0.0,0.0,0.0,0.0,0.0,0.0,0.0,0.0,0.0,0.0,0.0,0.0,0.0,0.0,0.0,0.0,0.0,0.0,0.0,0.0,0.0,0.0,0.0,0.0,0.0,0.0,0.0,0.0,0.0,0.0,0.0,0.0,0.0,0.0,0.0,0.0,0.0,0.0,0.0,0.0,0.0,0.0,0.0,0.0,0.0,0.0,0.0,0.0,0.0,0.0,0.0,0.0,0.0,0.0,0.0,0.0,0.0,0.0,0.0,0.0,0.0,0.0,0.0,0.0,0.0,0.0,0.0,0.0,0.0,0.0,0.0,0.0,0.0,0.0,0.0,0.0,0.0,0.0,0.0,0.0,0.0,0.0,0.0,0.0,0.0,0.0,0.0,0.0,0.0,0.0,0.0,0.0,0.0,0.0,0.0,0.0,0.0,0.0,0.0,0.0,0.0,0.0,0.0,0.0,0.0,0.0,0.0,0.0,0.0,0.0,0.0,0.0,0.0,0.0,0.0,0.0,0.0,0.0,0.0,0.0,0.0,0.0,0.0,0.0,0.0,0.0,0.0,0.0,0.0,0.0,0.0,0.0,0.0,0.0,0.0,0.0,0.0,0.0,0.0,0.0,0.0,0.0,0.0,0.0,0.0,0.0,0.0,0.0,0.0,0.0,0.0,0.0,0.0,0.0,0.0,0.0,0.0,0.0,0.0,0.0,0.0,0.0,0.0,0.0,0.0,0.0,0.0,0.0,0.0,0.0,0.0,0.0,0.0,0.0,0.0,0.0,0.0,0.0,0.0,0.0,0.0,0.0,0.0,0.0,0.0,0.0,0.0,0.0,0.0,0.0,0.0,0.0,0.0,0.0,0.0,0.0,0.0,0.0,0.0,0.0,0.0,0.0,0.0,0.0,0.0,0.0,0.0,0.0,0.0,0.0,0.0,0.0,0.0,0.0,0.0,0.0,0.0,0.0,0.0,0.0,0.0,0.0,0.0,0.0,0.0,0.0,0.0,0.0,0.0,0.0,0.0,0.0,0.0,0.0,0.0,0.0,0.0,0.0,0.0,0.0,0.0,0.0,0.0,0.0,0.0,0.0,0.0,0.0,0.0,0.0,0.0,0.0,0.0,0.0,0.0,0.0,0.0,0.0,0.0,0.0,0.0,0.0,0.0,0.0,0.0,0.0,0.0,0.0,0.0,0.0,0.0,0.0,0.0,0.0,0.0,0.0,0.0,0.0,0.0,0.0,0.0,0.0,0.0,0.0,0.0,0.0,0.0,0.0,0.0,0.0,0.0,0.0,0.0,0.0,0.0,0.0,0.0,0.0,0.0,0.0,0.0,0.0,0.0,0.0,0.0,0.0,0.0,0.0,0.0,0.0,0.0,0.0,0.0,0.0,0.0,0.0,0.0,0.0,0.0,0.0,0.0,0.0,0.0,0.0,0.0,0.0,0.0,0.0,0.0,0.0,0.0,0.0,0.0,0.0,0.0,0.0,0.0,0.0,0.0,0.0,0.0,0.0,0.0,0.0,0.0,0.0,0.0,0.0,0.0,0.0,0.0,0.0,0.0,0.0,0.0,0.0,0.0,0.0,0.0,0.0,0.0,0.0,0.0,0.0,0.0,0.0,0.0,0.0,0.0,0.0,0.0,0.0,0.0,0.0,0.0,0.0,0.0,0.0,0.0,0.0,0.0,0.0,0.0,0.0,0.0,0.0,0.0,0.0,0.0,0.0,0.0,0.0,0.0,0.0,0.0,0.0,0.0,0.0,0.0,0.0,0.0,0.0,0.0,0.0,0.0,0.0,0.0,0.0,0.0,0.0,0.0,0.0,0.0,0.0,0.0,0.0,0.0,0.0,0.0,0.0,0.0,0.0,0.0,0.0,0.0,0.0,0.0,0.0,0.0,0.0,0.0,0.0,0.0,0.0,0.0,0.0,0.0,0.0,0.0,0.0,0.0,0.0,0.0,0.0,0.0,0.0,0.0,0.0,0.0,0.0,0.0,0.0,0.0,0.0,0.0,0.0,0.0,0.0,0.0,0.0,0.0,0.0,0.0,0.0,0.0,0.0,0.0,0.0,0.0,0.0,0.0,0.0,0.0,0.0,0.0,0.0,0.0,0.0,0.0,0.0,0.0,0.0,0.0,0.0,0.0,0.0,0.0,0.0,0.0,0.0,0.0,0.0,0.0,0.0,0.0,0.0,0.0,0.0,0.0,0.0,0.0,0.0,0.0,0.0,0.0,0.0,0.0,0.0,0.0,0.0,0.0,4.08,0.0,0.0,0.0,0.0,0.0,0.0,0.0,0.0,0.0,0.0,0.0,0.0,0.0,0.0,0.0,0.0,0.0,0.0,0.0,0.0,0.0,0.0,0.0,0.0,0.0,0.0,0.0,0.0,0.0,0.0,0.0,0.0,0.0,0.0,0.0,0.0,0.0,0.0,0.0,0.0,0.0,0.0,0.0,0.0,0.0,0.0,0.0,0.0,0.0,0.0,0.0,0.0,0.0,0.0,0.0,0.0,0.0,0.0,0.0,0.0,0.0,0.0,0.0,0.0,0.0,0.0,0.0,0.0,0.0,0.0,0.0,0.0,0.0,0.0,0.0,0.0,0.0,0.0,0.0,0.0,0.0,0.0,0.0,0.0,0.0,0.0,0.0,0.0,0.0,0.0,0.0,0.0,0.0,0.0,0.0,0.0,0.0,0.0,0.0,0.0,0.0,0.0,0.0,0.0,0.0,0.0,0.0,0.0,0.0,0.0,4.1033,4.1045,4.102,4.0991,4.0982,0.0,0.0,0.0,0.0,0.0,0.0,0.0,0.0,0.0,0.0,0.0,0.0,0.0,0.0,0.0,0.0,0.0,0.0,0.0,0.0,0.0,0.0,0.0,0.0,0.0,0.0,0.0,0.0,0.0,0.0,0.0,0.0,0.0,0.0,0.0,0.0,0.0,0.0,0.0,0.0,0.0,0.0,0.0,0.0,0.0,0.0,0.0,0.0,0.0,0.0,0.0,0.0,0.0,0.0,0.0,0.0,0.0,0.0,0.0,0.0,0.0,0.0,0.0,0.0,0.0,0.0,0.0,0.0,0.0,0.0,0.0,0.0,0.0,0.0,0.0,0.0,0.0,0.0,0.0,0.0,0.0,0.0,0.0,0.0,0.0,0.0,0.0,0.0,0.0,0.0,0.0,0.0,0.0,0.0,0.0,0.0,0.0,0.0,0.0,0.0,0.0,0.0,0.0,0.0,0.0,0.0,0.0,0.0,0.0,0.0,0.0,0.0,4.1056,4.1026,4.0991,0.0,0.0,0.0,0.0,0.0,0.0,0.0,0.0,0.0,0.0,0.0,0.0,0.0,0.0,0.0,0.0,0.0,0.0,0.0,0.0,0.0,0.0,0.0,0.0,0.0,0.0,0.0,0.0,0.0,0.0,0.0,0.0,0.0,0.0,0.0,0.0,0.0,0.0,0.0,0.0,0.0,0.0,0.0,0.0,0.0,0.0,0.0,0.0,0.0,0.0,0.0,0.0,0.0,0.0,0.0,0.0,0.0,0.0,0.0,0.0,0.0,0.0,0.0,0.0,0.0,0.0,0.0,0.0,0.0,0.0,0.0,0.0,0.0,0.0,0.0,0.0,0.0,0.0,0.0,0.0,0.0,0.0,0.0,0.0,0.0,0.0,0.0,0.0,0.0,0.0,0.0,0.0,0.0,0.0,0.0,0.0,0.0,0.0,0.0,0.0,0.0,0.0,0.0,0.0,0.0,0.0,0.0,0.0,0.0,0.0,4.1108,4.1104,4.1094,0.0,4.0994,0.0,0.0,0.0,0.0,0.0,0.0,0.0,0.0,0.0,0.0,0.0,0.0,0.0,0.0,0.0,0.0,0.0,0.0,0.0,0.0,0.0,0.0,0.0,0.0,0.0,0.0,0.0,0.0,0.0,0.0,0.0,0.0,0.0,0.0,0.0,0.0,0.0,0.0,0.0,0.0,0.0,0.0,0.0,0.0,0.0,0.0,0.0,0.0,0.0,0.0,0.0,0.0,0.0,0.0,0.0,0.0,0.0,0.0,0.0,0.0,0.0,0.0,0.0,0.0,0.0,0.0,0.0,0.0,0.0,0.0,0.0,0.0,0.0,0.0,0.0,0.0,0.0,0.0,0.0,0.0,0.0,0.0,0.0,0.0,0.0,0.0,0.0,0.0,0.0,0.0,0.0,0.0,0.0,0.0,0.0,0.0,0.0,0.0,0.0,0.0,0.0,0.0,0.0,0.0,0.0,0.0,0.0,0.0,0.0,0.0,4.1121,4.1121,4.1111,4.1094,0.0,0.0,0.0,0.0,0.0,0.0,0.0,0.0,0.0,0.0,0.0,0.0,0.0,0.0,0.0,0.0,0.0,0.0,0.0,0.0,0.0,0.0,0.0,0.0,0.0,0.0,0.0,0.0,0.0,0.0,0.0,0.0,0.0,0.0,0.0,0.0,0.0,0.0,0.0,0.0,0.0,0.0,0.0,0.0,0.0,0.0,0.0,0.0,0.0,0.0,0.0,0.0,0.0,0.0,0.0,0.0,0.0,0.0,0.0,0.0,0.0,0.0,0.0,0.0,0.0,0.0,0.0,0.0,0.0,0.0,0.0,0.0,0.0,0.0,0.0,0.0,0.0,0.0,0.0,0.0,0.0,0.0,0.0,0.0,0.0,0.0,0.0,0.0,0.0,0.0,0.0,0.0,0.0,0.0,0.0,0.0,0.0,0.0,0.0,0.0,0.0,0.0,0.0,0.0,0.0,0.0,0.0,0.0,0.0,0.0,4.1131,4.109,4.109,4.1119,4.1104,4.1094,0.0,0.0,0.0,0.0,0.0,0.0,0.0,0.0,0.0,0.0,0.0,0.0,0.0,0.0,0.0,0.0,0.0,0.0,0.0,0.0,0.0,0.0,0.0,0.0,0.0,0.0,0.0,0.0,0.0,0.0,0.0,0.0,0.0,0.0,0.0,0.0,0.0,0.0,0.0,0.0,0.0,0.0,0.0,0.0,0.0,0.0,0.0,0.0,0.0,0.0,0.0,0.0,0.0,0.0,0.0,0.0,0.0,0.0,0.0,0.0,0.0,0.0,0.0,0.0,0.0,0.0,0.0,0.0,0.0,0.0,0.0,0.0,0.0,0.0,0.0,0.0,0.0,0.0,0.0,0.0,0.0,0.0,0.0,0.0,0.0,0.0,0.0,0.0,0.0,0.0,0.0,0.0,0.0,0.0,0.0,0.0,0.0,0.0,0.0,0.0,0.0,0.0,0.0,0.0,0.0,0.0,0.0,0.0,4.1172,4.1211,4.1172,4.1172,4.1123,4.1108,0.0,0.0,0.0,0.0,0.0,0.0,0.0,0.0,0.0,0.0,0.0,0.0,0.0,0.0,0.0,0.0,0.0,0.0,0.0,0.0,0.0,0.0,0.0,0.0,0.0,0.0,0.0,0.0,0.0,0.0,0.0,0.0,0.0,0.0,0.0,0.0,0.0,0.0,0.0,0.0,0.0,0.0,0.0,0.0,0.0,0.0,0.0,0.0,0.0,0.0,0.0,0.0,0.0,0.0,0.0,0.0,0.0,0.0,0.0,0.0,0.0,0.0,0.0,0.0,0.0,0.0,0.0,0.0,0.0,0.0,0.0,0.0,0.0,0.0,0.0,0.0,0.0,0.0,0.0,0.0,0.0,0.0,0.0,0.0,0.0,0.0,0.0,0.0,0.0,0.0,0.0,0.0,0.0,0.0,0.0,0.0,0.0,0.0,0.0,0.0,0.0,0.0,0.0,0.0,0.0,0.0,0.0,0.0,0.0,4.1169,4.1676,4.2225,4.2734,4.2226,4.1951,0.0,0.0,0.0,0.0,0.0,0.0,0.0,0.0,0.0,0.0,0.0,0.0,0.0,0.0,0.0,0.0,0.0,0.0,0.0,0.0,0.0,0.0,0.0,0.0,0.0,0.0,0.0,0.0,0.0,0.0,0.0,0.0,0.0,0.0,0.0,0.0,0.0,0.0,0.0,0.0,0.0,0.0,0.0,0.0,0.0,0.0,0.0,0.0,0.0,0.0,0.0,0.0,0.0,0.0,0.0,0.0,0.0,0.0,0.0,0.0,0.0,0.0,0.0,0.0,0.0,0.0,0.0,0.0,0.0,0.0,0.0,0.0,0.0,0.0,0.0,0.0,0.0,0.0,0.0,0.0,0.0,0.0,0.0,0.0,0.0,0.0,0.0,0.0,0.0,0.0,0.0,0.0,0.0,0.0,0.0,0.0,0.0,0.0,0.0,0.0,0.0,0.0,0.0,0.0,0.0,0.0,0.0,0.0,0.0,4.1941,0.0,4.3117,4.3629,4.3123,4.2694,0.0,0.0,0.0,0.0,0.0,0.0,0.0,0.0,0.0,0.0,0.0,0.0,0.0,0.0,0.0,0.0,0.0,0.0,0.0,0.0,0.0,0.0,0.0,0.0,0.0,0.0,0.0,0.0,0.0,0.0,0.0,0.0,0.0,0.0,0.0,0.0,0.0,0.0,0.0,0.0,0.0,0.0,0.0,0.0,0.0,0.0,0.0,0.0,0.0,0.0,0.0,0.0,0.0,0.0,0.0,0.0,0.0,0.0,0.0,0.0,0.0,0.0,0.0,0.0,0.0,0.0,0.0,0.0,0.0,0.0,0.0,0.0,0.0,0.0,0.0,0.0,0.0,0.0,0.0,0.0,0.0,0.0,0.0,0.0,0.0,0.0,0.0,0.0,0.0,0.0,0.0,0.0,0.0,0.0,0.0,0.0,0.0,0.0,0.0,0.0,0.0,0.0,0.0,0.0,0.0,0.0,0.0,0.0,4.2864,4.3645,4.3723,4.3762,4.3723,4.3737,4.3314,0.0,0.0,0.0,0.0,0.0,0.0,0.0,0.0,0.0,0.0,0.0,0.0,0.0,0.0,0.0,0.0,0.0,0.0,0.0,0.0,0.0,0.0,0.0,0.0,0.0,0.0,0.0,0.0,0.0,0.0,0.0,0.0,0.0,0.0,0.0,0.0,0.0,0.0,0.0,0.0,0.0,0.0,0.0,0.0,0.0,0.0,0.0,0.0,0.0,0.0,0.0,0.0,0.0,0.0,0.0,0.0,0.0,0.0,0.0,0.0,0.0,0.0,0.0,0.0,0.0,0.0,0.0,0.0,0.0,0.0,0.0,0.0,0.0,0.0,0.0,0.0,0.0,0.0,0.0,0.0,0.0,0.0,0.0,0.0,0.0,0.0,0.0,0.0,0.0,0.0,0.0,0.0,0.0,0.0,0.0,0.0,0.0,0.0,0.0,0.0,0.0,0.0,0.0,0.0,0.0,0.0,0.0,0.0,0.0,4.4582,4.4621,4.4894,4.5441,4.4898,4.4471,0.0,0.0,0.0,0.0,0.0,0.0,0.0,0.0,0.0,0.0,0.0,0.0,0.0,0.0,0.0,0.0,0.0,0.0,0.0,0.0,0.0,0.0,0.0,0.0,0.0,0.0,0.0,0.0,0.0,0.0,0.0,0.0,0.0,0.0,0.0,0.0,0.0,0.0,0.0,0.0,0.0,0.0,0.0,0.0,0.0,0.0,0.0,0.0,0.0,0.0,0.0,0.0,0.0,0.0,0.0,0.0,0.0,0.0,0.0,0.0,0.0,0.0,0.0,0.0,0.0,0.0,0.0,0.0,0.0,0.0,0.0,0.0,0.0,0.0,0.0,0.0,0.0,0.0,0.0,0.0,0.0,0.0,0.0,0.0,0.0,0.0,0.0,0.0,0.0,0.0,0.0,0.0,0.0,0.0,0.0,0.0,0.0,0.0,0.0,0.0,0.0,0.0,0.0,0.0,0.0,0.0,0.0,0.0,0.0,4.6885,4.6573,4.669,4.7237,4.6417,4.5831,4.548,0.0,0.0,0.0,0.0,0.0,0.0,0.0,0.0,0.0,0.0,0.0,0.0,0.0,0.0,0.0,0.0,0.0,0.0,0.0,0.0,0.0,0.0,0.0,0.0,0.0,0.0,0.0,0.0,0.0,0.0,0.0,0.0,0.0,0.0,0.0,0.0,0.0,0.0,0.0,0.0,0.0,0.0,0.0,0.0,0.0,0.0,0.0,0.0,0.0,0.0,0.0,0.0,0.0,0.0,0.0,0.0,0.0,0.0,0.0,0.0,0.0,0.0,0.0,0.0,0.0,0.0,0.0,0.0,0.0,0.0,0.0,0.0,0.0,0.0,0.0,0.0,0.0,0.0,0.0,0.0,0.0,0.0,0.0,0.0,0.0,0.0,0.0,0.0,0.0,0.0,0.0,0.0,0.0,0.0,0.0,0.0,0.0,0.0,0.0,0.0,0.0,0.0,0.0,0.0,0.0,0.0,0.0,0.0,5.0204,4.954,4.9072,4.8837,4.8135,4.7315,0.0,0.0,0.0,0.0,0.0,0.0,0.0,0.0,0.0,0.0,0.0,0.0,0.0,0.0,0.0,0.0,0.0,0.0,0.0,0.0,0.0,0.0,0.0,0.0,0.0,0.0,0.0,0.0,0.0,0.0,0.0,0.0,0.0,0.0,0.0,0.0,0.0,0.0,0.0,0.0,0.0,0.0,0.0,0.0,0.0,0.0,0.0,0.0,0.0,0.0,0.0,0.0,0.0,0.0,0.0,0.0,0.0,0.0,0.0,0.0,0.0,0.0,0.0,0.0,0.0,0.0,0.0,0.0,0.0,0.0,0.0,0.0,0.0,0.0,0.0,0.0,0.0,0.0,0.0,0.0,0.0,0.0,0.0,0.0,0.0,0.0,0.0,0.0,0.0,0.0,0.0,0.0,0.0,0.0,0.0,0.0,0.0,0.0,0.0,0.0,0.0,0.0,0.0,0.0,0.0,0.0,0.0,0.0,0.0,5.196,5.3053,5.239,4.9891,4.954,4.8759,0.0,0.0,0.0,0.0,0.0,0.0,0.0,0.0,0.0,0.0,0.0,0.0,0.0,0.0,0.0,0.0,0.0,0.0,0.0,0.0,0.0,0.0,0.0,0.0,0.0,0.0,0.0,0.0,0.0,0.0,0.0,0.0,0.0,0.0,0.0,0.0,0.0,0.0,0.0,0.0,0.0,0.0,0.0,0.0,0.0,0.0,0.0,0.0,0.0,0.0,0.0,0.0,0.0,0.0,0.0,0.0,0.0,0.0,0.0,0.0,0.0,0.0,0.0,0.0,0.0,0.0,0.0,0.0,0.0,0.0,0.0,0.0,0.0,0.0,0.0,0.0,0.0,0.0,0.0,0.0,0.0,0.0,0.0,0.0,0.0,0.0,0.0,0.0,0.0,0.0,0.0,0.0,0.0,0.0,0.0,0.0,0.0,0.0,0.0,0.0,0.0,0.0,0.0,0.0,0.0,0.0,0.0,0.0,5.2038,5.3756,5.5474,5.5396,5.3405,5.1921,5.0399,0.0,0.0,0.0,0.0,0.0,0.0,0.0,0.0,0.0,0.0,0.0,0.0,0.0,0.0,0.0,0.0,0.0,0.0,0.0,0.0,0.0,0.0,0.0,0.0,0.0,0.0,0.0,0.0,0.0,0.0,0.0,0.0,0.0,0.0,0.0,0.0,0.0,0.0,0.0,0.0,0.0,0.0,0.0,0.0,0.0,0.0,0.0,0.0,0.0,0.0,0.0,0.0,0.0,0.0,0.0,0.0,0.0,0.0,0.0,0.0,0.0,0.0,0.0,0.0,0.0,0.0,0.0,0.0,0.0,0.0,0.0,0.0,0.0,0.0,0.0,0.0,0.0,0.0,0.0,0.0,0.0,0.0,0.0,0.0,0.0,0.0,0.0,0.0,0.0,0.0,0.0,0.0,0.0,0.0,0.0,0.0,0.0,0.0,0.0,0.0,0.0,0.0,0.0,0.0,0.0,0.0,0.0,0.0,5.3756,5.5669,5.7348,5.8207,5.8089,5.481,5.2156,0.0,0.0,0.0,0.0,0.0,0.0,0.0,0.0,0.0,0.0,0.0,0.0,0.0,0.0,0.0,0.0,0.0,0.0,0.0,0.0,0.0,0.0,0.0,0.0,0.0,0.0,0.0,0.0,0.0,0.0,0.0,0.0,0.0,0.0,0.0,0.0,0.0,0.0,0.0,0.0,0.0,0.0,0.0,0.0,0.0,0.0,0.0,0.0,0.0,0.0,0.0,0.0,0.0,0.0,0.0,0.0,0.0,0.0,0.0,0.0,0.0,0.0,0.0,0.0,0.0,0.0,0.0,0.0,0.0,0.0,0.0,0.0,0.0,0.0,0.0,0.0,0.0,0.0,0.0,0.0,0.0,0.0,0.0,0.0,0.0,0.0,0.0,0.0,0.0,0.0,0.0,0.0,0.0,0.0,0.0,0.0,0.0,0.0,0.0,0.0,0.0,0.0,0.0,0.0,0.0,0.0,0.0,0.0,5.524,5.8246,5.9963,6.0861,6.0861,5.6879,5.3912,0.0,0.0,0.0,0.0,0.0,0.0,0.0,0.0,0.0,0.0,0.0,0.0,0.0,0.0,0.0,0.0,0.0,0.0,0.0,0.0,0.0,0.0,0.0,0.0,0.0,0.0,0.0,0.0,0.0,0.0,0.0,0.0,0.0,0.0,0.0,0.0,0.0,0.0,0.0,0.0,0.0,0.0,0.0,0.0,0.0,0.0,0.0,0.0,4.5761,0.0,0.0,0.0,0.0,0.0,0.0,0.0,0.0,0.0,0.0,0.0,0.0,0.0,0.0,0.0,0.0,0.0,0.0,0.0,0.0,0.0,0.0,0.0,0.0,0.0,0.0,0.0,0.0,0.0,0.0,0.0,0.0,0.0,0.0,0.0,0.0,0.0,0.0,0.0,0.0,0.0,0.0,0.0,0.0,0.0,0.0,0.0,0.0,0.0,0.0,0.0,0.0,0.0,0.0,0.0,0.0,0.0,0.0,0.0,5.6489,5.9065,6.1174,6.2306,6.2189,5.8909,5.5903,0.0,0.0,0.0,0.0,0.0,0.0,0.0,0.0,0.0,0.0,0.0,0.0,0.0,0.0,0.0,0.0,0.0,0.0,0.0,0.0,0.0,0.0,0.0,0.0,0.0,0.0,0.0,0.0,0.0,0.0,0.0,0.0,0.0,0.0,0.0,0.0,0.0,0.0,0.0,0.0,0.0,0.0,0.0,0.0,0.0,0.0,0.0,0.0,0.0,0.0,0.0,0.0,0.0,0.0,0.0,0.0,0.0,0.0,0.0,0.0,0.0,0.0,0.0,0.0,0.0,0.0,0.0,0.0,0.0,0.0,0.0,0.0,0.0,0.0,0.0,0.0,0.0,0.0,0.0,0.0,0.0,0.0,0.0,0.0,0.0,0.0,0.0,0.0,0.0,0.0,0.0,0.0,0.0,0.0,0.0,0.0,0.0,0.0,0.0,0.0,0.0,0.0,0.0,0.0,0.0,0.0,0.0,5.4849,5.7855,5.969,6.211,6.3321,6.3164,6.0822,5.7894,5.4498,0.0,0.0,0.0,0.0,0.0,0.0,0.0,0.0,0.0,0.0,0.0,0.0,0.0,0.0,0.0,0.0,0.0,0.0,0.0,0.0,0.0,0.0,0.0,0.0,0.0,0.0,0.0,0.0,0.0,0.0,0.0,0.0,0.0,0.0,0.0,0.0,0.0,0.0,4.4717,4.6341,0.0,0.0,0.0,0.0,0.0,0.0,0.0,0.0,4.8624,0.0,0.0,0.0,0.0,0.0,0.0,0.0,0.0,0.0,0.0,0.0,0.0,0.0,0.0,0.0,0.0,0.0,0.0,0.0,0.0,0.0,0.0,0.0,0.0,0.0,0.0,0.0,0.0,0.0,0.0,0.0,0.0,0.0,0.0,0.0,0.0,0.0,0.0,0.0,0.0,0.0,0.0,0.0,0.0,0.0,0.0,0.0,0.0,0.0,0.0,0.0,0.0,0.0,0.0,0.0,0.0,5.3366,5.6879,5.9885,6.2306,6.4179,6.4804,6.4062,6.2267,5.9651,5.6255,0.0,0.0,0.0,0.0,0.0,0.0,0.0,0.0,0.0,0.0,0.0,0.0,0.0,0.0,0.0,0.0,0.0,0.0,0.0,0.0,0.0,0.0,0.0,0.0,0.0,0.0,0.0,0.0,0.0,0.0,0.0,0.0,0.0,0.0,0.0,0.0,0.0,0.0,0.0,4.754,4.8237,0.0,0.0,0.0,0.0,0.0,0.0,0.0,0.0,4.9126,0.0,0.0,0.0,0.0,0.0,0.0,0.0,0.0,0.0,0.0,0.0,0.0,0.0,0.0,0.0,0.0,0.0,0.0,0.0,0.0,0.0,0.0,0.0,0.0,0.0,0.0,0.0,0.0,0.0,0.0,0.0,0.0,0.0,0.0,0.0,0.0,0.0,0.0,0.0,0.0,0.0,0.0,0.0,0.0,0.0,0.0,0.0,0.0,0.0,0.0,0.0,0.0,0.0,0.0,0.0,5.4029,5.7387,6.0393,6.293,6.4687,6.5194,6.4297,6.2618,6.008,0.0,0.0,0.0,0.0,0.0,0.0,0.0,0.0,0.0,0.0,0.0,0.0,0.0,0.0,0.0,0.0,0.0,0.0,0.0,0.0,0.0,0.0,0.0,0.0,0.0,0.0,0.0,0.0,0.0,0.0,0.0,0.0,0.0,0.0,0.0,0.0,0.0,0.0,0.0,0.0,4.8894,4.9861,5.0287,0.0,0.0,0.0,0.0,0.0,0.0,5.1679,5.1254,0.0,0.0,0.0,0.0,0.0,0.0,0.0,0.0,0.0,0.0,0.0,0.0,0.0,0.0,0.0,0.0,0.0,0.0,0.0,0.0,0.0,0.0,0.0,0.0,0.0,0.0,0.0,0.0,0.0,0.0,0.0,0.0,0.0,0.0,0.0,0.0,0.0,0.0,0.0,0.0,0.0,0.0,0.0,0.0,0.0,0.0,0.0,0.0,0.0,0.0,0.0,0.0,0.0,0.0,0.0,5.4537,5.7894,6.0783,6.3204,6.496,6.5351,6.4336,6.2618,6.008,0.0,0.0,0.0,0.0,0.0,0.0,0.0,0.0,0.0,0.0,0.0,0.0,0.0,0.0,0.0,0.0,0.0,0.0,0.0,0.0,0.0,0.0,0.0,0.0,0.0,0.0,0.0,0.0,0.0,0.0,0.0,0.0,0.0,0.0,0.0,0.0,0.0,0.0,0.0,0.0,0.0,5.1525,5.2569,5.3459,0.0,0.0,0.0,0.0,5.431,5.4116,0.0,0.0,0.0,0.0,0.0,0.0,0.0,0.0,0.0,0.0,0.0,0.0,0.0,0.0,0.0,0.0,0.0,0.0,0.0,0.0,0.0,0.0,0.0,0.0,0.0,0.0,0.0,0.0,0.0,0.0,0.0,0.0,0.0,0.0,0.0,0.0,0.0,0.0,0.0,0.0,0.0,0.0,0.0,0.0,0.0,0.0,0.0,0.0,0.0,0.0,0.0,0.0,0.0,0.0,0.0,0.0,5.6294,5.969,6.2267,6.4101,6.5819,6.5897,6.4336,6.2618,6.008,0.0,0.0,0.0,0.0,0.0,0.0,0.0,0.0,0.0,0.0,0.0,0.0,0.0,0.0,0.0,0.0,0.0,0.0,0.0,0.0,0.0,0.0,0.0,0.0,0.0,0.0,0.0,0.0,0.0,0.0,0.0,0.0,0.0,0.0,0.0,0.0,0.0,0.0,0.0,0.0,0.0,5.2647,5.4271,5.52,5.5973,0.0,0.0,5.7714,5.6979,5.6205,0.0,0.0,0.0,0.0,0.0,0.0,0.0,0.0,0.0,0.0,0.0,0.0,0.0,0.0,0.0,0.0,0.0,0.0,0.0,0.0,0.0,0.0,0.0,0.0,0.0,0.0,0.0,0.0,0.0,0.0,0.0,0.0,0.0,0.0,0.0,0.0,0.0,0.0,0.0,0.0,0.0,0.0,0.0,0.0,0.0,0.0,0.0,0.0,0.0,0.0,0.0,0.0,0.0,0.0,0.0,5.3834,5.727,6.1174,6.3984,6.5663,6.6912,6.6717,6.5077,6.2891,6.008,0.0,0.0,0.0,0.0,0.0,0.0,0.0,0.0,0.0,0.0,0.0,0.0,0.0,0.0,0.0,0.0,0.0,0.0,0.0,0.0,0.0,0.0,0.0,0.0,0.0,0.0,0.0,0.0,0.0,0.0,0.0,0.0,0.0,0.0,0.0,0.0,0.0,0.0,0.0,0.0,0.0,0.0,5.5316,5.6631,0.0,0.0,0.0,5.8449,5.8101,0.0,0.0,0.0,0.0,0.0,0.0,0.0,0.0,0.0,0.0,0.0,0.0,0.0,0.0,0.0,0.0,0.0,0.0,0.0,0.0,0.0,0.0,0.0,0.0,0.0,0.0,0.0,0.0,0.0,0.0,0.0,0.0,0.0,0.0,0.0,0.0,0.0,0.0,0.0,0.0,0.0,0.0,0.0,0.0,0.0,0.0,0.0,0.0,0.0,0.0,0.0,0.0,0.0,0.0,0.0,0.0,0.0,5.7777,6.2071,6.5116,6.6756,6.7654,6.742,6.5936,6.3399,0.0,0.0,0.0,0.0,0.0,0.0,0.0,0.0,0.0,0.0,0.0,0.0,0.0,0.0,0.0,0.0,0.0,0.0,0.0,0.0,0.0,0.0,0.0,0.0,0.0,0.0,0.0,4.1429,0.0,0.0,0.0,0.0,0.0,0.0,0.0,0.0,0.0,0.0,0.0,0.0,0.0,0.0,5.5548,5.6786,5.8101,5.9145,0.0,0.0,5.9532,5.9532,5.9377,5.872,0.0,0.0,0.0,0.0,0.0,0.0,0.0,0.0,0.0,0.0,0.0,0.0,0.0,0.0,0.0,0.0,0.0,0.0,0.0,0.0,0.0,0.0,0.0,0.0,0.0,0.0,0.0,0.0,0.0,0.0,0.0,0.0,0.0,0.0,0.0,0.0,0.0,0.0,0.0,0.0,0.0,0.0,0.0,0.0,0.0,0.0,0.0,0.0,0.0,0.0,0.0,0.0,0.0,0.0,0.0,5.7855,6.2071,6.5116,6.6756,6.7654,6.7654,6.6717,6.4258,6.1642,0.0,0.0,0.0,0.0,0.0,0.0,0.0,0.0,0.0,0.0,0.0,0.0,0.0,0.0,0.0,0.0,0.0,0.0,0.0,0.0,0.0,0.0,0.0,0.0,0.0,0.0,0.0,0.0,0.0,0.0,0.0,0.0,0.0,0.0,0.0,0.0,0.0,0.0,0.0,0.0,0.0,5.6824,5.93,5.9725,6.0654,0.0,0.0,6.2124,6.2124,6.1466,6.0654,5.9764,0.0,0.0,0.0,0.0,0.0,0.0,0.0,0.0,0.0,0.0,0.0,0.0,0.0,0.0,0.0,0.0,0.0,0.0,0.0,0.0,0.0,0.0,0.0,0.0,0.0,0.0,0.0,0.0,0.0,0.0,0.0,0.0,0.0,0.0,0.0,0.0,0.0,0.0,0.0,0.0,0.0,0.0,0.0,0.0,0.0,0.0,0.0,0.0,0.0,0.0,0.0,0.0,0.0,5.6294,5.9378,6.3672,6.6678,6.8357,6.9255,6.902,6.7615,6.5663,6.3125,0.0,0.0,0.0,0.0,0.0,0.0,0.0,0.0,0.0,0.0,0.0,0.0,0.0,0.0,0.0,0.0,0.0,0.0,0.0,0.0,0.0,0.0,0.0,0.0,0.0,0.0,0.0,0.0,4.6394,4.727,4.696,0.0,0.0,0.0,0.0,0.0,0.0,0.0,0.0,0.0,0.0,5.7731,6.0267,6.1118,0.0,0.0,6.34,6.3207,6.3168,6.2472,6.1621,6.077,5.9377,0.0,0.0,0.0,0.0,0.0,0.0,0.0,0.0,0.0,0.0,0.0,0.0,0.0,0.0,0.0,0.0,0.0,0.0,0.0,0.0,0.0,0.0,0.0,0.0,0.0,0.0,0.0,0.0,0.0,0.0,0.0,0.0,0.0,0.0,0.0,0.0,0.0,0.0,0.0,0.0,0.0,0.0,0.0,0.0,0.0,0.0,0.0,0.0,0.0,0.0,0.0,0.0,5.7231,6.0393,6.4609,6.7654,6.9372,7.027,7.0113,6.8903,6.699,6.4687,0.0,0.0,0.0,0.0,0.0,0.0,0.0,0.0,0.0,0.0,0.0,0.0,0.0,0.0,0.0,0.0,0.0,0.0,0.0,0.0,0.0,0.0,0.0,0.0,0.0,0.0,0.0,0.0,4.7738,4.8512,4.8783,0.0,0.0,0.0,0.0,0.0,0.0,0.0,0.0,0.0,0.0,5.9198,6.1232,6.2277,6.3226,6.4329,6.4271,6.4097,6.4097,6.3555,6.2897,6.2008,0.0,0.0,0.0,0.0,0.0,0.0,0.0,0.0,0.0,0.0,0.0,0.0,0.0,0.0,0.0,0.0,0.0,0.0,0.0,0.0,0.0,0.0,0.0,0.0,0.0,0.0,0.0,0.0,0.0,0.0,3.8463,0.0,0.0,0.0,0.0,0.0,0.0,0.0,0.0,0.0,0.0,0.0,0.0,0.0,0.0,0.0,0.0,0.0,0.0,0.0,0.0,0.0,0.0,5.7855,6.0393,6.4609,6.7654,6.9372,7.027,7.066,7.0543,6.8161,6.6366,6.5429,0.0,0.0,0.0,0.0,0.0,0.0,0.0,0.0,0.0,0.0,0.0,0.0,0.0,0.0,0.0,0.0,0.0,0.0,0.0,0.0,0.0,0.0,0.0,0.0,0.0,0.0,4.8269,4.849,4.8891,0.0,0.0,0.0,0.0,0.0,0.0,0.0,0.0,0.0,0.0,5.9,6.1458,6.2366,6.324,6.4366,6.5954,6.549,6.4986,6.4948,6.4948,6.4638,0.0,0.0,0.0,0.0,0.0,0.0,0.0,0.0,0.0,0.0,0.0,0.0,0.0,0.0,0.0,0.0,0.0,0.0,0.0,0.0,0.0,0.0,0.0,0.0,0.0,0.0,0.0,4.1565,4.1045,0.0,0.0,0.0,0.0,0.0,0.0,0.0,0.0,0.0,0.0,0.0,5.1414,5.2585,0.0,0.0,0.0,0.0,0.0,0.0,0.0,0.0,0.0,0.0,0.0,0.0,5.8675,6.1291,6.4921,6.7654,6.9372,7.0816,7.1285,7.0699,6.984,6.82,6.5663,0.0,0.0,0.0,0.0,0.0,0.0,0.0,0.0,0.0,0.0,0.0,0.0,0.0,0.0,0.0,0.0,0.0,0.0,0.0,0.0,0.0,0.0,0.0,0.0,0.0,4.9043,0.0,0.0,0.0,0.0,0.0,0.0,0.0,0.0,0.0,0.0,0.0,5.6969,5.9265,6.0554,6.1989,6.3934,6.4498,6.5079,0.0,0.0,0.0,0.0,0.0,0.0,0.0,0.0,0.0,0.0,0.0,0.0,0.0,0.0,6.2085,5.9803,5.9377,5.9377,5.9416,0.0,0.0,0.0,0.0,0.0,0.0,0.0,0.0,0.0,0.0,0.0,0.0,0.0,0.0,4.4859,0.0,4.4043,0.0,0.0,0.0,0.0,0.0,0.0,0.0,0.0,5.2342,5.3787,5.4953,5.6363,5.7021,0.0,5.6475,5.4718,0.0,0.0,0.0,0.0,0.0,0.0,0.0,0.0,5.9685,6.2579,6.5663,6.8083,6.9801,7.1245,7.1714,7.1167,7.0855,6.9372,6.6561,6.3711,6.1017,0.0,0.0,0.0,0.0,0.0,0.0,0.0,0.0,0.0,0.0,0.0,0.0,0.0,0.0,0.0,0.0,0.0,0.0,0.0,0.0,0.0,0.0,0.0,5.1463,0.0,0.0,0.0,0.0,0.0,0.0,0.0,0.0,0.0,5.6218,5.725,5.88,6.1003,6.2098,6.3356,6.5303,0.0,0.0,0.0,0.0,0.0,0.0,0.0,6.6341,6.6341,6.5857,6.576,6.6611,6.7423,6.7965,6.7965,0.0,0.0,6.3478,6.2859,6.2859,6.2897,6.2859,6.2859,6.2859,6.2897,6.3052,0.0,0.0,0.0,0.0,0.0,0.0,0.0,0.0,4.8366,4.83,0.0,4.7563,0.0,0.0,0.0,0.0,0.0,5.1525,0.0,0.0,5.5795,5.7512,5.9176,6.0002,6.0432,6.0457,6.0418,5.956,5.7811,5.3821,0.0,0.0,0.0,0.0,0.0,0.0,6.0885,6.4219,6.6795,6.8942,7.0621,7.1558,7.2026,7.2026,7.1245,6.9996,6.8279,6.66,6.4492,6.1915,5.8597,0.0,0.0,0.0,0.0,0.0,0.0,0.0,0.0,0.0,0.0,0.0,0.0,0.0,0.0,0.0,0.0,0.0,0.0,0.0,0.0,5.2901,0.0,0.0,0.0,0.0,0.0,0.0,0.0,0.0,0.0,0.0,5.6675,5.9274,6.1345,6.1477,0.0,0.0,0.0,0.0,6.8036,6.8868,6.8933,6.8954,6.8935,6.8936,6.8995,6.8936,0.0,0.0,6.9938,7.0789,7.133,7.1369,7.1291,7.0324,6.7152,6.6456,6.634,6.634,6.634,6.634,6.634,6.634,6.6379,5.3745,0.0,0.0,0.0,0.0,5.0433,5.0782,5.0859,5.1717,5.1992,5.1709,5.119,0.0,0.0,0.0,0.0,0.0,0.0,5.5613,5.7648,5.876,6.0197,6.1822,6.268,6.3421,6.3967,6.3382,6.2836,6.229,6.051,5.8169,5.5471,0.0,0.0,0.0,0.0,6.1992,6.4223,6.6772,6.8925,7.0681,7.1552,7.23,7.2924,7.269,7.2026,7.0933,6.9215,6.7146,6.457,6.1798,0.0,0.0,0.0,0.0,0.0,0.0,0.0,0.0,0.0,0.0,0.0,0.0,0.0,0.0,0.0,0.0,0.0,0.0,0.0,5.3883,5.5553,5.6347,0.0,0.0,0.0,0.0,0.0,0.0,0.0,0.0,0.0,6.1681,6.1564,6.2274,0.0,0.0,6.6687,6.8179,6.8552,6.8785,6.9056,6.9545,0.0,6.9882,7.0388,7.0719,7.0679,7.1141,7.1601,7.1794,7.2568,7.3148,7.3148,7.3148,7.2955,7.2645,7.1059,6.9938,6.9821,6.9821,6.9821,6.9843,6.9843,7.0015,5.7997,5.6498,5.3899,5.2818,5.2934,5.4091,5.4574,5.467,5.5902,5.6248,5.5896,5.5157,5.4671,5.4401,5.433,0.0,0.0,0.0,5.9065,6.0603,6.1807,6.2898,6.3877,6.5075,6.5933,6.6429,6.6264,6.5844,6.5191,6.4684,6.2734,5.9576,0.0,0.0,5.9357,6.119,6.3148,6.5223,6.7422,6.9568,7.1636,7.2203,7.2717,7.3225,7.2957,7.2534,7.1987,7.066,6.8864,6.6678,6.414,6.1174,0.0,0.0,0.0,0.0,0.0,0.0,0.0,0.0,0.0,0.0,0.0,4.5994,4.7151,0.0,0.0,0.0,5.313,5.471,5.655,5.7648,0.0,0.0,0.0,0.0,0.0,0.0,0.0,6.0827,6.1879,6.332,6.5345,6.4947,6.5142,6.681,6.7324,6.8163,6.9849,0.0,7.0316,7.1015,7.152,7.1969,7.2302,7.2753,7.3123,7.3372,7.4121,7.4579,7.4657,7.5353,7.5895,7.5933,7.5933,7.6088,7.6552,7.5353,7.4077,7.3458,7.3303,7.3303,7.3325,7.3325,7.3496,6.1847,6.1555,5.7819,5.6214,5.6236,5.7812,5.8466,5.8642,6.0333,6.0646,5.9837,5.9186,5.8463,5.7754,5.8672,0.0,5.9293,6.1705,6.2872,6.3145,6.4694,6.5473,6.5686,6.723,6.8021,6.811,6.8927,6.8511,6.7052,6.7024,6.6127,6.4413,6.2054,6.1214,6.1829,6.2656,6.4341,6.6853,6.8461,7.0528,7.3025,7.3158,7.3211,7.3211,7.2561,7.2143,7.1987,7.1245,6.9957,6.8161,6.5741,6.2891,5.9573,0.0,0.0,0.0,0.0,0.0,0.0,0.0,0.0,0.0,0.0,0.0,0.0,0.0,0.0,0.0,5.6127,0.0,5.9342,5.9474,0.0,0.0,0.0,6.0783,6.0722,6.1502,6.2625,6.4237,0.0,0.0,6.7979,6.9,6.9266,6.8539,6.8987,7.0005,7.1614,7.1886,7.2508,7.3945,7.4395,7.4783,7.5405,7.5641,7.5876,7.6433,7.7334,7.7659,7.7674,7.8254,7.8912,7.8796,7.8989,7.895,7.9028,7.8873,7.8641,7.7055,7.663,7.6552,7.6498,7.6498,7.6475,6.2615,6.2567,6.16,6.0506,5.9536,6.0533,6.0917,6.1032,6.217,6.254,6.2271,6.1649,6.0964,6.0312,6.0577,6.1011,6.1744,6.2366,6.3726,6.5606,6.5998,6.6905,6.8175,6.8598,6.9211,6.9863,7.0083,6.9979,6.9601,6.9624,6.8777,6.7141,6.6439,6.528,6.3604,6.4384,6.5748,6.7706,6.8739,7.0238,7.2127,7.2838,7.3228,7.3228,7.3654,7.327,7.1969,7.1786,7.0582,6.82,6.6288,6.4297,6.2149,5.8987,0.0,0.0,0.0,0.0,0.0,0.0,0.0,0.0,0.0,4.9922,5.1639,0.0,5.4013,0.0,5.8757,6.1134,6.1967,6.2694,0.0,0.0,6.3798,6.4267,6.4247,6.5049,6.5964,6.7017,6.7758,6.8851,7.0731,7.1729,7.2647,7.362,7.277,7.2443,7.3518,7.4233,7.4763,7.5238,7.631,7.7188,7.7386,7.7932,7.832,7.8486,7.8696,7.8727,7.8718,7.8834,7.9028,7.9028,7.9028,7.9221,7.984,7.9918,8.0111,8.0111,7.9299,7.837,7.837,7.837,7.8409,6.4,6.4,6.4038,6.3494,6.2738,6.2815,6.2853,6.2929,6.3817,6.4227,6.4189,6.3526,6.2866,6.2278,6.2627,6.307,6.3662,6.4011,6.5174,6.6898,6.6943,6.7658,6.8985,6.9356,6.9833,7.0416,7.0795,7.0823,7.0499,7.0536,6.9846,6.8561,6.8572,6.7842,6.6478,6.6517,6.7219,6.8582,7.0552,7.1848,7.2443,7.328,7.3553,7.3241,7.3275,7.2892,7.1948,7.1924,7.0922,6.8775,6.7414,6.5741,6.3672,6.1017,5.8753,0.0,0.0,0.0,0.0,0.0,0.0,0.0,0.0,0.0,0.0,0.0,5.7148,5.9258,6.1875,6.3633,6.41,6.4909,6.5417,6.543,6.6483,6.7221,6.721,6.8332,6.946,7.0314,7.0821,7.1641,7.2969,7.4161,7.5241,7.6201,7.6079,7.5947,7.6028,7.6469,7.6883,7.7283,7.8085,7.8792,7.9126,7.9834,8.0476,8.0803,8.0816,8.088,8.1257,8.131,8.1271,8.1271,8.1271,8.1387,8.1852,8.1929,8.2122,8.2355,8.1929,8.1078,8.0266,8.0111,8.0111,6.5719,6.5719,6.5719,6.5643,6.549,6.4802,6.4458,6.4382,6.5159,6.5532,6.5647,6.506,6.4526,6.4155,6.4733,6.5071,6.5234,6.5874,6.6685,6.7613,6.7639,6.8162,6.9128,6.9866,7.0331,7.0477,7.1231,7.1241,7.0654,7.0642,7.02,6.9421,6.9535,6.9546,6.944,6.8922,6.8933,6.9518,7.2635,7.3882,7.3142,7.3943,7.3992,7.3212,7.2443,7.1954,7.1768,7.1745,7.1019,6.9465,6.8541,6.7029,6.4726,6.2969,6.1291,0.0,5.8792,0.0,0.0,0.0,0.0,0.0,0.0,0.0,0.0,5.8345,6.0806,6.3266,6.497,6.6014,6.6249,6.6873,6.7336,6.7498,6.8893,6.9882,6.9961,7.1327,7.2615,7.3394,7.3628,7.4095,7.4837,7.6388,7.743,7.7742,7.8735,7.9331,7.9013,7.8726,7.8845,7.9702,7.9973,8.062,8.115,8.1787,8.2396,8.3077,8.3074,8.3367,8.3914,8.4005,8.4005,8.4005,8.3889,8.3966,8.4095,8.4018,8.4018,8.3979,8.3863,8.3399,8.22,8.1852,8.1852,6.74,6.74,6.7439,6.7056,6.6445,6.6292,6.5834,6.5184,6.5367,6.5856,6.6528,6.6404,6.671,6.7268,6.6807,6.6602,6.664,6.6126,6.6704,6.8244,6.8289,6.9147,7.0614,7.0884,7.1076,7.1184,7.1339,7.1413,7.1397,7.1466,7.1029,7.0292,7.0914,7.0927,7.0368,0.0,0.0,0.0,7.2323,7.3258,7.3142,7.3971,7.3971,7.3153,7.3018,0.0,7.0961,7.0926,7.0441,6.9465,6.858,0.0,0.0,0.0,0.0,0.0,0.0,0.0,0.0,0.0,0.0,0.0,6.2306,6.1837,6.067,6.2232,6.4101,6.5902,6.7034,6.82,6.9567,6.9879,7.0264,7.0967,7.1914,7.2549,7.2588,7.3462,7.4173,7.4331,7.5542,7.6441,7.6678,7.8124,7.9414,7.9999,8.054,8.1237,8.2324,8.1219,8.0719,8.1516,8.2584,8.3572,8.3845,8.392,8.3953,8.4215,8.4183,8.4182,8.432,8.432,8.4243,8.4273,8.4171,8.4185,8.416,8.4095,8.4211,8.4134,8.4134,8.3979,8.3695,8.3618,8.3592,6.7897,0.0,6.7897,6.7668,0.0,6.7286,6.7018,6.6598,6.5757,6.5941,6.6774,6.7156,6.7638,6.81,6.7678,6.7554,6.7637,6.7176,6.7675,6.8866,6.891,6.9655,7.0952,7.1017,7.112,7.1247,7.1334,7.1416,7.1532,7.1991,7.2041,7.1699,7.2531,7.273,7.2419,7.3301,7.3325,7.2479,7.3726,7.4194,7.3804,7.4583,7.4427,7.3142,7.3114,0.0,0.0,0.0,0.0,0.0,0.0,0.0,0.0,0.0,0.0,6.5546,6.4687,6.4219,6.4258,6.4609,6.5234,6.6126,6.7381,6.7185,6.5038,6.6053,6.7342,6.863,6.9879,7.1016,7.1875,7.2339,7.2762,7.3231,7.4017,7.4525,7.4681,7.5707,7.6458,7.6575,7.759,7.8371,7.8376,7.9469,8.0449,8.0964,8.1795,8.2617,8.332,8.2828,8.2491,8.3274,8.4072,8.4685,8.4685,8.4685,8.4857,8.5103,8.5182,8.529,8.5602,8.5618,8.5536,8.5529,8.5483,8.541,8.5385,8.5359,8.5333,8.5333,8.5333,8.5333,8.5282,8.4675,8.4095,6.8317,6.8356,6.8317,6.8241,6.8126,6.8126,6.805,6.7782,0.0,0.0,0.0,6.7821,6.8234,6.8411,6.8296,6.8288,6.8348,6.8195,6.8578,6.9374,6.9374,6.9894,7.0758,7.0825,7.0898,7.1056,7.1178,7.1347,7.1626,7.2366,7.2869,7.3117,7.3812,7.4343,7.4729,7.4924,7.5144,7.5312,7.5558,7.5363,7.47,7.548,7.5168,7.3609,7.357,7.3142,7.2284,7.2316,7.2023,7.1347,7.137,7.0961,7.0152,6.9411,6.8942,6.8747,6.8122,6.7693,6.7732,6.8396,6.9176,7.0035,7.1558,7.1402,6.8981,6.9567,7.0387,7.1128,7.2573,7.3554,7.371,7.433,7.4798,7.4954,7.5735,7.6281,7.636,7.7648,7.8546,7.8702,7.9326,7.9912,7.9912,8.081,8.1435,8.1636,8.2828,8.3896,8.3977,8.402,8.4179,8.4824,8.5247,8.5356,8.5317,8.5309,8.5496,8.6139,8.6143,8.6319,8.6888,8.7019,8.6923,8.6806,8.6816,8.6708,8.6723,8.6571,8.6636,8.6636,8.661,8.6648,8.6687,8.5759,8.4869,7.0037,7.0037,7.0037,6.9655,6.9005,6.9005,6.8585,6.789,6.763,6.8012,6.8846,6.8967,6.9425,6.9999,6.9349,6.9037,6.8999,6.8272,6.8387,6.9228,6.9329,6.9781,7.0616,7.0707,7.0823,7.0925,7.0952,7.1441,7.2283,7.2529,7.2982,7.3682,7.3937,7.4828,7.6277,7.7159,7.7998,7.8741,7.6754,7.5635,7.5519,7.6376,7.6337,7.5402,7.5324,7.4934,7.4077,7.408,7.406,7.3961,7.396,7.3588,7.2807,7.2612,7.226,7.1519,7.1324,7.1245,7.1285,7.1363,7.1831,7.269,7.3627,7.3354,7.1675,7.226,7.2807,7.2963,7.3822,7.4642,7.5345,7.5579,7.5969,7.6672,7.7492,7.8038,7.7999,7.8897,7.9522,7.9522,8.0263,8.0849,8.1005,8.2137,8.3035,8.323,8.3984,8.4882,8.5478,8.5737,8.578,8.5975,8.656,8.6951,8.6832,8.7014,8.6957,8.7166,8.7126,8.7175,8.7426,8.739,8.73,8.715,8.7137,8.7019,8.6993,8.6785,8.6829,8.6881,8.6855,8.6958,8.7565,8.741,8.7035,7.0419,7.0419,7.0419,7.019,6.9846,6.9846,6.9616,6.9273,6.9234,6.9196,6.9266,6.9655,7.0037,7.0342,7.0037,6.9846,6.9846,6.9425,6.9464,6.9846,6.9878,7.0107,7.0528,7.1068,7.1319,7.139,7.1939,7.2447,7.2943,7.3511,7.4011,7.4471,7.5464,7.6458,7.735,7.828,7.8987,7.9414,7.8312,7.7754,7.7779,7.8168,7.7973,7.7155,7.7116,7.6688,7.583,7.5835,7.5863,7.5872,7.5865,7.5729,7.5384,7.4915,7.4486,7.4095,7.3627,7.3354,7.3354,7.3822,7.4447,7.5305,7.5696,7.5579,7.4837,7.472,7.4642,7.4681,7.5423,7.6086,7.6477,7.6945,7.7375,7.7765,7.8585,7.9092,7.9209,7.9873,8.042,8.0498,8.1161,8.1864,8.2293,8.3035,8.3738,8.4128,8.4948,8.5807,8.6666,8.6806,8.6819,8.6819,8.7131,8.7366,8.7408,8.742,8.7576,8.7997,8.8095,8.8227,8.8556,8.8618,8.8533,8.853,8.8412,8.8361,8.8282,8.8235,8.8166,8.8107,8.8042,8.8249,8.8493,8.8582,8.8466,7.0419,7.0419,7.0419,7.0419,7.0419,7.0419,7.0419,7.0419,7.0381,7.0037,6.9578,7.0151,7.0419,7.0419,7.0419,7.0419,7.0419,7.0419,7.0419,7.0419,7.061,7.0686,7.0801,7.1646,7.2095,7.2154,7.2893,7.3377,7.3637,7.4399,7.5011,7.5581,7.7334,7.8318,7.8476,7.9369,7.989,7.9968,8.0036,7.987,7.9532,7.9493,7.9181,7.8636,7.8558,7.8246,7.7623,7.7589,7.758,7.7589,7.7653,7.7674,7.7648,7.7062,7.6672,7.6594,7.6047,7.5657,7.5696,7.6281,7.6945,7.7609,7.7687,7.7687,7.7609,7.7062,7.6477,7.6281,7.6828,7.7375,7.7492,7.8155,7.8702,7.8741,7.9444,7.9951,8.0068,8.0771,8.1396,8.1591,8.2176,8.2879,8.3582,8.3972,8.448,8.5338,8.6002,8.6705,8.7486,8.7681,8.772,8.7915,8.7837,8.7876,8.7915,8.806,8.8349,8.8942,8.8983,8.9211,8.9627,8.9802,8.9797,8.966,8.9664,8.9496,8.9526,8.9449,8.9327,8.9198,8.9072,8.9191,8.9449,8.9704,8.956,7.0419,7.0419,7.0495,7.0419,7.0495,7.0457,7.0495,7.0457,7.0419,7.0381,7.0381,7.0381,7.0457,7.0419,7.0457,7.0457,7.0495,7.0419,7.0457,7.0572,7.1216,7.1598,7.1642,7.2482,7.2898,7.2997,7.315,7.3674,7.4427,7.4635,7.5485,7.712,7.8979,7.9873,8.0152,8.1015,8.1602,8.1758,8.1758,8.1024,7.9598,7.9493,7.9454,7.9415,7.9415,7.9337,7.9337,7.9315,7.9374,7.9344,7.9424,7.9483,7.9444,7.9366,7.9326,7.9287,7.9209,7.9209,7.917,7.9287,7.9287,7.9444,7.9366,7.9366,7.9405,7.9326,7.8624,7.757,7.7804,7.8272,7.835,7.9053,7.9561,7.9639,8.0341,8.0888,8.1044,8.1669,8.245,8.3191,8.3308,8.3699,8.4558,8.5299,8.6119,8.69,8.7134,8.7603,8.8383,8.8579,8.8891,8.9359,8.9125,8.8969,8.9398,8.9711,8.9645,8.9807,8.9869,9.0033,9.0194,9.0153,8.993,9.0374,9.0052,9.0015,8.9947,8.9674,8.9683,8.9836,8.9748,8.9615,9.0223,9.0826,9.0787,7.1947,7.1947,7.1947,7.1947,7.1947,7.1947,7.1942,7.1937,7.1947,7.1947,7.1947,7.1947,7.1642,7.1183,7.1183,7.1412,7.1909,7.1947,7.1947,7.1985,7.2324,7.2477,7.2559,7.3323,7.3705,7.3815,7.427,7.4958,7.5757,7.6394,7.7169,7.8045,7.9362,8.0074,8.0314,8.1243,8.1815,8.1943,8.2481,8.2465,8.1896,8.1792,8.2065,8.2455,8.2065,8.1792,8.1753,8.1349,8.1109,8.1138,8.1172,8.1187,8.1239,8.0771,8.0459,8.042,7.9951,7.9717,7.9717,7.9717,7.9717,7.9717,7.9717,7.9717,7.9717,7.9717,7.9366,7.8858,7.8975,7.917,7.9248,7.9951,8.0459,8.0576,8.1239,8.1942,8.245,8.2762,8.3347,8.4128,8.4284,8.4597,8.5456,8.6314,8.7212,8.7954,8.8188,8.8501,8.9281,8.9477,8.9828,9.0492,9.0452,9.014,9.014,8.9984,9.0218,9.0615,9.0778,9.0828,9.1341,9.1515,9.1522,9.1392,9.1285,9.1249,9.1426,9.13,9.1209,9.1043,9.0957,9.101,9.1282,9.1577,9.1357,7.2979,7.2979,7.2979,7.2979,7.2979,7.2979,7.3012,7.3008,7.3012,7.3017,7.2983,7.3017,7.2788,7.2367,7.2138,7.2406,7.2941,7.2979,7.2979,7.3017,7.3204,7.3318,7.3437,7.4396,7.4893,7.5042,7.5768,7.6494,7.7105,7.7979,7.8539,7.8852,7.97,8.026,8.0525,8.1314,8.1737,8.1929,8.2798,8.3408,8.3675,8.3961,8.4273,8.4598,8.4091,8.3663,8.339,8.2818,8.2374,8.2182,8.2171,8.2234,8.2248,8.1669,8.1356,8.1317,8.0771,8.042,8.042,8.042,8.042,8.042,8.042,8.042,8.042,8.042,8.042,8.042,8.042,8.0381,8.0146,8.0849,8.1317,8.1396,8.2137,8.2879,8.3386,8.366,8.4167,8.4987,8.5182,8.5612,8.6627,8.7407,8.8071,8.8852,8.9047,8.9359,9.0101,9.0374,9.0648,9.1467,9.1624,9.1389,9.0804,9.0804,9.1038,9.1311,9.163,9.1826,9.2482,9.2512,9.257,9.2031,9.2418,9.2439,9.2124,9.2217,9.2288,9.2221,9.2112,9.1921,9.1843,9.1902,9.1838,7.2979,7.3017,7.3017,7.3093,7.3017,7.3093,7.3055,7.317,7.3093,7.3059,7.3139,7.3098,7.3437,7.3972,7.3361,7.2979,7.3055,7.3132,7.3208,7.3284,7.3858,7.4163,7.4278,7.5806,7.657,7.6532,7.7258,7.7793,7.7984,7.8787,7.928,7.9424,8.0323,8.0931,8.1098,8.1426,8.1652,8.1951,8.2841,8.3648,8.4543,8.5322,8.5414,8.491,8.4676,8.4286,8.3585,8.3387,8.2981,8.2151,8.224,8.2226,8.2226,8.2209,8.2176,8.2176,8.2176,8.2137,8.2098,8.2059,8.2059,8.2098,8.1981,8.2137,8.2059,8.2059,8.2098,8.2176,8.2176,8.1864,8.1317,8.1786,8.2254,8.2371,8.2996,8.3465,8.3582,8.4362,8.5104,8.5846,8.6119,8.6744,8.8266,8.8579,8.9047,8.9672,8.9945,9.0257,9.0999,9.1233,9.1585,9.2092,9.2365,9.2404,9.2365,9.2014,9.2131,9.2248,9.2209,9.2404,9.2482,9.2528,9.2551,9.256,9.257,9.2539,9.2482,9.2443,9.2383,9.2327,9.2247,9.2151,9.2093,9.2014,9.1993,7.4584,7.4622,7.4584,7.4584,7.4584,7.4584,7.4584,7.4584,7.4584,7.4622,7.4587,7.4622,7.4775,7.5042,7.5271,7.508,7.4622,7.4584,7.4889,7.5348,7.5653,7.6112,7.6685,7.7296,7.7564,7.7602,7.787,7.829,7.8901,7.9665,8.0121,8.0228,8.0635,8.0953,8.1137,8.14,8.1856,8.2531,8.3466,8.4414,8.5315,8.6241,8.6568,8.6271,8.5793,8.5377,8.5104,8.4533,8.3843,8.297,8.3001,8.2795,8.2265,8.228,8.2293,8.2293,8.2293,8.2293,8.2293,8.2293,8.2293,8.2293,8.2293,8.2606,8.2957,8.3113,8.3308,8.3738,8.3894,8.3699,8.3465,8.3269,8.3308,8.3816,8.4128,8.4558,8.5065,8.5456,8.5963,8.6783,8.7368,8.8071,8.8618,8.9164,8.9867,9.0648,9.0843,9.1194,9.1819,9.2053,9.217,9.2404,9.2482,9.2482,9.2482,9.2482,9.2482,9.2482,9.2482,9.2482,9.2561,9.26,9.2658,9.2892,9.2825,9.272,9.2734,9.2681,9.26,9.2646,9.2572,9.2666,9.2254,9.2549,9.2381,7.5501,7.5539,7.5768,7.5883,7.5921,7.6188,7.6338,7.63,7.6338,7.6303,7.6303,7.6303,7.6303,7.6379,7.6876,7.6838,7.6341,7.6303,7.6609,7.7105,7.7105,7.7449,7.7984,7.829,7.8443,7.8481,7.871,7.913,7.9665,8.0238,8.0505,8.0578,8.072,8.1009,8.1362,8.1677,8.2277,8.3251,8.4259,8.5136,8.5832,8.6677,8.7176,8.7113,8.6675,8.6235,8.6001,8.5416,8.4728,8.3972,8.3888,8.3653,8.3131,8.3107,8.3113,8.3113,8.3113,8.3113,8.3113,8.3113,8.3113,8.3113,8.3113,8.3386,8.3855,8.3933,8.4245,8.4675,8.4831,8.487,8.5065,8.4675,8.448,8.4831,8.5026,8.5456,8.6041,8.6353,8.69,8.772,8.854,8.9125,8.9555,9.0062,9.0765,9.1585,9.1663,9.1975,9.2365,9.2482,9.2482,9.2482,9.2482,9.2482,9.2482,9.2482,9.2522,9.2522,9.2639,9.2639,9.2912,9.2912,9.3029,9.3224,9.3192,9.3054,9.2997,9.2929,9.3032,9.3146,9.3486,9.3755,9.347,9.3302,9.3276,7.5539,7.5692,7.6379,7.6723,7.6838,7.7449,7.7905,7.7788,7.7867,7.7755,7.7678,7.7831,7.7717,7.7908,7.7908,7.7984,7.7908,7.7984,7.7984,7.8022,7.8022,7.8061,7.8252,7.8978,7.9283,7.9321,8.0047,8.0391,8.0391,8.0468,8.0506,8.0581,8.0731,8.1256,8.2194,8.2409,8.2996,8.3979,8.4964,8.56,8.5816,8.6648,8.7105,8.7176,8.7103,8.678,8.6118,8.604,8.5611,8.4844,8.4774,8.4785,8.4622,8.4597,8.4714,8.4597,8.4675,8.4714,8.4675,8.4597,8.4519,8.4519,8.4675,8.4597,8.4753,8.4831,8.4909,8.5104,8.5104,8.526,8.5963,8.6119,8.5807,8.5104,8.5768,8.6314,8.6431,8.6978,8.7759,8.8618,8.9477,9.0335,9.0999,9.1233,9.1585,9.2131,9.2365,9.2365,9.2443,9.2482,9.2482,9.2482,9.2482,9.2482,9.2482,9.2522,9.2561,9.26,9.2717,9.2873,9.3576,9.381,9.4005,9.4161,9.4005,9.3862,9.3835,9.3861,9.4101,9.425,9.4616,9.47,9.4458,9.4255,9.4471,7.6341,7.6418,7.7258,7.7602,7.7602,7.7908,7.7984,7.8022,7.8022,7.8022,7.7986,7.8022,7.8022,7.8175,7.8596,7.8863,7.8939,7.9436,7.9436,7.8978,7.8901,7.9169,7.9665,7.9971,8.0124,8.0162,8.0353,8.0506,8.0544,8.0544,8.0773,8.127,8.1496,8.199,8.2866,8.3144,8.371,8.4618,8.5166,8.5739,8.6454,8.6807,8.6998,8.7105,8.7191,8.7064,8.6858,8.6819,8.6429,8.5611,8.5609,8.539,8.4958,8.4824,8.4831,8.4831,8.4831,8.4831,8.4831,8.4831,8.487,8.4831,8.4831,8.5104,8.5612,8.569,8.5963,8.6431,8.6588,8.6744,8.7017,8.7564,8.7446,8.6705,8.7368,8.7837,8.7876,8.8618,8.9242,8.9594,9.0374,9.0999,9.1311,9.1663,9.217,9.2404,9.2482,9.2482,9.2482,9.2482,9.2482,9.2482,9.2482,9.26,9.2717,9.3029,9.3302,9.3458,9.3537,9.3693,9.4317,9.4708,9.4942,9.4981,9.4825,9.4754,9.4721,9.4777,9.4989,9.5076,9.5155,9.5148,9.5099,9.5246,9.5475,7.7182,7.7258,7.8099,7.8481,7.8519,7.8787,7.8939,7.8903,7.8939,7.8939,7.8941,7.8939,7.8939,7.9054,7.9513,7.9742,7.9818,8.0277,8.0238,7.978,7.9742,8.0047,8.0468,8.0506,8.0506,8.0582,8.085,8.0964,8.1003,8.1308,8.169,8.2149,8.2301,8.2759,8.3561,8.3892,8.4439,8.529,8.5583,8.6081,8.663,8.6881,8.6943,8.6998,8.7105,8.7206,8.7181,8.7195,8.6975,8.6559,8.6467,8.6239,8.5816,8.5793,8.5768,8.5768,8.5768,8.5807,8.5768,8.5885,8.5768,8.5768,8.5768,8.6002,8.6471,8.6588,8.69,8.729,8.7681,8.7915,8.7993,8.8657,8.8852,8.8461,8.8813,8.9164,8.932,8.9945,9.0413,9.0648,9.1194,9.1624,9.1897,9.2092,9.2482,9.2482,9.2482,9.2482,9.2482,9.2482,9.2482,9.2482,9.2482,9.2678,9.3029,9.3497,9.4044,9.4317,9.4552,9.4864,9.5332,9.5527,9.5684,9.5723,9.5606,9.5606,9.5574,9.5613,9.5703,9.5719,9.5887,9.6202,9.6443,9.6328,9.6483,7.8061,7.8175,7.8978,7.936,7.9436,8.0047,8.0315,8.0391,8.0391,8.0315,8.0353,8.0277,8.0315,8.043,8.0315,8.0353,8.0506,8.043,8.0468,8.043,8.0391,8.0468,8.0506,8.0621,8.0735,8.0812,8.1499,8.1843,8.1881,8.2455,8.3028,8.3066,8.3104,8.3525,8.4327,8.4591,8.5117,8.5863,8.6277,8.6539,8.6764,8.7048,8.7176,8.7234,8.7422,8.7542,8.7581,8.7624,8.7443,8.7222,8.7153,8.7146,8.7299,8.7393,8.7205,8.7173,8.7368,8.7251,8.7329,8.7134,8.7134,8.7134,8.7095,8.7407,8.7251,8.7212,8.7329,8.7603,8.8188,8.8657,8.8852,8.9555,8.9984,9.014,9.0101,9.0101,9.0218,9.0921,9.1272,9.1467,9.2014,9.2482,9.2404,9.2443,9.2482,9.2482,9.2482,9.2482,9.2482,9.2482,9.2482,9.2522,9.26,9.299,9.338,9.4395,9.4942,9.5254,9.5567,9.5996,9.623,9.6347,9.6464,9.6464,9.6425,9.6425,9.6464,9.6464,9.666,9.6869,9.7187,9.7604,9.7532,9.7247,9.7176,7.8939,7.9054,7.9856,8.0162,8.02,8.043,8.0506,8.0506,8.0506,8.0506,8.0506,8.0506,8.0506,8.0506,8.0506,8.0506,8.0506,8.0506,8.0506,8.0506,8.0506,8.0506,8.0659,8.1156,8.1461,8.1576,8.2264,8.2684,8.2684,8.299,8.341,8.3945,8.3983,8.4365,8.5092,8.5322,8.5549,8.5964,8.6786,8.7241,8.7494,8.8159,8.8678,8.8807,8.8883,8.899,8.9021,8.909,8.8417,8.7287,8.7286,8.732,8.7429,8.7495,8.7549,8.7557,8.7486,8.7446,8.7446,8.7446,8.7446,8.7407,8.7407,8.7407,8.7407,8.7407,8.772,8.8188,8.8618,8.9008,8.9633,9.0452,9.1116,9.1663,9.1272,9.1155,9.1663,9.2014,9.217,9.2248,9.2365,9.2482,9.2482,9.2482,9.2482,9.2482,9.2482,9.2482,9.2482,9.2639,9.2717,9.2834,9.2951,9.338,9.4005,9.5098,9.584,9.6191,9.6582,9.705,9.7206,9.7206,9.7284,9.7362,9.7128,9.7089,9.7245,9.7323,9.7636,9.7675,9.7675,9.7675,9.7714,9.7539,9.7578,7.9818,7.9856,8.0277,8.0506,8.0506,8.0506,8.0506,8.0506,8.0506,8.0506,8.0506,8.0506,8.0506,8.0506,8.0506,8.0506,8.0506,8.0506,8.0506,8.0506,8.0506,8.0697,8.1079,8.1614,8.1958,8.2416,8.3142,8.3486,8.3639,8.3868,8.4327,8.4709,8.4824,8.5053,8.5473,8.5971,8.6203,8.6469,8.7302,8.7968,8.8197,8.8787,8.9178,8.9382,8.9547,8.9622,8.9668,8.9752,8.9274,8.8547,8.8377,8.8362,8.8373,8.8413,8.8439,8.8447,8.8494,8.8383,8.7993,8.7954,8.7759,8.7486,8.7407,8.7603,8.7876,8.7954,8.8305,8.9086,8.9516,9.0023,9.0531,9.1311,9.1936,9.2287,9.2092,9.1975,9.2482,9.2443,9.2482,9.2482,9.2482,9.2482,9.2482,9.2482,9.2482,9.2482,9.2482,9.2482,9.2522,9.2756,9.3068,9.3263,9.3771,9.4356,9.4864,9.5801,9.6464,9.6855,9.705,9.7636,9.7675,9.7675,9.7675,9.7636,9.7675,9.7675,9.7714,9.7675,9.7675,9.7675,9.7675,9.7753,9.7831,9.8221,9.8221,8.0353,8.0391,8.0468,8.0506,8.0506,8.0506,8.0506,8.0506,8.0506,8.0506,8.0506,8.0506,8.0506,8.0506,8.0506,8.0506,8.0506,8.0506,8.0506,8.0544,8.0697,8.1117,8.1881,8.1996,8.2493,8.3181,8.3983,8.4327,8.4518,8.5091,8.5397,8.5397,8.5435,8.5473,8.5664,8.6314,8.6774,8.7006,8.7963,8.8644,8.8964,8.9338,8.9731,8.9911,9.0069,9.0149,9.0174,9.0181,9.0131,9.0053,8.9924,8.9637,8.9676,8.9808,8.9788,8.9727,8.9657,8.943,8.8969,8.8813,8.8579,8.8032,8.7837,8.7954,8.8657,8.8852,8.9203,9.0062,9.0843,9.1116,9.1467,9.2053,9.2365,9.2482,9.2443,9.2482,9.2482,9.2482,9.2482,9.2482,9.2482,9.2482,9.2482,9.2482,9.2482,9.2482,9.2561,9.2678,9.2873,9.3224,9.3615,9.3966,9.463,9.5449,9.5957,9.6464,9.6972,9.7362,9.7401,9.7675,9.7675,9.7675,9.7675,9.7675,9.7675,9.7714,9.7714,9.7714,9.787,9.8104,9.8416,9.826,9.8182,9.8846,9.9119,7.9551,7.9589,8.0238,8.0506,8.0506,8.0506,8.0506,8.0506,8.0506,8.0506,8.0506,8.0506,8.0506,8.0506,8.0506,8.0506,8.0506,8.0506,8.0506,8.0582,8.127,8.192,8.2569,8.2684,8.3181,8.4021,8.4824,8.5206,8.532,8.5358,8.5511,8.5511,8.5511,8.5511,8.5664,8.6467,8.681,8.708,8.8423,8.9381,8.9752,9.041,9.0856,9.1115,9.1371,9.1585,9.1731,9.1817,9.1846,9.1534,9.0651,9.0002,9.0027,8.9961,9.0032,9.01,9.0031,8.993,8.975,8.9711,8.9633,8.932,8.9203,8.9516,8.9633,8.9711,9.014,9.0843,9.1194,9.1624,9.2092,9.2365,9.2482,9.2482,9.2482,9.2482,9.2482,9.2482,9.2482,9.2482,9.2482,9.2482,9.2482,9.2482,9.2482,9.2482,9.2678,9.2834,9.3302,9.381,9.4278,9.4786,9.5567,9.6308,9.6503,9.6894,9.7245,9.7558,9.7636,9.7909,9.7909,9.7909,9.7987,9.787,9.7675,9.7792,9.8182,9.8455,9.8768,9.8963,9.9158,9.9197,9.9353,9.9822,10.0017,7.9283,7.936,8.0162,8.0506,8.0506,8.0506,8.0506,8.0506,8.0506,8.0506,8.0506,8.0506,8.0506,8.0506,8.0506,8.0506,8.0506,8.0506,8.0735,8.1003,8.1308,8.1805,8.2837,8.3142,8.3563,8.4709,8.5282,8.5511,8.5511,8.5511,8.5511,8.5511,8.555,8.5779,8.6199,8.6963,8.7651,8.8186,8.9301,9.0187,9.0452,9.0937,9.15,9.1759,9.2028,9.219,9.2221,9.2293,9.2323,9.2143,9.1534,9.0989,9.1015,9.1028,9.1014,9.1086,9.1115,9.089,9.0711,9.0562,9.0413,9.0062,9.0023,9.0257,9.0452,9.0609,9.0999,9.1624,9.1897,9.2053,9.2443,9.2482,9.2482,9.2482,9.2482,9.2482,9.2482,9.2482,9.2482,9.2482,9.2482,9.2482,9.2482,9.2561,9.2873,9.3068,9.3263,9.3497,9.4356,9.4864,9.5254,9.5801,9.6542,9.7011,9.7128,9.7323,9.7479,9.7636,9.7675,9.8104,9.8416,9.8377,9.8377,9.8338,9.8377,9.8768,9.9119,9.9392,9.9588,9.9705,9.99,10.0212,10.0446,10.0563,10.0759,7.9092,7.9169,8.0124,8.0506,8.0506,8.0506,8.0506,8.0506,8.0506,8.0506,8.0506,8.0506,8.0582,8.0697,8.0773,8.0697,8.0735,8.0773,8.1117,8.1232,8.1347,8.1958,8.2875,8.3486,8.4174,8.5435,8.5511,8.5511,8.5511,8.5511,8.5511,8.555,8.5741,8.6084,8.6849,8.7804,8.8492,8.9103,8.9988,9.0645,9.0838,9.1062,9.1374,9.1732,9.1983,9.2112,9.219,9.226,9.2347,9.2377,9.2391,9.243,9.2391,9.2419,9.2405,9.2327,9.2217,9.1973,9.1553,9.1414,9.1148,9.0413,9.0413,9.0765,9.1311,9.1507,9.178,9.2131,9.2404,9.2404,9.2482,9.2482,9.2482,9.2482,9.2482,9.2482,9.2482,9.2482,9.2482,9.2482,9.2482,9.2482,9.26,9.2717,9.3185,9.3654,9.3849,9.4317,9.5176,9.5762,9.6074,9.6503,9.7128,9.7362,9.744,9.7479,9.7675,9.787,9.7831,9.8377,9.8885,9.908,9.9158,9.9197,9.9314,9.9627,9.9939,10.0212,10.0368,10.0446,10.0798,10.1227,10.1344,10.1344,10.1461,7.8213,7.8366,7.9856,8.0506,8.0506,8.0506,8.0506,8.0506,8.0506,8.0506,8.0506,8.0506,8.0888,8.1347,8.1576,8.1576,8.1538,8.1423,8.1232,8.1308,8.1729,8.2722,8.3181,8.4136,8.5015,8.5397,8.5511,8.5511,8.5511,8.5511,8.5511,8.5664,8.6199,8.6658,8.7231,8.8224,8.9103,8.9485,9.0214,9.0679,9.0799,9.0991,9.1275,9.1677,9.1912,9.2088,9.2132,9.2226,9.2293,9.2347,9.2377,9.2391,9.243,9.2391,9.2419,9.2393,9.2417,9.2295,9.2169,9.2217,9.2194,9.2085,9.1897,9.1936,9.2209,9.2248,9.2287,9.2365,9.2482,9.2482,9.2482,9.2482,9.2482,9.2482,9.2482,9.2482,9.2482,9.2482,9.2482,9.2482,9.2482,9.26,9.2834,9.3146,9.3693,9.4278,9.4708,9.5254,9.6074,9.6425,9.6621,9.7089,9.7558,9.7636,9.7636,9.7636,9.7753,9.8065,9.826,9.8807,9.9314,9.9783,9.9978,10.0251,10.0212,10.0251,10.0563,10.0993,10.1188,10.1305,10.1813,10.2281,10.2164,10.2047,10.2203,7.8252,7.8787,7.9971,8.0506,8.0506,8.0506,8.0506,8.0506,8.0506,8.0506,8.0506,8.0506,8.0697,8.1156,8.1652,8.1996,8.2187,8.1385,8.1385,8.1767,8.2263,8.2951,8.3524,8.4594,8.5053,8.5397,8.5511,8.5511,8.5511,8.5511,8.555,8.5702,8.639,8.7001,8.7613,8.8644,8.9485,8.9905,9.0364,9.0635,9.0719,9.0953,9.1275,9.1492,9.1812,9.1999,9.2092,9.219,9.226,9.2293,9.2362,9.2391,9.243,9.2391,9.2391,9.2419,9.2393,9.2417,9.2451,9.2471,9.2459,9.2468,9.2514,9.2482,9.2482,9.2482,9.2482,9.2482,9.2482,9.2482,9.2482,9.2482,9.2482,9.2482,9.2482,9.2482,9.2482,9.2482,9.2482,9.2522,9.2561,9.2795,9.3302,9.3693,9.4239,9.4825,9.5449,9.6152,9.6894,9.705,9.7128,9.7323,9.7675,9.7675,9.7753,9.787,9.7987,9.8299,9.8846,9.9431,10.0017,10.0603,10.1188,10.1618,10.1461,10.1032,10.1539,10.2047,10.2125,10.2125,10.2359,10.2554,10.2672,10.2789,10.2789,7.8519,7.936,8.0162,8.0506,8.0506,8.0506,8.0506,8.0506,8.0506,8.0506,8.0506,8.0506,8.0621,8.1041,8.1843,8.2607,8.2951,8.169,8.2149,8.2569,8.2722,8.3181,8.3945,8.4556,8.4938,8.5435,8.5511,8.5511,8.5511,8.5511,8.5588,8.6046,8.6696,8.7498,8.8377,8.9256,8.9982,9.0364,9.0631,9.0635,9.0759,9.0991,9.1241,9.1368,9.1649,9.1902,9.2005,9.2132,9.2208,9.226,9.2347,9.2377,9.2391,9.243,9.243,9.2391,9.2419,9.2393,9.2417,9.2451,9.2481,9.2498,9.2514,9.2522,9.2482,9.2482,9.2482,9.2482,9.2482,9.2482,9.2482,9.2482,9.2482,9.2482,9.2482,9.2482,9.2482,9.2482,9.2482,9.2522,9.2639,9.3029,9.3615,9.4239,9.4786,9.5606,9.623,9.666,9.7323,9.744,9.7518,9.7558,9.7675,9.7675,9.7831,9.8104,9.8338,9.869,9.947,10.029,10.0915,10.1539,10.2047,10.2359,10.2203,10.1891,10.2515,10.2789,10.2593,10.2515,10.2711,10.2789,10.2789,10.2789,10.2789,7.8519,7.936,8.0162,8.0506,8.0506,8.0506,8.0506,8.0506,8.0506,8.0506,8.0506,8.0544,8.0926,8.1805,8.3181,8.3448,8.3295,8.3257,8.3181,8.3219,8.3563,8.3907,8.4441,8.5091,8.532,8.5664,8.5626,8.5511,8.5741,8.5741,8.6008,8.6658,8.7498,8.8339,8.8988,8.9829,9.0478,9.0593,9.0631,9.0635,9.0719,9.0915,9.1136,9.1341,9.1561,9.1798,9.1912,9.2049,9.2152,9.2187,9.2276,9.2347,9.2377,9.243,9.243,9.243,9.2391,9.2405,9.2405,9.244,9.251,9.249,9.2514,9.2522,9.2482,9.2482,9.2482,9.2482,9.2482,9.2482,9.2482,9.2482,9.2482,9.2482,9.2482,9.2482,9.2482,9.2522,9.2522,9.2873,9.3068,9.3537,9.4044,9.4669,9.5332,9.6191,9.6972,9.7362,9.7597,9.7675,9.7675,9.7675,9.7753,9.7792,9.8104,9.8338,9.8924,9.9236,10.0056,10.1032,10.1618,10.2125,10.2398,10.2633,10.2476,10.2437,10.2672,10.2789,10.2789,10.2789,10.2789,10.2789,10.2789,10.2789,10.2789,7.9207,8.0009,8.0353,8.0506,8.0506,8.0506,8.0506,8.0506,8.0506,8.0506,8.0506,8.0506,8.1232,8.2455,8.3333,8.3601,8.3677,8.3715,8.3715,8.3754,8.4175,8.4557,8.4976,8.5358,8.5664,8.6123,8.6314,8.6696,8.6658,8.6581,8.6696,8.7536,8.8301,8.8874,8.9447,9.0173,9.0517,9.0631,9.0593,9.0593,9.0676,9.0759,9.0915,9.1136,9.1406,9.162,9.1812,9.1983,9.2112,9.2208,9.226,9.2347,9.2377,9.243,9.243,9.243,9.243,9.2391,9.2419,9.2468,9.25,9.2481,9.2507,9.2482,9.2482,9.2482,9.2482,9.2482,9.2482,9.2482,9.2482,9.2482,9.2482,9.2482,9.2482,9.2561,9.2561,9.2561,9.2639,9.3107,9.3615,9.42,9.4786,9.5449,9.6113,9.6777,9.7284,9.7479,9.7636,9.7675,9.7675,9.7675,9.7792,9.7909,9.8377,9.8768,9.9705,10.0173,10.0642,10.15,10.2125,10.2593,10.2711,10.2789,10.2672,10.2672,10.2789,10.2789,10.2789,10.2789,10.2789,10.2789,10.2789,10.2789,10.2789,7.9971,8.0506,8.0506,8.0506,8.0506,8.0506,8.0621,8.085,8.085,8.0964,8.1079,8.1232,8.192,8.2837,8.3295,8.3754,8.4212,8.3792,8.4021,8.4403,8.4672,8.4977,8.5397,8.5702,8.6199,8.6849,8.704,8.7536,8.7918,8.788,8.7842,8.8415,8.8874,8.9409,8.9752,9.0249,9.0631,9.0631,9.0631,9.0593,9.0635,9.0679,9.0838,9.1028,9.1241,9.1508,9.1732,9.1897,9.2053,9.2171,9.2226,9.2315,9.2362,9.2362,9.2377,9.2377,9.243,9.2405,9.2432,9.2468,9.25,9.2481,9.2507,9.2482,9.2482,9.2482,9.2482,9.2482,9.2482,9.2482,9.2482,9.2482,9.2482,9.2482,9.2522,9.2639,9.2795,9.2951,9.338,9.4044,9.463,9.5176,9.5762,9.6386,9.6972,9.7479,9.7675,9.7675,9.7675,9.7675,9.7675,9.7714,9.8143,9.8299,9.869,9.9314,10.0251,10.0993,10.15,10.193,10.2476,10.2672,10.275,10.2789,10.2789,10.2789,10.2789,10.2789,10.2789,10.2789,10.2789,10.2789,10.2789,10.2789,10.2789,8.043,8.0506,8.0506,8.0506,8.0506,8.0506,8.0964,8.1576,8.169,8.2073,8.2531,8.2798,8.2798,8.3219,8.3868,8.425,8.4365,8.5015,8.5167,8.5282,8.5435,8.5435,8.5817,8.6235,8.6732,8.7116,8.7651,8.8415,8.9027,8.9103,8.9103,8.9256,8.9447,8.9867,9.0211,9.0478,9.0631,9.0631,9.0631,9.0631,9.0593,9.0638,9.0761,9.0952,9.1136,9.1341,9.1677,9.1785,9.1928,9.2092,9.2191,9.2265,9.2331,9.2347,9.2362,9.2377,9.243,9.2405,9.2405,9.2468,9.25,9.2481,9.2507,9.2482,9.2482,9.2482,9.2482,9.2482,9.2482,9.2482,9.2482,9.2482,9.2482,9.2561,9.2717,9.3068,9.3302,9.3693,9.4161,9.4942,9.5527,9.5957,9.6425,9.6972,9.7167,9.7636,9.7675,9.7675,9.7675,9.7675,9.7675,9.787,9.8494,9.8846,9.9119,9.99,10.0954,10.1578,10.2047,10.232,10.2672,10.2789,10.2789,10.2789,10.2789,10.2789,10.2789,10.2789,10.2789,10.2789,10.2789,10.2789,10.2789,10.2789,10.2789,8.0506,8.0506,8.0506,8.0506,8.0544,8.1079,8.1499,8.1843,8.2302,8.2684,8.3066,8.3524,8.3792,8.4021,8.4632,8.5053,8.5053,8.532,8.5473,8.5511,8.5511,8.5817,8.6237,8.6732,8.7266,8.8148,8.8721,8.9294,9.002,9.002,9.0096,9.0096,9.002,9.0249,9.0555,9.0631,9.0631,9.0631,9.0631,9.0631,9.0593,9.0635,9.0679,9.0838,9.103,9.1245,9.15,9.1666,9.1849,9.2028,9.211,9.221,9.226,9.2276,9.2308,9.2377,9.2391,9.2419,9.2417,9.2479,9.251,9.2507,9.2514,9.2482,9.2482,9.2482,9.2482,9.2482,9.2482,9.2482,9.2482,9.2482,9.2522,9.2639,9.2951,9.338,9.3927,9.4395,9.4981,9.5801,9.6152,9.6503,9.6972,9.7479,9.7558,9.7675,9.7675,9.7675,9.7675,9.7753,9.7753,9.8104,9.8768,9.947,9.9783,10.0681,10.1657,10.2125,10.2554,10.2672,10.2789,10.2789,10.2789,10.2789,10.2789,10.2789,10.2789,10.2789,10.2789,10.2789,10.2789,10.2789,10.2789,10.2789,10.2789,8.0506,8.0544,8.0773,8.0888,8.0964,8.1538,8.2111,8.2607,8.3142,8.3563,8.3754,8.4403,8.4671,8.4824,8.5167,8.5473,8.5435,8.5511,8.5511,8.5626,8.5855,8.6237,8.6772,8.7457,8.8259,8.9218,8.9676,9.0096,9.0517,9.0593,9.0555,9.0517,9.0631,9.0593,9.0593,9.0631,9.0631,9.0631,9.0631,9.0631,9.0631,9.0593,9.0635,9.0719,9.0836,9.1067,9.1303,9.1513,9.1747,9.1936,9.2066,9.2171,9.2226,9.2276,9.2308,9.2377,9.2391,9.2419,9.2417,9.2461,9.249,9.2514,9.2522,9.2482,9.2482,9.2482,9.2482,9.2482,9.2482,9.2482,9.2482,9.2482,9.2795,9.299,9.3341,9.381,9.4708,9.5332,9.5996,9.666,9.6894,9.7089,9.7206,9.7636,9.7636,9.7675,9.7675,9.7675,9.7675,9.7792,9.7909,9.8377,9.9041,9.9783,10.0524,10.1422,10.2203,10.232,10.2672,10.2711,10.2789,10.2789,10.2789,10.2789,10.2789,10.2789,10.2789,10.2789,10.2789,10.2789,10.2789,10.2789,10.2789,10.2789,10.2789,8.0506,8.0582,8.1385,8.1767,8.1843,8.1805,8.2722,8.3907,8.4212,8.4632,8.5129,8.5358,8.5397,8.5397,8.5473,8.5511,8.5511,8.5511,8.5588,8.5817,8.6277,8.6658,8.746,8.8259,8.8985,8.9447,8.9982,9.0402,9.0631,9.0631,9.0631,9.0631,9.0631,9.0631,9.0631,9.0631,9.0631,9.0631,9.0631,9.0631,9.0631,9.0631,9.0635,9.0676,9.0753,9.0915,9.1171,9.1385,9.1561,9.1812,9.1936,9.2071,9.2169,9.2187,9.2276,9.2377,9.2391,9.2419,9.249,9.2498,9.2514,9.2522,9.2482,9.2482,9.2482,9.2482,9.2482,9.2482,9.2482,9.2482,9.2482,9.26,9.3068,9.3458,9.381,9.4512,9.5449,9.6191,9.6816,9.7128,9.7401,9.7636,9.7636,9.7675,9.7675,9.7675,9.7675,9.7675,9.7675,9.7792,9.7948,9.8651,9.9314,10.0173,10.0993,10.2047,10.2672,10.2789,10.2789,10.2789,10.2789,10.2789,10.2789,10.2789,10.2789,10.2789,10.2789,10.2789,10.2789,10.2789,10.2789,10.2789,10.2789,10.2789,10.2789,8.085,8.1385,8.169,8.2455,8.3372,8.3448,8.383,8.4327,8.4824,8.5244,8.5473,8.5511,8.5511,8.5511,8.5511,8.5511,8.5511,8.555,8.5664,8.639,8.6774,8.7615,8.8339,8.8947,8.9634,9.0096,9.0555,9.0631,9.0631,9.0631,9.0631,9.0631,9.0631,9.0631,9.0631,9.0631,9.0631,9.0631,9.0631,9.0631,9.0631,9.0631,9.0593,9.0635,9.0669,9.0796,9.1064,9.122,9.1445,9.1705,9.1838,9.2005,9.2113,9.2151,9.226,9.2362,9.243,9.2419,9.249,9.2498,9.2522,9.2482,9.2482,9.2482,9.2482,9.2482,9.2482,9.2482,9.2482,9.2482,9.2482,9.3107,9.3615,9.3966,9.4473,9.5449,9.6308,9.6933,9.744,9.7479,9.7675,9.7675,9.7675,9.7675,9.7675,9.7675,9.7675,9.7675,9.7675,9.7792,9.7948,9.8807,9.9627,10.0485,10.1383,10.2281,10.275,10.2789,10.2789,10.2789,10.2789,10.2789,10.2789,10.2789,10.2789,10.2789,10.2789,10.2789,10.2789,10.2789,10.2789,10.2789,10.2789,10.2789,10.2789,8.169,8.2225,8.2531,8.3295,8.4212,8.4289,8.4441,8.4747,8.5282,8.5511,8.5511,8.5511,8.5511,8.5511,8.5511,8.5511,8.5511,8.5511,8.597,8.6772,8.7154,8.8033,8.8912,8.9596,9.0054,9.0517,9.0631,9.0631,9.0631,9.0631,9.0631,9.0631,9.0631,9.0631,9.0631,9.0631,9.0631,9.0631,9.0631,9.0631,9.0631,9.0631,9.0631,9.0593,9.0673,9.0755,9.0915,9.1095,9.1322,9.1552,9.1759,9.1936,9.2053,9.2151,9.226,9.2347,9.2405,9.2432,9.249,9.249,9.2514,9.2482,9.2482,9.2482,9.2482,9.2482,9.2482,9.2482,9.2522,9.2756,9.3029,9.3693,9.4161,9.4552,9.5332,9.6308,9.6894,9.7479,9.7597,9.7675,9.7675,9.7675,9.7675,9.7675,9.7675,9.7675,9.7675,9.7753,9.7831,9.8026,9.8377,9.9314,10.0134,10.1032,10.1774,10.2398,10.275,10.2789,10.2789,10.2789,10.2789,10.2789,10.2789,10.2789,10.2789,10.2789,10.2789,10.2789,10.2789,10.2789,10.2789,10.2789,10.2789,10.2789,10.2789,8.299,8.3142,8.3945,8.4289,8.4365,8.4441,8.4824,8.5435,8.5473,8.5511,8.5511,8.5511,8.5511,8.5511,8.5511,8.5511,8.5626,8.5626,8.6237,8.7001,8.7766,8.8644,8.9447,9.0135,9.0402,9.0555,9.0631,9.0631,9.0631,9.0631,9.0631,9.0631,9.0631,9.0631,9.0631,9.0631,9.0631,9.0631,9.0631,9.0631,9.0631,9.0631,9.0631,9.0631,9.0631,9.0676,9.0761,9.0951,9.1164,9.1431,9.1677,9.1888,9.2049,9.2171,9.2243,9.2308,9.2366,9.2417,9.249,9.2481,9.2507,9.2522,9.2482,9.2482,9.2482,9.2522,9.26,9.2717,9.2834,9.3302,9.3732,9.4278,9.4786,9.5449,9.6191,9.6855,9.7401,9.7675,9.7675,9.7675,9.7675,9.7675,9.7675,9.7675,9.7831,9.8065,9.8182,9.8338,9.8455,9.8572,9.908,10.0134,10.0954,10.1696,10.2281,10.2672,10.275,10.2789,10.2789,10.2789,10.2789,10.2789,10.2789,10.2789,10.2789,10.2789,10.2789,10.2789,10.2789,10.2789,10.2789,10.2789,10.2789,10.2789,10.2789,8.3372,8.3945,8.4174,8.4632,8.5091,8.5167,8.5282,8.5511,8.5511,8.5511,8.5511,8.5511,8.5511,8.5511,8.5511,8.5511,8.5779,8.6199,8.6963,8.7727,8.8494,8.937,9.002,9.0478,9.0593,9.0631,9.0631,9.0631,9.0631,9.0631,9.0631,9.0631,9.0631,9.0631,9.0631,9.0631,9.0631,9.0631,9.0631,9.0631,9.0631,9.0631,9.0631,9.0631,9.0631,9.0635,9.0719,9.0877,9.11,9.1303,9.1649,9.1863,9.2044,9.2152,9.2243,9.2323,9.238,9.2417,9.249,9.252,9.2498,9.2514,9.2561,9.2522,9.2482,9.2639,9.2834,9.3185,9.3458,9.3927,9.4552,9.5137,9.5606,9.6191,9.6855,9.7245,9.7675,9.7675,9.7675,9.7675,9.7675,9.7675,9.7675,9.787,9.8065,9.8416,9.8729,9.8963,9.9197,9.9353,9.9666,10.072,10.1422,10.2086,10.2437,10.275,10.2789,10.2789,10.2789,10.2789,10.2789,10.2789,10.2789,10.2789,10.2789,10.2789,10.2789,10.2789,10.2789,10.2789,10.2789,10.2789,10.2789,10.2789,10.2789,8.4289,8.4747,8.4785,8.5091,8.5473,8.5511,8.5511,8.5511,8.5511,8.5511,8.5511,8.5511,8.5511,8.5511,8.555,8.5702,8.6123,8.6543,8.7345,8.853,8.9106,8.9714,9.0326,9.0631,9.0631,9.0631,9.0631,9.0631,9.0631,9.0631,9.0631,9.0631,9.0631,9.0631,9.0631,9.0631,9.0631,9.0631,9.0631,9.0631,9.0631,9.0631,9.0631,9.0631,9.0631,9.0635,9.0717,9.0876,9.1066,9.1202,9.1522,9.1786,9.1936,9.2132,9.226,9.2377,9.2405,9.2432,9.2468,9.2461,9.249,9.2624,9.2834,9.3029,9.3068,9.3185,9.3654,9.4083,9.4317,9.4669,9.5371,9.6074,9.6464,9.6894,9.7284,9.7636,9.7675,9.7675,9.7675,9.7675,9.7675,9.7675,9.7792,9.8026,9.8338,9.8768,9.9353,9.9939,10.0212,10.0407,10.0603,10.1188,10.1774,10.232,10.2593,10.2789,10.2789,10.2789,10.2789,10.2789,10.2789,10.2789,10.2789,10.2789,10.2789,10.2789,10.2789,10.2789,10.2789,10.2789,10.2789,10.2789,10.2789,10.2789,10.2789,8.5473,8.5473,8.5511,8.5473,8.5511,8.5511,8.5511,8.5511,8.5511,8.5511,8.5511,8.5511,8.5511,8.555,8.5702,8.6123,8.6658,8.7154,8.7995,8.9294,8.9523,9.002,9.0402,9.0631,9.0631,9.0631,9.0631,9.0631,9.0631,9.0631,9.0631,9.0631,9.0631,9.0631,9.0631,9.0631,9.0631,9.0631,9.0631,9.0631,9.0631,9.0631,9.0631,9.0631,9.0631,9.0593,9.0635,9.0798,9.0953,9.1168,9.1361,9.1638,9.1897,9.2073,9.226,9.2362,9.2391,9.2419,9.2522,9.2635,9.2744,9.2997,9.3404,9.3927,9.4122,9.3966,9.4356,9.4981,9.5254,9.5645,9.6308,9.6621,9.6972,9.7245,9.7518,9.7675,9.7675,9.7675,9.7675,9.7675,9.7675,9.7753,9.8182,9.8455,9.908,9.9353,9.9939,10.0681,10.1149,10.1422,10.15,10.1696,10.2086,10.2515,10.2633,10.2789,10.2789,10.2789,10.2789,10.2789,10.2789,10.2789,10.2789,10.2789,10.2789,10.2789,10.2789,10.2789,10.2789,10.2789,10.2789,10.2789,10.2789,10.2789,10.2789,8.5431,8.5511,8.5511,8.5511,8.5511,8.5511,8.5511,8.5511,8.5511,8.5511,8.5511,8.5511,8.5511,8.555,8.6161,8.6619,8.6963,8.7957,8.8835,8.9485,8.9905,9.0211,9.0555,9.0631,9.0631,9.0631,9.0631,9.0631,9.0631,9.0631,9.0631,9.0631,9.0631,9.0631,9.0631,9.0631,9.0631,9.0631,9.0631,9.0631,9.0631,9.0631,9.0631,9.0631,9.0631,9.0631,9.0635,9.0798,9.0953,9.1133,9.1361,9.1682,9.1993,9.2132,9.226,9.2377,9.243,9.2444,9.2666,9.2975,9.3281,9.37,9.4263,9.5052,9.5332,9.4981,9.5098,9.5723,9.623,9.6699,9.7011,9.7206,9.7362,9.7558,9.7675,9.7675,9.7675,9.7675,9.7675,9.7675,9.7675,9.8065,9.8494,9.9119,9.9705,10.029,10.0837,10.1461,10.1969,10.2281,10.2203,10.232,10.2437,10.2711,10.2789,10.2789,10.2789,10.2789,10.2789,10.2789,10.2789,10.2789,10.2789,10.2789,10.2789,10.2789,10.2789,10.2789,10.2789,10.2789,10.2789,10.2789,10.2789,10.2789,10.2789,8.5431,8.5511,8.5511,8.5511,8.5511,8.5511,8.5511,8.5511,8.5511,8.5511,8.5511,8.5511,8.5511,8.5664,8.6428,8.7154,8.7536,8.8683,8.9447,8.9982,9.0249,9.0478,9.0631,9.0631,9.0631,9.0631,9.0631,9.0631,9.0631,9.0631,9.0631,9.0631,9.0631,9.0631,9.0631,9.0631,9.0631,9.0631,9.0631,9.0631,9.0631,9.0631,9.0631,9.0631,9.0631,9.0631,9.0676,9.0759,9.0952,9.1164,9.1454,9.1735,9.2032,9.2132,9.226,9.2362,9.2469,9.2547,9.2977,9.347,9.3972,9.4461,9.5191,9.5941,9.6152,9.5918,9.6386,9.6972,9.6972,9.7362,9.7362,9.7518,9.7558,9.7636,9.7675,9.7675,9.7675,9.7675,9.7714,9.7714,9.7948,9.8494,9.9119,10.0056,10.0603,10.0954,10.1539,10.1969,10.2515,10.2789,10.2789,10.2789,10.2789,10.2789,10.2789,10.2789,10.2789,10.2789,10.2789,10.2789,10.2789,10.2789,10.2789,10.2789,10.2789,10.2789,10.2789,10.2789,10.2789,10.2789,10.2789,10.2789,10.2789,10.2789,10.2789,8.5429,8.5511,8.5511,8.5511,8.5511,8.5511,8.5511,8.5511,8.5511,8.5511,8.5511,8.5511,8.555,8.597,8.6581,8.7422,8.8339,8.9294,8.9982,9.0326,9.0555,9.0631,9.0631,9.0631,9.0631,9.0631,9.0631,9.0631,9.0631,9.0631,9.0631,9.0631,9.0631,9.0631,9.0631,9.0631,9.0631,9.0631,9.0631,9.0631,9.0631,9.0631,9.0631,9.0631,9.0631,9.0631,9.0676,9.0761,9.0951,9.1231,9.1543,9.1835,9.2032,9.2151,9.226,9.2362,9.2703,9.3015,9.3496,9.4069,9.4613,9.5182,9.6071,9.6557,9.673,9.7011,9.7479,9.7636,9.7636,9.7636,9.7675,9.7675,9.7675,9.7675,9.7675,9.7675,9.7675,9.7714,9.7792,9.7831,9.8377,9.8963,9.99,10.0837,10.1305,10.1696,10.2086,10.2476,10.2789,10.2789,10.2789,10.2789,10.2789,10.2789,10.2789,10.2789,10.2789,10.2789,10.2789,10.2789,10.2789,10.2789,10.2789,10.2789,10.2789,10.2789,10.2789,10.2789,10.2789,10.2789,10.2789,10.2789,10.2789,10.2789,10.2789,8.5349,8.5511,8.5511,8.5511,8.5511,8.5511,8.5511,8.5511,8.5511,8.5511,8.5511,8.5588,8.5817,8.6619,8.746,8.8262,8.8912,8.9791,9.0249,9.0593,9.0631,9.0631,9.0631,9.0631,9.0631,9.0631,9.0631,9.0631,9.0631,9.0631,9.0631,9.0631,9.0631,9.0631,9.0631,9.0631,9.0631,9.0631,9.0631,9.0631,9.0631,9.0631,9.0631,9.0631,9.0631,9.0631,9.0676,9.08,9.0951,9.1198,9.1571,9.1897,9.2053,9.219,9.2299,9.2674,9.2976,9.356,9.4081,9.4913,9.5576,9.599,9.6763,9.7221,9.7347,9.7401,9.7675,9.7675,9.7675,9.7675,9.7675,9.7675,9.7675,9.7675,9.7675,9.7675,9.7675,9.787,9.8026,9.8416,9.8924,9.9783,10.0837,10.15,10.1813,10.2164,10.2437,10.2789,10.2789,10.2789,10.2789,10.2789,10.2789,10.2789,10.2789,10.2789,10.2789,10.2789,10.2789,10.2789,10.2789,10.2789,10.2789,10.2789,10.2789,10.2789,10.2789,10.2789,10.2789,10.2789,10.2789,10.2789,10.2789,10.2789,10.2789]},{"header":{"parameterUnit":"m.s-1","parameterCategory":1,"la1":31.0,"la2":29.5877,"lo1":-88.7671,"lo2":-86.6584,"dy":0.0162,"dx":0.0185,"nx":115,"ny":88,"refTime":"2024-03-20T00:00:00:Z","depth":0,"parameterNumber":3,"parameterNumberName":"V-component_of_WINDS"},"data":[0.0,0.0,0.0,0.0,0.0,0.0,0.0,0.0,0.0,0.0,0.0,0.0,0.0,0.0,0.0,0.0,0.0,0.0,0.0,0.0,0.0,0.0,0.0,0.0,0.0,0.0,0.0,0.0,0.0,0.0,0.0,0.0,0.0,0.0,0.0,0.0,0.0,0.0,0.0,0.0,0.0,0.0,0.0,0.0,0.0,0.0,0.0,0.0,0.0,0.0,0.0,0.0,0.0,0.0,0.0,0.0,0.0,0.0,0.0,0.0,0.0,0.0,0.0,0.0,0.0,0.0,0.0,0.0,0.0,0.0,0.0,0.0,0.0,0.0,0.0,0.0,0.0,0.0,0.0,0.0,0.0,0.0,0.0,0.0,0.0,0.0,0.0,0.0,0.0,0.0,0.0,0.0,0.0,0.0,0.0,0.0,0.0,0.0,0.0,0.0,0.0,0.0,0.0,0.0,0.0,0.0,0.0,0.0,0.0,0.0,0.0,0.0,0.0,0.0,0.0,0.0,0.0,0.0,0.0,0.0,0.0,0.0,0.0,0.0,0.0,0.0,0.0,0.0,0.0,0.0,0.0,0.0,0.0,0.0,0.0,0.0,0.0,0.0,0.0,0.0,0.0,0.0,0.0,0.0,0.0,0.0,0.0,0.0,0.0,0.0,0.0,0.0,0.0,0.0,0.0,0.0,0.0,0.0,0.0,0.0,0.0,0.0,0.0,0.0,0.0,0.0,0.0,0.0,0.0,0.0,0.0,0.0,0.0,0.0,0.0,0.0,0.0,0.0,0.0,0.0,0.0,0.0,0.0,0.0,0.0,0.0,0.0,0.0,0.0,0.0,0.0,0.0,0.0,0.0,0.0,0.0,0.0,0.0,0.0,0.0,0.0,0.0,0.0,0.0,0.0,0.0,0.0,0.0,0.0,0.0,0.0,0.0,0.0,0.0,0.0,0.0,0.0,0.0,0.0,0.0,0.0,0.0,0.0,0.0,0.0,0.0,0.0,0.0,0.0,0.0,0.0,0.0,0.0,0.0,0.0,0.0,0.0,0.0,0.0,0.0,0.0,0.0,0.0,0.0,0.0,0.0,0.0,0.0,0.0,0.0,0.0,0.0,0.0,0.0,0.0,0.0,0.0,0.0,0.0,0.0,0.0,0.0,0.0,0.0,0.0,0.0,0.0,0.0,0.0,0.0,0.0,0.0,0.0,0.0,0.0,0.0,0.0,0.0,0.0,0.0,0.0,0.0,0.0,0.0,0.0,0.0,0.0,0.0,0.0,0.0,0.0,0.0,0.0,0.0,0.0,0.0,0.0,0.0,0.0,0.0,0.0,0.0,0.0,0.0,0.0,0.0,0.0,0.0,0.0,0.0,0.0,0.0,0.0,0.0,0.0,0.0,0.0,0.0,0.0,0.0,0.0,0.0,0.0,0.0,0.0,0.0,0.0,0.0,0.0,0.0,0.0,0.0,0.0,0.0,0.0,0.0,0.0,0.0,0.0,0.0,0.0,0.0,0.0,0.0,0.0,0.0,0.0,0.0,0.0,0.0,0.0,0.0,0.0,0.0,0.0,0.0,0.0,0.0,0.0,0.0,0.0,0.0,0.0,0.0,0.0,0.0,0.0,0.0,0.0,0.0,0.0,0.0,0.0,0.0,0.0,0.0,0.0,0.0,0.0,0.0,0.0,0.0,0.0,0.0,0.0,0.0,0.0,0.0,0.0,0.0,0.0,0.0,0.0,0.0,0.0,0.0,0.0,0.0,0.0,0.0,0.0,0.0,0.0,0.0,0.0,0.0,0.0,0.0,0.0,0.0,0.0,0.0,0.0,0.0,0.0,0.0,0.0,0.0,0.0,0.0,0.0,0.0,0.0,0.0,0.0,0.0,0.0,0.0,0.0,0.0,0.0,0.0,0.0,0.0,0.0,0.0,0.0,0.0,0.0,0.0,0.0,0.0,0.0,0.0,0.0,0.0,0.0,0.0,0.0,0.0,0.0,0.0,0.0,0.0,0.0,0.0,0.0,0.0,0.0,0.0,0.0,0.0,0.0,0.0,0.0,0.0,0.0,0.0,0.0,0.0,0.0,0.0,0.0,0.0,0.0,0.0,0.0,0.0,0.0,0.0,0.0,0.0,0.0,0.0,0.0,0.0,0.0,0.0,0.0,0.0,0.0,0.0,0.0,0.0,0.0,0.0,0.0,0.0,0.0,0.0,0.0,0.0,0.0,0.0,0.0,0.0,0.0,0.0,0.0,0.0,0.0,0.0,0.0,0.0,0.0,0.0,0.0,0.0,0.0,0.0,0.0,0.0,0.0,0.0,0.0,0.0,0.0,0.0,0.0,0.0,0.0,0.0,0.0,0.0,0.0,0.0,0.0,0.0,0.0,0.0,0.0,0.0,0.0,0.0,0.0,0.0,0.0,0.0,0.0,0.0,0.0,0.0,0.0,0.0,0.0,0.0,0.0,0.0,0.0,0.0,0.0,0.0,0.0,0.0,0.0,0.0,0.0,0.0,0.0,0.0,0.0,0.0,0.0,0.0,0.0,0.0,0.0,0.0,0.0,0.0,0.0,0.0,0.0,0.0,0.0,0.0,0.0,0.0,0.0,0.0,0.0,0.0,0.0,0.0,0.0,0.0,0.0,0.0,0.0,0.0,0.0,0.0,0.0,0.0,0.0,0.0,0.0,0.0,0.0,0.0,0.0,0.0,0.0,0.0,0.0,0.0,0.0,0.0,0.0,0.0,0.0,0.0,0.0,0.0,0.0,0.0,0.0,0.0,0.0,0.0,0.0,0.0,0.0,0.0,0.0,0.0,0.0,0.0,0.0,0.0,0.0,0.0,0.0,0.0,0.0,0.0,0.0,0.0,0.0,0.0,0.0,0.0,0.0,0.0,0.0,0.0,0.0,0.0,0.0,0.0,0.0,0.0,0.0,0.0,0.0,0.0,0.0,0.0,0.0,0.0,0.0,0.0,0.0,0.0,0.0,0.0,0.0,0.0,0.0,0.0,0.0,0.0,0.0,0.0,0.0,0.0,0.0,0.0,0.0,0.0,0.0,0.0,0.0,0.0,0.0,0.0,0.0,0.0,0.0,0.0,0.0,0.0,0.0,0.0,0.0,0.0,0.0,0.0,0.0,0.0,0.0,0.0,0.0,0.0,0.0,0.0,0.0,0.0,0.0,0.0,0.0,0.0,0.0,0.0,0.0,0.0,0.0,0.0,0.0,0.0,0.0,0.0,0.0,0.0,0.0,0.0,0.0,0.0,0.0,0.0,0.0,0.0,0.0,0.0,0.0,0.0,0.0,0.0,0.0,0.0,0.0,0.0,0.0,0.0,0.0,0.0,0.0,0.0,0.0,0.0,0.0,0.0,0.0,0.0,0.0,0.0,0.0,0.0,0.0,0.0,0.0,0.0,0.0,0.0,0.0,0.0,0.0,0.0,0.0,0.0,0.0,0.0,0.0,0.0,0.0,0.0,0.0,0.0,0.0,0.0,0.0,0.0,0.0,0.0,0.0,0.0,0.0,0.0,0.0,0.0,0.0,0.0,0.0,0.0,0.0,0.0,0.0,0.0,0.0,0.0,0.0,0.0,0.0,0.0,0.0,0.0,0.0,0.0,0.0,0.0,0.0,0.0,0.0,0.0,0.0,0.0,0.0,0.0,0.0,0.0,0.0,0.0,0.0,0.0,0.0,0.0,0.0,0.0,0.0,0.0,0.0,0.0,0.0,0.0,0.0,0.0,0.0,0.0,0.0,0.0,0.0,0.0,0.0,0.0,0.0,0.0,0.0,0.0,0.0,0.0,0.0,0.0,0.0,0.0,0.0,0.0,0.0,0.0,0.0,0.0,0.0,0.0,0.0,0.0,0.0,0.0,0.0,0.0,0.0,0.0,0.0,0.0,0.0,0.0,0.0,0.0,0.0,0.0,0.0,0.0,0.0,0.0,0.0,0.0,0.0,0.0,0.0,0.0,0.0,0.0,0.0,0.0,0.0,0.0,0.0,0.0,0.0,0.0,0.0,0.0,0.0,0.0,0.0,0.0,0.0,0.0,0.0,0.0,0.0,0.0,0.0,0.0,0.0,0.0,0.0,0.0,0.0,0.0,0.0,0.0,0.0,0.0,0.0,0.0,0.0,0.0,0.0,0.0,0.0,0.0,0.0,0.0,0.0,0.0,0.0,0.0,0.0,0.0,0.0,0.0,0.0,0.0,0.0,0.0,0.0,0.0,0.0,0.0,0.0,0.0,0.0,0.0,0.0,0.0,0.0,0.0,-0.4198,0.0,0.0,0.0,0.0,0.0,0.0,0.0,0.0,0.0,0.0,0.0,0.0,0.0,0.0,0.0,0.0,0.0,0.0,0.0,0.0,0.0,0.0,0.0,0.0,0.0,0.0,0.0,0.0,0.0,0.0,0.0,0.0,0.0,0.0,0.0,0.0,0.0,0.0,0.0,0.0,0.0,0.0,0.0,0.0,0.0,0.0,0.0,0.0,0.0,0.0,0.0,0.0,0.0,0.0,0.0,0.0,0.0,0.0,0.0,0.0,0.0,0.0,0.0,0.0,0.0,0.0,0.0,0.0,0.0,0.0,0.0,0.0,0.0,0.0,0.0,0.0,0.0,0.0,0.0,0.0,0.0,0.0,0.0,0.0,0.0,0.0,0.0,0.0,0.0,0.0,0.0,0.0,0.0,0.0,0.0,0.0,0.0,0.0,0.0,0.0,0.0,0.0,0.0,0.0,0.0,0.0,0.0,0.0,0.0,0.0,-0.224,-0.269,-0.3048,-0.3406,-0.3946,0.0,0.0,0.0,0.0,0.0,0.0,0.0,0.0,0.0,0.0,0.0,0.0,0.0,0.0,0.0,0.0,0.0,0.0,0.0,0.0,0.0,0.0,0.0,0.0,0.0,0.0,0.0,0.0,0.0,0.0,0.0,0.0,0.0,0.0,0.0,0.0,0.0,0.0,0.0,0.0,0.0,0.0,0.0,0.0,0.0,0.0,0.0,0.0,0.0,0.0,0.0,0.0,0.0,0.0,0.0,0.0,0.0,0.0,0.0,0.0,0.0,0.0,0.0,0.0,0.0,0.0,0.0,0.0,0.0,0.0,0.0,0.0,0.0,0.0,0.0,0.0,0.0,0.0,0.0,0.0,0.0,0.0,0.0,0.0,0.0,0.0,0.0,0.0,0.0,0.0,0.0,0.0,0.0,0.0,0.0,0.0,0.0,0.0,0.0,0.0,0.0,0.0,0.0,0.0,0.0,0.0,0.0,0.0,0.0,0.0,0.0,0.0,-0.2511,-0.2959,-0.3406,0.0,0.0,0.0,0.0,0.0,0.0,0.0,0.0,0.0,0.0,0.0,0.0,0.0,0.0,0.0,0.0,0.0,0.0,0.0,0.0,0.0,0.0,0.0,0.0,0.0,0.0,0.0,0.0,0.0,0.0,0.0,0.0,0.0,0.0,0.0,0.0,0.0,0.0,0.0,0.0,0.0,0.0,0.0,0.0,0.0,0.0,0.0,0.0,0.0,0.0,0.0,0.0,0.0,0.0,0.0,0.0,0.0,0.0,0.0,0.0,0.0,0.0,0.0,0.0,0.0,0.0,0.0,0.0,0.0,0.0,0.0,0.0,0.0,0.0,0.0,0.0,0.0,0.0,0.0,0.0,0.0,0.0,0.0,0.0,0.0,0.0,0.0,0.0,0.0,0.0,0.0,0.0,0.0,0.0,0.0,0.0,0.0,0.0,0.0,0.0,0.0,0.0,0.0,0.0,0.0,0.0,0.0,0.0,0.0,0.0,-0.1436,-0.1525,-0.1794,0.0,-0.2867,0.0,0.0,0.0,0.0,0.0,0.0,0.0,0.0,0.0,0.0,0.0,0.0,0.0,0.0,0.0,0.0,0.0,0.0,0.0,0.0,0.0,0.0,0.0,0.0,0.0,0.0,0.0,0.0,0.0,0.0,0.0,0.0,0.0,0.0,0.0,0.0,0.0,0.0,0.0,0.0,0.0,0.0,0.0,0.0,0.0,0.0,0.0,0.0,0.0,0.0,0.0,0.0,0.0,0.0,0.0,0.0,0.0,0.0,0.0,0.0,0.0,0.0,0.0,0.0,0.0,0.0,0.0,0.0,0.0,0.0,0.0,0.0,0.0,0.0,0.0,0.0,0.0,0.0,0.0,0.0,0.0,0.0,0.0,0.0,0.0,0.0,0.0,0.0,0.0,0.0,0.0,0.0,0.0,0.0,0.0,0.0,0.0,0.0,0.0,0.0,0.0,0.0,0.0,0.0,0.0,0.0,0.0,0.0,0.0,0.0,-0.0987,-0.0987,-0.1346,-0.1794,0.0,0.0,0.0,0.0,0.0,0.0,0.0,0.0,0.0,0.0,0.0,0.0,0.0,0.0,0.0,0.0,0.0,0.0,0.0,0.0,0.0,0.0,0.0,0.0,0.0,0.0,0.0,0.0,0.0,0.0,0.0,0.0,0.0,0.0,0.0,0.0,0.0,0.0,0.0,0.0,0.0,0.0,0.0,0.0,0.0,0.0,0.0,0.0,0.0,0.0,0.0,0.0,0.0,0.0,0.0,0.0,0.0,0.0,0.0,0.0,0.0,0.0,0.0,0.0,0.0,0.0,0.0,0.0,0.0,0.0,0.0,0.0,0.0,0.0,0.0,0.0,0.0,0.0,0.0,0.0,0.0,0.0,0.0,0.0,0.0,0.0,0.0,0.0,0.0,0.0,0.0,0.0,0.0,0.0,0.0,0.0,0.0,0.0,0.0,0.0,0.0,0.0,0.0,0.0,0.0,0.0,0.0,0.0,0.0,0.0,-0.0359,-0.0538,-0.0538,-0.1077,-0.1525,-0.1794,0.0,0.0,0.0,0.0,0.0,0.0,0.0,0.0,0.0,0.0,0.0,0.0,0.0,0.0,0.0,0.0,0.0,0.0,0.0,0.0,0.0,0.0,0.0,0.0,0.0,0.0,0.0,0.0,0.0,0.0,0.0,0.0,0.0,0.0,0.0,0.0,0.0,0.0,0.0,0.0,0.0,0.0,0.0,0.0,0.0,0.0,0.0,0.0,0.0,0.0,0.0,0.0,0.0,0.0,0.0,0.0,0.0,0.0,0.0,0.0,0.0,0.0,0.0,0.0,0.0,0.0,0.0,0.0,0.0,0.0,0.0,0.0,0.0,0.0,0.0,0.0,0.0,0.0,0.0,0.0,0.0,0.0,0.0,0.0,0.0,0.0,0.0,0.0,0.0,0.0,0.0,0.0,0.0,0.0,0.0,0.0,0.0,0.0,0.0,0.0,0.0,0.0,0.0,0.0,0.0,0.0,0.0,0.0,0.0,-0.0,-0.0,-0.009,-0.0897,-0.1436,0.0,0.0,0.0,0.0,0.0,0.0,0.0,0.0,0.0,0.0,0.0,0.0,0.0,0.0,0.0,0.0,0.0,0.0,0.0,0.0,0.0,0.0,0.0,0.0,0.0,0.0,0.0,0.0,0.0,0.0,0.0,0.0,0.0,0.0,0.0,0.0,0.0,0.0,0.0,0.0,0.0,0.0,0.0,0.0,0.0,0.0,0.0,0.0,0.0,0.0,0.0,0.0,0.0,0.0,0.0,0.0,0.0,0.0,0.0,0.0,0.0,0.0,0.0,0.0,0.0,0.0,0.0,0.0,0.0,0.0,0.0,0.0,0.0,0.0,0.0,0.0,0.0,0.0,0.0,0.0,0.0,0.0,0.0,0.0,0.0,0.0,0.0,0.0,0.0,0.0,0.0,0.0,0.0,0.0,0.0,0.0,0.0,0.0,0.0,0.0,0.0,0.0,0.0,0.0,0.0,0.0,0.0,0.0,0.0,0.0449,0.0546,0.0368,-0.0,-0.0276,-0.0458,0.0,0.0,0.0,0.0,0.0,0.0,0.0,0.0,0.0,0.0,0.0,0.0,0.0,0.0,0.0,0.0,0.0,0.0,0.0,0.0,0.0,0.0,0.0,0.0,0.0,0.0,0.0,0.0,0.0,0.0,0.0,0.0,0.0,0.0,0.0,0.0,0.0,0.0,0.0,0.0,0.0,0.0,0.0,0.0,0.0,0.0,0.0,0.0,0.0,0.0,0.0,0.0,0.0,0.0,0.0,0.0,0.0,0.0,0.0,0.0,0.0,0.0,0.0,0.0,0.0,0.0,0.0,0.0,0.0,0.0,0.0,0.0,0.0,0.0,0.0,0.0,0.0,0.0,0.0,0.0,0.0,0.0,0.0,0.0,0.0,0.0,0.0,0.0,0.0,0.0,0.0,0.0,0.0,0.0,0.0,0.0,0.0,0.0,0.0,0.0,0.0,0.0,0.0,0.0,0.0,0.0,0.0,0.0,0.0,0.1007,0.0,0.0847,0.0571,0.0376,0.0279,0.0,0.0,0.0,0.0,0.0,0.0,0.0,0.0,0.0,0.0,0.0,0.0,0.0,0.0,0.0,0.0,0.0,0.0,0.0,0.0,0.0,0.0,0.0,0.0,0.0,0.0,0.0,0.0,0.0,0.0,0.0,0.0,0.0,0.0,0.0,0.0,0.0,0.0,0.0,0.0,0.0,0.0,0.0,0.0,0.0,0.0,0.0,0.0,0.0,0.0,0.0,0.0,0.0,0.0,0.0,0.0,0.0,0.0,0.0,0.0,0.0,0.0,0.0,0.0,0.0,0.0,0.0,0.0,0.0,0.0,0.0,0.0,0.0,0.0,0.0,0.0,0.0,0.0,0.0,0.0,0.0,0.0,0.0,0.0,0.0,0.0,0.0,0.0,0.0,0.0,0.0,0.0,0.0,0.0,0.0,0.0,0.0,0.0,0.0,0.0,0.0,0.0,0.0,0.0,0.0,0.0,0.0,0.0,0.1497,0.1524,0.1527,0.1528,0.1527,0.105,0.0756,0.0,0.0,0.0,0.0,0.0,0.0,0.0,0.0,0.0,0.0,0.0,0.0,0.0,0.0,0.0,0.0,0.0,0.0,0.0,0.0,0.0,0.0,0.0,0.0,0.0,0.0,0.0,0.0,0.0,0.0,0.0,0.0,0.0,0.0,0.0,0.0,0.0,0.0,0.0,0.0,0.0,0.0,0.0,0.0,0.0,0.0,0.0,0.0,0.0,0.0,0.0,0.0,0.0,0.0,0.0,0.0,0.0,0.0,0.0,0.0,0.0,0.0,0.0,0.0,0.0,0.0,0.0,0.0,0.0,0.0,0.0,0.0,0.0,0.0,0.0,0.0,0.0,0.0,0.0,0.0,0.0,0.0,0.0,0.0,0.0,0.0,0.0,0.0,0.0,0.0,0.0,0.0,0.0,0.0,0.0,0.0,0.0,0.0,0.0,0.0,0.0,0.0,0.0,0.0,0.0,0.0,0.0,0.0,0.0,0.1557,0.1558,0.1568,0.1587,0.147,0.1359,0.0,0.0,0.0,0.0,0.0,0.0,0.0,0.0,0.0,0.0,0.0,0.0,0.0,0.0,0.0,0.0,0.0,0.0,0.0,0.0,0.0,0.0,0.0,0.0,0.0,0.0,0.0,0.0,0.0,0.0,0.0,0.0,0.0,0.0,0.0,0.0,0.0,0.0,0.0,0.0,0.0,0.0,0.0,0.0,0.0,0.0,0.0,0.0,0.0,0.0,0.0,0.0,0.0,0.0,0.0,0.0,0.0,0.0,0.0,0.0,0.0,0.0,0.0,0.0,0.0,0.0,0.0,0.0,0.0,0.0,0.0,0.0,0.0,0.0,0.0,0.0,0.0,0.0,0.0,0.0,0.0,0.0,0.0,0.0,0.0,0.0,0.0,0.0,0.0,0.0,0.0,0.0,0.0,0.0,0.0,0.0,0.0,0.0,0.0,0.0,0.0,0.0,0.0,0.0,0.0,0.0,0.0,0.0,0.0,0.1637,0.1626,0.163,0.165,0.1621,0.16,0.1588,0.0,0.0,0.0,0.0,0.0,0.0,0.0,0.0,0.0,0.0,0.0,0.0,0.0,0.0,0.0,0.0,0.0,0.0,0.0,0.0,0.0,0.0,0.0,0.0,0.0,0.0,0.0,0.0,0.0,0.0,0.0,0.0,0.0,0.0,0.0,0.0,0.0,0.0,0.0,0.0,0.0,0.0,0.0,0.0,0.0,0.0,0.0,0.0,0.0,0.0,0.0,0.0,0.0,0.0,0.0,0.0,0.0,0.0,0.0,0.0,0.0,0.0,0.0,0.0,0.0,0.0,0.0,0.0,0.0,0.0,0.0,0.0,0.0,0.0,0.0,0.0,0.0,0.0,0.0,0.0,0.0,0.0,0.0,0.0,0.0,0.0,0.0,0.0,0.0,0.0,0.0,0.0,0.0,0.0,0.0,0.0,0.0,0.0,0.0,0.0,0.0,0.0,0.0,0.0,0.0,0.0,0.0,0.0,0.1753,0.173,0.1714,0.1705,0.1681,0.1652,0.0,0.0,0.0,0.0,0.0,0.0,0.0,0.0,0.0,0.0,0.0,0.0,0.0,0.0,0.0,0.0,0.0,0.0,0.0,0.0,0.0,0.0,0.0,0.0,0.0,0.0,0.0,0.0,0.0,0.0,0.0,0.0,0.0,0.0,0.0,0.0,0.0,0.0,0.0,0.0,0.0,0.0,0.0,0.0,0.0,0.0,0.0,0.0,0.0,0.0,0.0,0.0,0.0,0.0,0.0,0.0,0.0,0.0,0.0,0.0,0.0,0.0,0.0,0.0,0.0,0.0,0.0,0.0,0.0,0.0,0.0,0.0,0.0,0.0,0.0,0.0,0.0,0.0,0.0,0.0,0.0,0.0,0.0,0.0,0.0,0.0,0.0,0.0,0.0,0.0,0.0,0.0,0.0,0.0,0.0,0.0,0.0,0.0,0.0,0.0,0.0,0.0,0.0,0.0,0.0,0.0,0.0,0.0,0.0,0.1814,0.1853,0.1829,0.1742,0.173,0.1703,0.0,0.0,0.0,0.0,0.0,0.0,0.0,0.0,0.0,0.0,0.0,0.0,0.0,0.0,0.0,0.0,0.0,0.0,0.0,0.0,0.0,0.0,0.0,0.0,0.0,0.0,0.0,0.0,0.0,0.0,0.0,0.0,0.0,0.0,0.0,0.0,0.0,0.0,0.0,0.0,0.0,0.0,0.0,0.0,0.0,0.0,0.0,0.0,0.0,0.0,0.0,0.0,0.0,0.0,0.0,0.0,0.0,0.0,0.0,0.0,0.0,0.0,0.0,0.0,0.0,0.0,0.0,0.0,0.0,0.0,0.0,0.0,0.0,0.0,0.0,0.0,0.0,0.0,0.0,0.0,0.0,0.0,0.0,0.0,0.0,0.0,0.0,0.0,0.0,0.0,0.0,0.0,0.0,0.0,0.0,0.0,0.0,0.0,0.0,0.0,0.0,0.0,0.0,0.0,0.0,0.0,0.0,0.0,0.1817,0.1877,0.1937,0.1934,0.1865,0.1813,0.176,0.0,0.0,0.0,0.0,0.0,0.0,0.0,0.0,0.0,0.0,0.0,0.0,0.0,0.0,0.0,0.0,0.0,0.0,0.0,0.0,0.0,0.0,0.0,0.0,0.0,0.0,0.0,0.0,0.0,0.0,0.0,0.0,0.0,0.0,0.0,0.0,0.0,0.0,0.0,0.0,0.0,0.0,0.0,0.0,0.0,0.0,0.0,0.0,0.0,0.0,0.0,0.0,0.0,0.0,0.0,0.0,0.0,0.0,0.0,0.0,0.0,0.0,0.0,0.0,0.0,0.0,0.0,0.0,0.0,0.0,0.0,0.0,0.0,0.0,0.0,0.0,0.0,0.0,0.0,0.0,0.0,0.0,0.0,0.0,0.0,0.0,0.0,0.0,0.0,0.0,0.0,0.0,0.0,0.0,0.0,0.0,0.0,0.0,0.0,0.0,0.0,0.0,0.0,0.0,0.0,0.0,0.0,0.0,0.1877,0.1944,0.2003,0.2033,0.2029,0.1914,0.1821,0.0,0.0,0.0,0.0,0.0,0.0,0.0,0.0,0.0,0.0,0.0,0.0,0.0,0.0,0.0,0.0,0.0,0.0,0.0,0.0,0.0,0.0,0.0,0.0,0.0,0.0,0.0,0.0,0.0,0.0,0.0,0.0,0.0,0.0,0.0,0.0,0.0,0.0,0.0,0.0,0.0,0.0,0.0,0.0,0.0,0.0,0.0,0.0,0.0,0.0,0.0,0.0,0.0,0.0,0.0,0.0,0.0,0.0,0.0,0.0,0.0,0.0,0.0,0.0,0.0,0.0,0.0,0.0,0.0,0.0,0.0,0.0,0.0,0.0,0.0,0.0,0.0,0.0,0.0,0.0,0.0,0.0,0.0,0.0,0.0,0.0,0.0,0.0,0.0,0.0,0.0,0.0,0.0,0.0,0.0,0.0,0.0,0.0,0.0,0.0,0.0,0.0,0.0,0.0,0.0,0.0,0.0,0.0,0.1929,0.2034,0.2094,0.2125,0.2125,0.1986,0.1883,0.0,0.0,0.0,0.0,0.0,0.0,0.0,0.0,0.0,0.0,0.0,0.0,0.0,0.0,0.0,0.0,0.0,0.0,0.0,0.0,0.0,0.0,0.0,0.0,0.0,0.0,0.0,0.0,0.0,0.0,0.0,0.0,0.0,0.0,0.0,0.0,0.0,0.0,0.0,0.0,0.0,0.0,0.0,0.0,0.0,0.0,0.0,0.0,-0.6431,0.0,0.0,0.0,0.0,0.0,0.0,0.0,0.0,0.0,0.0,0.0,0.0,0.0,0.0,0.0,0.0,0.0,0.0,0.0,0.0,0.0,0.0,0.0,0.0,0.0,0.0,0.0,0.0,0.0,0.0,0.0,0.0,0.0,0.0,0.0,0.0,0.0,0.0,0.0,0.0,0.0,0.0,0.0,0.0,0.0,0.0,0.0,0.0,0.0,0.0,0.0,0.0,0.0,0.0,0.0,0.0,0.0,0.0,0.0,0.1973,0.2063,0.2136,0.2176,0.2172,0.2057,0.1952,0.0,0.0,0.0,0.0,0.0,0.0,0.0,0.0,0.0,0.0,0.0,0.0,0.0,0.0,0.0,0.0,0.0,0.0,0.0,0.0,0.0,0.0,0.0,0.0,0.0,0.0,0.0,0.0,0.0,0.0,0.0,0.0,0.0,0.0,0.0,0.0,0.0,0.0,0.0,0.0,0.0,0.0,0.0,0.0,0.0,0.0,0.0,0.0,0.0,0.0,0.0,0.0,0.0,0.0,0.0,0.0,0.0,0.0,0.0,0.0,0.0,0.0,0.0,0.0,0.0,0.0,0.0,0.0,0.0,0.0,0.0,0.0,0.0,0.0,0.0,0.0,0.0,0.0,0.0,0.0,0.0,0.0,0.0,0.0,0.0,0.0,0.0,0.0,0.0,0.0,0.0,0.0,0.0,0.0,0.0,0.0,0.0,0.0,0.0,0.0,0.0,0.0,0.0,0.0,0.0,0.0,0.0,0.1915,0.202,0.2084,0.2169,0.2211,0.2206,0.2124,0.2022,0.1903,0.0,0.0,0.0,0.0,0.0,0.0,0.0,0.0,0.0,0.0,0.0,0.0,0.0,0.0,0.0,0.0,0.0,0.0,0.0,0.0,0.0,0.0,0.0,0.0,0.0,0.0,0.0,0.0,0.0,0.0,0.0,0.0,0.0,0.0,0.0,0.0,0.0,0.0,-0.6285,-0.6513,0.0,0.0,0.0,0.0,0.0,0.0,0.0,0.0,-0.6834,0.0,0.0,0.0,0.0,0.0,0.0,0.0,0.0,0.0,0.0,0.0,0.0,0.0,0.0,0.0,0.0,0.0,0.0,0.0,0.0,0.0,0.0,0.0,0.0,0.0,0.0,0.0,0.0,0.0,0.0,0.0,0.0,0.0,0.0,0.0,0.0,0.0,0.0,0.0,0.0,0.0,0.0,0.0,0.0,0.0,0.0,0.0,0.0,0.0,0.0,0.0,0.0,0.0,0.0,0.0,0.0,0.1864,0.1986,0.2091,0.2176,0.2241,0.2263,0.2237,0.2174,0.2083,0.1964,0.0,0.0,0.0,0.0,0.0,0.0,0.0,0.0,0.0,0.0,0.0,0.0,0.0,0.0,0.0,0.0,0.0,0.0,0.0,0.0,0.0,0.0,0.0,0.0,0.0,0.0,0.0,0.0,0.0,0.0,0.0,0.0,0.0,0.0,0.0,0.0,0.0,0.0,0.0,-0.6681,-0.6779,0.0,0.0,0.0,0.0,0.0,0.0,0.0,0.0,-0.6904,0.0,0.0,0.0,0.0,0.0,0.0,0.0,0.0,0.0,0.0,0.0,0.0,0.0,0.0,0.0,0.0,0.0,0.0,0.0,0.0,0.0,0.0,0.0,0.0,0.0,0.0,0.0,0.0,0.0,0.0,0.0,0.0,0.0,0.0,0.0,0.0,0.0,0.0,0.0,0.0,0.0,0.0,0.0,0.0,0.0,0.0,0.0,0.0,0.0,0.0,0.0,0.0,0.0,0.0,0.0,0.1887,0.2004,0.2109,0.2198,0.2259,0.2277,0.2245,0.2187,0.2098,0.0,0.0,0.0,0.0,0.0,0.0,0.0,0.0,0.0,0.0,0.0,0.0,0.0,0.0,0.0,0.0,0.0,0.0,0.0,0.0,0.0,0.0,0.0,0.0,0.0,0.0,0.0,0.0,0.0,0.0,0.0,0.0,0.0,0.0,0.0,0.0,0.0,0.0,0.0,0.0,-0.6872,-0.7008,-0.7067,0.0,0.0,0.0,0.0,0.0,0.0,-0.7263,-0.7203,0.0,0.0,0.0,0.0,0.0,0.0,0.0,0.0,0.0,0.0,0.0,0.0,0.0,0.0,0.0,0.0,0.0,0.0,0.0,0.0,0.0,0.0,0.0,0.0,0.0,0.0,0.0,0.0,0.0,0.0,0.0,0.0,0.0,0.0,0.0,0.0,0.0,0.0,0.0,0.0,0.0,0.0,0.0,0.0,0.0,0.0,0.0,0.0,0.0,0.0,0.0,0.0,0.0,0.0,0.0,0.1904,0.2022,0.2123,0.2207,0.2268,0.2282,0.2247,0.2187,0.2098,0.0,0.0,0.0,0.0,0.0,0.0,0.0,0.0,0.0,0.0,0.0,0.0,0.0,0.0,0.0,0.0,0.0,0.0,0.0,0.0,0.0,0.0,0.0,0.0,0.0,0.0,0.0,0.0,0.0,0.0,0.0,0.0,0.0,0.0,0.0,0.0,0.0,0.0,0.0,0.0,0.0,-0.7241,-0.7388,-0.7513,0.0,0.0,0.0,0.0,-0.7633,-0.7606,0.0,0.0,0.0,0.0,0.0,0.0,0.0,0.0,0.0,0.0,0.0,0.0,0.0,0.0,0.0,0.0,0.0,0.0,0.0,0.0,0.0,0.0,0.0,0.0,0.0,0.0,0.0,0.0,0.0,0.0,0.0,0.0,0.0,0.0,0.0,0.0,0.0,0.0,0.0,0.0,0.0,0.0,0.0,0.0,0.0,0.0,0.0,0.0,0.0,0.0,0.0,0.0,0.0,0.0,0.0,0.0,0.1966,0.2084,0.2174,0.2238,0.2298,0.2301,0.2247,0.2187,0.2098,0.0,0.0,0.0,0.0,0.0,0.0,0.0,0.0,0.0,0.0,0.0,0.0,0.0,0.0,0.0,0.0,0.0,0.0,0.0,0.0,0.0,0.0,0.0,0.0,0.0,0.0,0.0,0.0,0.0,0.0,0.0,0.0,0.0,0.0,0.0,0.0,0.0,0.0,0.0,0.0,0.0,-0.7399,-0.7627,-0.7758,-0.7867,0.0,0.0,-0.8111,-0.8008,-0.7899,0.0,0.0,0.0,0.0,0.0,0.0,0.0,0.0,0.0,0.0,0.0,0.0,0.0,0.0,0.0,0.0,0.0,0.0,0.0,0.0,0.0,0.0,0.0,0.0,0.0,0.0,0.0,0.0,0.0,0.0,0.0,0.0,0.0,0.0,0.0,0.0,0.0,0.0,0.0,0.0,0.0,0.0,0.0,0.0,0.0,0.0,0.0,0.0,0.0,0.0,0.0,0.0,0.0,0.0,0.0,0.188,0.2,0.2136,0.2234,0.2293,0.2337,0.233,0.2273,0.2196,0.2098,0.0,0.0,0.0,0.0,0.0,0.0,0.0,0.0,0.0,0.0,0.0,0.0,0.0,0.0,0.0,0.0,0.0,0.0,0.0,0.0,0.0,0.0,0.0,0.0,0.0,0.0,0.0,0.0,0.0,0.0,0.0,0.0,0.0,0.0,0.0,0.0,0.0,0.0,0.0,0.0,0.0,0.0,-0.7774,-0.7959,0.0,0.0,0.0,-0.8214,-0.8166,0.0,0.0,0.0,0.0,0.0,0.0,0.0,0.0,0.0,0.0,0.0,0.0,0.0,0.0,0.0,0.0,0.0,0.0,0.0,0.0,0.0,0.0,0.0,0.0,0.0,0.0,0.0,0.0,0.0,0.0,0.0,0.0,0.0,0.0,0.0,0.0,0.0,0.0,0.0,0.0,0.0,0.0,0.0,0.0,0.0,0.0,0.0,0.0,0.0,0.0,0.0,0.0,0.0,0.0,0.0,0.0,0.0,0.2018,0.2168,0.2274,0.2331,0.2363,0.2354,0.2303,0.2214,0.0,0.0,0.0,0.0,0.0,0.0,0.0,0.0,0.0,0.0,0.0,0.0,0.0,0.0,0.0,0.0,0.0,0.0,0.0,0.0,0.0,0.0,0.0,0.0,0.0,0.0,0.0,-0.5822,0.0,0.0,0.0,0.0,0.0,0.0,0.0,0.0,0.0,0.0,0.0,0.0,0.0,0.0,-0.7807,-0.7981,-0.8166,-0.8312,0.0,0.0,-0.8367,-0.8367,-0.8345,-0.8253,0.0,0.0,0.0,0.0,0.0,0.0,0.0,0.0,0.0,0.0,0.0,0.0,0.0,0.0,0.0,0.0,0.0,0.0,0.0,0.0,0.0,0.0,0.0,0.0,0.0,0.0,0.0,0.0,0.0,0.0,0.0,0.0,0.0,0.0,0.0,0.0,0.0,0.0,0.0,0.0,0.0,0.0,0.0,0.0,0.0,0.0,0.0,0.0,0.0,0.0,0.0,0.0,0.0,0.0,0.0,0.202,0.2168,0.2274,0.2331,0.2363,0.2363,0.233,0.2244,0.2153,0.0,0.0,0.0,0.0,0.0,0.0,0.0,0.0,0.0,0.0,0.0,0.0,0.0,0.0,0.0,0.0,0.0,0.0,0.0,0.0,0.0,0.0,0.0,0.0,0.0,0.0,0.0,0.0,0.0,0.0,0.0,0.0,0.0,0.0,0.0,0.0,0.0,0.0,0.0,0.0,0.0,-0.7986,-0.8334,-0.8394,-0.8524,0.0,0.0,-0.8731,-0.8731,-0.8638,-0.8524,-0.8399,0.0,0.0,0.0,0.0,0.0,0.0,0.0,0.0,0.0,0.0,0.0,0.0,0.0,0.0,0.0,0.0,0.0,0.0,0.0,0.0,0.0,0.0,0.0,0.0,0.0,0.0,0.0,0.0,0.0,0.0,0.0,0.0,0.0,0.0,0.0,0.0,0.0,0.0,0.0,0.0,0.0,0.0,0.0,0.0,0.0,0.0,0.0,0.0,0.0,0.0,0.0,0.0,0.0,0.1966,0.2074,0.2223,0.2328,0.2387,0.2418,0.241,0.2361,0.2293,0.2204,0.0,0.0,0.0,0.0,0.0,0.0,0.0,0.0,0.0,0.0,0.0,0.0,0.0,0.0,0.0,0.0,0.0,0.0,0.0,0.0,0.0,0.0,0.0,0.0,0.0,0.0,0.0,0.0,-0.6417,-0.6643,-0.66,0.0,0.0,0.0,0.0,0.0,0.0,0.0,0.0,0.0,0.0,-0.7985,-0.847,-0.859,0.0,0.0,-0.891,-0.8883,-0.8878,-0.878,-0.866,-0.8541,-0.8345,0.0,0.0,0.0,0.0,0.0,0.0,0.0,0.0,0.0,0.0,0.0,0.0,0.0,0.0,0.0,0.0,0.0,0.0,0.0,0.0,0.0,0.0,0.0,0.0,0.0,0.0,0.0,0.0,0.0,0.0,0.0,0.0,0.0,0.0,0.0,0.0,0.0,0.0,0.0,0.0,0.0,0.0,0.0,0.0,0.0,0.0,0.0,0.0,0.0,0.0,0.0,0.0,0.1999,0.2109,0.2256,0.2363,0.2423,0.2454,0.2448,0.2406,0.2339,0.2259,0.0,0.0,0.0,0.0,0.0,0.0,0.0,0.0,0.0,0.0,0.0,0.0,0.0,0.0,0.0,0.0,0.0,0.0,0.0,0.0,0.0,0.0,0.0,0.0,0.0,0.0,0.0,0.0,-0.6391,-0.6494,-0.6531,0.0,0.0,0.0,0.0,0.0,0.0,0.0,0.0,0.0,0.0,-0.7925,-0.8333,-0.8476,-0.8745,-0.8755,-0.889,-0.9008,-0.9008,-0.8932,-0.884,-0.8715,0.0,0.0,0.0,0.0,0.0,0.0,0.0,0.0,0.0,0.0,0.0,0.0,0.0,0.0,0.0,0.0,0.0,0.0,0.0,0.0,0.0,0.0,0.0,0.0,0.0,0.0,0.0,0.0,0.0,0.0,0.2016,0.0,0.0,0.0,0.0,0.0,0.0,0.0,0.0,0.0,0.0,0.0,0.0,0.0,0.0,0.0,0.0,0.0,0.0,0.0,0.0,0.0,0.0,0.202,0.2109,0.2256,0.2363,0.2423,0.2454,0.2467,0.2463,0.238,0.2318,0.2285,0.0,0.0,0.0,0.0,0.0,0.0,0.0,0.0,0.0,0.0,0.0,0.0,0.0,0.0,0.0,0.0,0.0,0.0,0.0,0.0,0.0,0.0,0.0,0.0,0.0,0.0,-0.6248,-0.6061,-0.6003,0.0,0.0,0.0,0.0,0.0,0.0,0.0,0.0,0.0,0.0,-0.7637,-0.7818,-0.7796,-0.8045,-0.8474,-0.8683,-0.8913,-0.9133,-0.9128,-0.9128,-0.9084,0.0,0.0,0.0,0.0,0.0,0.0,0.0,0.0,0.0,0.0,0.0,0.0,0.0,0.0,0.0,0.0,0.0,0.0,0.0,0.0,0.0,0.0,0.0,0.0,0.0,0.0,0.0,0.3089,0.269,0.0,0.0,0.0,0.0,0.0,0.0,0.0,0.0,0.0,0.0,0.0,0.1795,0.1836,0.0,0.0,0.0,0.0,0.0,0.0,0.0,0.0,0.0,0.0,0.0,0.0,0.2049,0.214,0.2267,0.2363,0.2423,0.2473,0.2489,0.2469,0.2439,0.2382,0.2293,0.0,0.0,0.0,0.0,0.0,0.0,0.0,0.0,0.0,0.0,0.0,0.0,0.0,0.0,0.0,0.0,0.0,0.0,0.0,0.0,0.0,0.0,0.0,0.0,0.0,-0.5371,0.0,0.0,0.0,0.0,0.0,0.0,0.0,0.0,0.0,0.0,0.0,-0.75,-0.7408,-0.7167,-0.7337,-0.785,-0.8062,-0.8135,0.0,0.0,0.0,0.0,0.0,0.0,0.0,0.0,0.0,0.0,0.0,0.0,0.0,0.0,-0.8725,-0.8405,-0.8345,-0.8345,-0.835,0.0,0.0,0.0,0.0,0.0,0.0,0.0,0.0,0.0,0.0,0.0,0.0,0.0,0.0,0.4023,0.0,0.3466,0.0,0.0,0.0,0.0,0.0,0.0,0.0,0.0,0.2057,0.2113,0.2279,0.2214,0.2365,0.0,0.2342,0.2269,0.0,0.0,0.0,0.0,0.0,0.0,0.0,0.0,0.2215,0.2185,0.2293,0.2378,0.2438,0.2488,0.2504,0.2485,0.2474,0.2423,0.2324,0.2225,0.2131,0.0,0.0,0.0,0.0,0.0,0.0,0.0,0.0,0.0,0.0,0.0,0.0,0.0,0.0,0.0,0.0,0.0,0.0,0.0,0.0,0.0,0.0,0.0,-0.4729,0.0,0.0,0.0,0.0,0.0,0.0,0.0,0.0,0.0,-0.6903,-0.7156,-0.735,-0.7355,-0.7075,-0.7078,-0.7585,0.0,0.0,0.0,0.0,0.0,0.0,0.0,-0.8734,-0.9029,-0.9109,-0.9242,-0.9362,-0.9476,-0.9552,-0.9552,0.0,0.0,-0.8921,-0.8834,-0.8834,-0.884,-0.8834,-0.8834,-0.8834,-0.884,-0.8861,0.0,0.0,0.0,0.0,0.0,0.0,0.0,0.0,0.5084,0.497,0.0,0.4475,0.0,0.0,0.0,0.0,0.0,0.2813,0.0,0.0,0.268,0.2762,0.3101,0.3013,0.3035,0.3301,0.3299,0.3252,0.303,0.2232,0.0,0.0,0.0,0.0,0.0,0.0,0.2525,0.2243,0.2333,0.2408,0.2466,0.2499,0.2515,0.2515,0.2488,0.2444,0.2384,0.2326,0.2252,0.2162,0.2046,0.0,0.0,0.0,0.0,0.0,0.0,0.0,0.0,0.0,0.0,0.0,0.0,0.0,0.0,0.0,0.0,0.0,0.0,0.0,0.0,-0.3931,0.0,0.0,0.0,0.0,0.0,0.0,0.0,0.0,0.0,0.0,-0.6708,-0.7015,-0.7125,-0.7004,0.0,0.0,0.0,0.0,-0.7752,-0.7694,-0.8159,-0.8314,-0.8464,-0.877,-0.893,-0.9076,0.0,0.0,-0.9829,-0.9949,-1.0025,-1.003,-1.0019,-0.9883,-0.9438,-0.934,-0.9323,-0.9323,-0.9323,-0.9323,-0.9323,-0.9323,-0.9329,0.8753,0.0,0.0,0.0,0.0,0.6864,0.6911,0.6922,0.6694,0.6384,0.612,0.5493,0.0,0.0,0.0,0.0,0.0,0.0,0.3158,0.3147,0.2822,0.3023,0.3375,0.3422,0.3463,0.3492,0.346,0.3431,0.3401,0.3039,0.2921,0.2907,0.0,0.0,0.0,0.0,0.3113,0.3085,0.2915,0.2859,0.2932,0.2655,0.2525,0.2547,0.2538,0.2515,0.2477,0.2417,0.2345,0.2255,0.2158,0.0,0.0,0.0,0.0,0.0,0.0,0.0,0.0,0.0,0.0,0.0,0.0,0.0,0.0,0.0,0.0,0.0,0.0,0.0,-0.3886,-0.3519,-0.3323,0.0,0.0,0.0,0.0,0.0,0.0,0.0,0.0,0.0,-0.5803,-0.6199,-0.6545,0.0,0.0,-0.7156,-0.7166,-0.7356,-0.7381,-0.741,-0.7616,0.0,-0.8116,-0.8487,-0.8997,-0.9305,-0.9682,-1.0063,-1.009,-1.0199,-1.028,-1.028,-1.028,-1.0253,-1.021,-0.9987,-0.9829,-0.9813,-0.9813,-0.9813,-0.966,-0.966,-0.984,1.0749,0.9581,0.8778,0.8366,0.8384,0.8567,0.8766,0.8659,0.8355,0.8156,0.7856,0.6895,0.635,0.5958,0.5112,0.0,0.0,0.0,0.426,0.4105,0.3645,0.3709,0.4327,0.4551,0.461,0.4208,0.4343,0.4171,0.3987,0.3956,0.3837,0.3644,0.0,0.0,0.3371,0.3475,0.3448,0.3418,0.3239,0.3342,0.3441,0.2995,0.2857,0.2877,0.2707,0.2533,0.2514,0.2467,0.2405,0.2328,0.224,0.2136,0.0,0.0,0.0,0.0,0.0,0.0,0.0,0.0,0.0,0.0,0.0,-0.1405,-0.1853,0.0,0.0,0.0,-0.2784,-0.3226,-0.383,-0.3147,0.0,0.0,0.0,0.0,0.0,0.0,0.0,-0.4787,-0.487,-0.4983,-0.5143,-0.5682,-0.6129,-0.6727,-0.7076,-0.7315,-0.7341,0.0,-0.739,-0.7464,-0.7517,-0.7723,-0.7918,-0.845,-0.8978,-0.9497,-1.0087,-1.0481,-1.0492,-1.059,-1.0666,-1.0672,-1.0672,-1.0693,-1.0759,-1.059,-1.0411,-1.0324,-1.0302,-1.0302,-1.0142,-1.0142,-1.0329,1.2442,1.2105,1.0847,1.0292,1.0169,1.0454,1.0572,1.0472,1.0096,0.9877,0.9745,0.8582,0.7827,0.7219,0.6426,0.0,0.5318,0.5534,0.5639,0.5663,0.495,0.5009,0.5747,0.603,0.5951,0.536,0.5425,0.5242,0.4836,0.4687,0.4624,0.4504,0.4067,0.3744,0.3917,0.3832,0.3794,0.365,0.3588,0.3696,0.3827,0.3514,0.3196,0.3196,0.2851,0.2519,0.2514,0.2488,0.2443,0.238,0.2296,0.2196,0.208,0.0,0.0,0.0,0.0,0.0,0.0,0.0,0.0,0.0,0.0,0.0,0.0,0.0,0.0,0.0,-0.3064,0.0,-0.363,-0.2597,0.0,0.0,0.0,-0.3053,-0.3448,-0.3492,-0.3693,-0.421,0.0,0.0,-0.4456,-0.4976,-0.5603,-0.6298,-0.6947,-0.7358,-0.7369,-0.7397,-0.7461,-0.7609,-0.7819,-0.786,-0.7925,-0.8284,-0.8981,-0.9893,-1.0525,-1.0742,-1.0916,-1.0998,-1.109,-1.1074,-1.1101,-1.1096,-1.1107,-1.1085,-1.1052,-1.0829,-1.077,-1.0759,-1.0581,-1.0581,-1.0748,1.3166,1.3014,1.2673,1.2173,1.1438,1.163,1.1703,1.1725,1.1382,1.1309,1.126,1.004,0.8839,0.7539,0.7304,0.6951,0.6353,0.6417,0.6557,0.6606,0.5774,0.5706,0.6414,0.6907,0.6664,0.5959,0.567,0.5507,0.5325,0.5021,0.4809,0.4695,0.4646,0.4422,0.4308,0.4361,0.4453,0.4438,0.4204,0.3988,0.378,0.3658,0.3678,0.3678,0.2894,0.2719,0.2985,0.2664,0.2465,0.2382,0.2315,0.2245,0.217,0.206,0.0,0.0,0.0,0.0,0.0,0.0,0.0,0.0,0.0,-0.0109,-0.0338,0.0,-0.1061,0.0,-0.1924,-0.2135,-0.1758,-0.041,0.0,0.0,-0.1949,-0.1964,-0.2524,-0.2982,-0.3457,-0.3512,-0.3551,-0.3608,-0.3552,-0.3916,-0.4284,-0.4987,-0.5887,-0.6497,-0.6755,-0.6658,-0.687,-0.7245,-0.7516,-0.7772,-0.8134,-0.8535,-0.927,-1.0159,-1.036,-1.0714,-1.1063,-1.1079,-1.1107,-1.1107,-1.1107,-1.1134,-1.1221,-1.1232,-1.1259,-1.1259,-1.1145,-1.1014,-1.1014,-1.1014,-1.102,1.3604,1.3604,1.3612,1.3351,1.2764,1.278,1.2788,1.2803,1.2549,1.2485,1.2477,1.1344,1.0098,0.8753,0.8802,0.8443,0.7817,0.786,0.8002,0.8066,0.7331,0.726,0.7707,0.7902,0.7494,0.678,0.6505,0.6196,0.5858,0.5396,0.519,0.5095,0.4945,0.4744,0.4649,0.4651,0.47,0.4796,0.4624,0.4552,0.4431,0.4161,0.4177,0.4159,0.352,0.3342,0.3456,0.314,0.2787,0.2702,0.2501,0.2296,0.2223,0.2131,0.2052,0.0,0.0,0.0,0.0,0.0,0.0,0.0,0.0,0.0,0.0,0.0,0.0125,0.0,-0.0,0.0,0.042,0.1275,0.1285,-0.0,-0.0435,-0.088,-0.1467,-0.1939,-0.2122,-0.2302,-0.2318,-0.2345,-0.2389,-0.2914,-0.3285,-0.366,-0.4487,-0.5311,-0.5817,-0.6186,-0.6389,-0.6761,-0.7003,-0.7413,-0.7619,-0.8391,-0.8991,-0.9564,-1.0102,-1.0828,-1.1239,-1.1427,-1.1422,-1.1422,-1.1422,-1.1438,-1.1504,-1.1514,-1.1542,-1.1574,-1.1514,-1.1395,-1.1281,-1.1259,-1.1259,1.3969,1.3969,1.3969,1.3953,1.392,1.3774,1.3701,1.3685,1.3405,1.3333,1.3356,1.2499,1.1523,1.0448,1.0542,1.0161,0.9604,0.9551,0.9669,0.9803,0.9055,0.8974,0.9408,0.9198,0.8636,0.7718,0.7644,0.7174,0.6337,0.6025,0.5679,0.5616,0.5167,0.5016,0.4856,0.4971,0.482,0.4861,0.5079,0.5166,0.5115,0.4846,0.4688,0.4638,0.4431,0.4086,0.3918,0.3603,0.3256,0.3033,0.2693,0.2341,0.226,0.2199,0.214,0.0,0.2053,0.0,0.0,0.0,0.0,0.0,0.0,0.0,0.0,0.1273,0.1327,0.138,0.1985,0.2305,0.2313,0.2335,0.2499,0.2357,0.1353,0.0305,-0.0153,-0.0311,-0.0475,-0.0801,-0.0803,-0.097,-0.098,-0.1667,-0.2197,-0.2205,-0.2921,-0.3637,-0.4487,-0.5332,-0.5859,-0.5923,-0.647,-0.6699,-0.6921,-0.7695,-0.8297,-0.8549,-0.9649,-1.079,-1.142,-1.1619,-1.1619,-1.1619,-1.1603,-1.1614,-1.1819,-1.1808,-1.1808,-1.1803,-1.1786,-1.1721,-1.1552,-1.1504,-1.1504,1.4326,1.4326,1.4335,1.4253,1.4123,1.4091,1.3993,1.3855,1.3745,1.3698,1.3535,1.3359,1.2816,1.2164,1.2081,1.1894,1.1451,1.1214,1.1312,1.1573,1.0816,1.0643,1.0868,1.091,1.0147,0.9056,0.8759,0.8136,0.7189,0.6881,0.6527,0.5995,0.6048,0.5894,0.5538,0.0,0.0,0.0,0.5057,0.5123,0.5115,0.501,0.501,0.4955,0.4626,0.0,0.434,0.3562,0.3076,0.3033,0.2695,0.0,0.0,0.0,0.0,0.0,0.0,0.0,0.0,0.0,0.0,0.0,0.2176,0.2159,0.1986,0.2037,0.2238,0.2157,0.2194,0.2382,0.2429,0.244,0.2607,0.2633,0.2354,0.2058,0.2059,0.1443,0.0971,0.0811,0.0824,0.0834,0.0502,0.0341,0.0173,-0.0349,-0.1054,-0.1418,-0.1796,-0.3369,-0.476,-0.5164,-0.5594,-0.6027,-0.6047,-0.6605,-0.716,-0.7738,-0.8477,-0.9591,-1.0727,-1.0727,-1.0717,-1.1095,-1.1268,-1.1457,-1.1641,-1.1819,-1.1835,-1.1824,-1.1824,-1.1803,-1.1576,-1.1566,-1.1748,1.4432,0.0,1.4432,1.4383,0.0,1.4302,1.4245,1.4156,1.3977,1.3866,1.3889,1.3969,1.3761,1.3237,1.3155,1.2978,1.2536,1.245,1.2543,1.2764,1.2306,1.2126,1.2192,1.2044,1.1423,1.033,0.9708,0.9085,0.8466,0.7884,0.7413,0.6904,0.6824,0.6363,0.5859,0.5608,0.5288,0.5068,0.5155,0.5188,0.5161,0.5215,0.5204,0.5115,0.4952,0.0,0.0,0.0,0.0,0.0,0.0,0.0,0.0,0.0,0.0,0.2289,0.2259,0.2243,0.2244,0.2256,0.2278,0.2454,0.2353,0.2346,0.2271,0.2307,0.2352,0.2397,0.244,0.2325,0.2353,0.2526,0.27,0.2717,0.2585,0.2602,0.2608,0.2313,0.2002,0.2005,0.2032,0.2052,0.1881,0.1907,0.1755,0.1413,0.0535,0.0,-0.0182,-0.1988,-0.3782,-0.4546,-0.4958,-0.518,-0.518,-0.518,-0.5562,-0.6511,-0.7452,-0.84,-0.9186,-0.9755,-1.0124,-1.0502,-1.0875,-1.1434,-1.162,-1.1807,-1.1993,-1.1993,-1.1993,-1.1993,-1.1796,-1.19,-1.1819,1.4521,1.4529,1.4521,1.4505,1.4481,1.4481,1.4464,1.4408,0.0,0.0,0.0,1.4416,1.4348,1.4074,1.405,1.3893,1.3595,1.3565,1.3641,1.3642,1.3642,1.3428,1.3274,1.3127,1.2501,1.1572,1.0796,1.0186,0.9589,0.9046,0.8463,0.8008,0.7758,0.7158,0.6374,0.5897,0.5584,0.5431,0.5283,0.527,0.5224,0.5278,0.5256,0.5147,0.5145,0.5115,0.5055,0.4581,0.4247,0.3739,0.3272,0.2788,0.245,0.2424,0.2408,0.2401,0.2379,0.2364,0.2365,0.2388,0.2416,0.2446,0.2499,0.2493,0.2409,0.2429,0.2458,0.2484,0.2534,0.2408,0.2413,0.2596,0.2612,0.2617,0.2645,0.2664,0.2667,0.2712,0.2743,0.2748,0.277,0.2791,0.2791,0.2822,0.2844,0.2672,0.1988,0.1281,0.1099,-0.0733,-0.2572,-0.3147,-0.3349,-0.354,-0.3539,-0.3725,-0.392,-0.508,-0.6213,-0.6983,-0.722,-0.8379,-0.9328,-0.9315,-1.0275,-1.0838,-1.1033,-1.159,-1.1983,-1.1983,-1.2172,-1.2178,-1.2183,-1.2053,-1.1928,1.4887,1.4887,1.4887,1.4806,1.4667,1.4667,1.4578,1.4276,1.4375,1.4456,1.4477,1.4659,1.4757,1.4879,1.4741,1.4517,1.4509,1.4356,1.438,1.4557,1.4263,1.4197,1.4207,1.4546,1.3767,1.2347,1.2192,1.1635,1.0803,1.0193,0.977,0.9537,0.9078,0.8526,0.7849,0.726,0.6652,0.6197,0.5535,0.5289,0.5281,0.5341,0.5338,0.5273,0.5267,0.524,0.518,0.4531,0.4205,0.3876,0.3068,0.257,0.2542,0.2536,0.2523,0.2497,0.2491,0.2488,0.2489,0.2492,0.2508,0.2538,0.2571,0.2562,0.2503,0.2523,0.2542,0.2548,0.2578,0.2607,0.2631,0.2639,0.2653,0.2677,0.2706,0.2725,0.2724,0.2755,0.2777,0.2777,0.2803,0.2823,0.2829,0.2868,0.29,0.2906,0.2566,0.2593,0.2238,0.0935,-0.0374,-0.0563,-0.0567,-0.0569,-0.0758,-0.1709,-0.2467,-0.3234,-0.4185,-0.4759,-0.5156,-0.6303,-0.7446,-0.7816,-0.8774,-0.953,-1.0104,-1.0848,-1.1431,-1.1631,-1.182,-1.2221,-1.2112,-1.209,-1.2232,1.4968,1.4968,1.4968,1.4919,1.4846,1.4846,1.4797,1.4724,1.4716,1.4708,1.4565,1.4806,1.4887,1.4952,1.4887,1.4846,1.4846,1.4757,1.4765,1.4846,1.4694,1.4742,1.483,1.5106,1.4672,1.3715,1.3333,1.2937,1.237,1.1807,1.1391,1.0964,0.9768,0.9049,0.8471,0.8228,0.7432,0.6599,0.6163,0.5778,0.5439,0.5466,0.5452,0.5395,0.5392,0.5363,0.5303,0.4638,0.4142,0.3976,0.3312,0.281,0.2632,0.2616,0.2601,0.2587,0.2571,0.2562,0.2562,0.2578,0.26,0.263,0.2643,0.2639,0.2613,0.2609,0.2607,0.2608,0.2634,0.2657,0.2671,0.2687,0.2702,0.2716,0.2744,0.2762,0.2766,0.2789,0.2808,0.2811,0.2834,0.2859,0.2874,0.29,0.2924,0.2938,0.2966,0.2996,0.3026,0.2273,0.1705,0.1705,0.1711,0.1716,0.1526,0.0572,-0.0573,-0.1344,-0.2307,-0.3081,-0.3673,-0.4838,-0.5609,-0.6773,-0.7735,-0.8703,-0.9474,-1.0248,-1.0825,-1.1599,-1.1786,-1.201,-1.224,-1.2449,-1.2433,1.4968,1.4968,1.4968,1.4968,1.4968,1.4968,1.4968,1.4968,1.496,1.4887,1.4789,1.4911,1.4968,1.4968,1.4968,1.4968,1.4968,1.4968,1.4968,1.4968,1.5009,1.5025,1.5049,1.5392,1.516,1.468,1.4169,1.3931,1.3814,1.3119,1.2553,1.1971,1.0525,0.9616,0.9288,0.9043,0.8221,0.6996,0.6651,0.6286,0.5561,0.5559,0.5537,0.5499,0.5493,0.5472,0.5428,0.4746,0.4236,0.4066,0.356,0.3052,0.2712,0.2691,0.2677,0.2675,0.2656,0.2642,0.2643,0.2664,0.2687,0.271,0.2713,0.2713,0.271,0.2691,0.2671,0.2664,0.2683,0.2702,0.2706,0.2729,0.2748,0.275,0.2774,0.2792,0.2796,0.2821,0.2842,0.2849,0.287,0.2894,0.2919,0.2932,0.295,0.298,0.3003,0.3028,0.3055,0.3062,0.3063,0.307,0.3067,0.3069,0.307,0.2114,0.1349,0.0776,-0.0388,-0.1168,-0.1956,-0.2744,-0.3921,-0.5091,-0.627,-0.7437,-0.8423,-0.9204,-0.998,-1.0755,-1.1134,-1.1742,-1.2173,-1.2607,-1.2786,1.4968,1.4968,1.4984,1.4968,1.4984,1.4976,1.4984,1.4976,1.4968,1.496,1.496,1.496,1.4976,1.4968,1.4976,1.4976,1.4984,1.4968,1.4976,1.5,1.4975,1.5055,1.5228,1.5407,1.5329,1.4851,1.4882,1.4655,1.4467,1.4001,1.348,1.2733,1.1451,1.0693,1.0374,0.9768,0.8757,0.7153,0.7153,0.6555,0.5741,0.5559,0.5556,0.5553,0.5553,0.5548,0.5548,0.4677,0.4333,0.4158,0.3294,0.2776,0.2774,0.2772,0.277,0.2769,0.2766,0.2766,0.2765,0.2769,0.2769,0.2774,0.2772,0.2772,0.2773,0.277,0.2746,0.2709,0.2717,0.2733,0.2736,0.2761,0.2778,0.2781,0.2806,0.2825,0.283,0.2852,0.2879,0.2905,0.2909,0.2923,0.2953,0.2979,0.3007,0.3035,0.3043,0.3059,0.3086,0.3093,0.3104,0.312,0.3112,0.3107,0.3122,0.3133,0.2739,0.2548,0.1569,0.0982,0.0394,-0.0787,-0.2355,-0.3156,-0.4326,-0.5703,-0.6684,-0.7648,-0.8833,-0.964,-1.0424,-1.1202,-1.2279,-1.2765,-1.2759,1.5293,1.5293,1.5293,1.5293,1.5293,1.5293,1.5128,1.4963,1.5293,1.5293,1.5293,1.5293,1.5228,1.513,1.513,1.5179,1.5285,1.5293,1.5293,1.5301,1.5208,1.524,1.5423,1.5585,1.5666,1.5522,1.5448,1.5591,1.5585,1.5196,1.4477,1.3586,1.257,1.1789,1.093,1.0155,0.896,0.771,0.7398,0.6671,0.5906,0.5719,0.5739,0.5766,0.5739,0.5719,0.5717,0.5332,0.4783,0.4252,0.3544,0.319,0.2837,0.2821,0.281,0.2808,0.2792,0.2784,0.2784,0.2784,0.2784,0.2784,0.2784,0.2784,0.2784,0.2784,0.2772,0.2754,0.2758,0.2765,0.2767,0.2792,0.281,0.2814,0.2837,0.2861,0.2879,0.289,0.2911,0.2938,0.2943,0.2954,0.2984,0.3014,0.3046,0.3071,0.308,0.3091,0.3118,0.3125,0.3137,0.316,0.3159,0.3148,0.3148,0.3142,0.315,0.2966,0.2774,0.2378,0.2192,0.1198,-0.0399,-0.1595,-0.2789,-0.3785,-0.4991,-0.6384,-0.7579,-0.8566,-1.0162,-1.1376,-1.2018,-1.2463,-1.2636,1.5512,1.5512,1.5512,1.5512,1.5512,1.5512,1.5353,1.5186,1.5353,1.552,1.568,1.552,1.5472,1.5382,1.5333,1.539,1.5504,1.5512,1.5512,1.552,1.5393,1.5417,1.561,1.5983,1.609,1.5951,1.6105,1.6259,1.6389,1.622,1.5622,1.4614,1.3874,1.2892,1.1676,1.0525,0.9313,0.825,0.779,0.7114,0.6218,0.6055,0.6078,0.5916,0.588,0.585,0.5831,0.561,0.5219,0.4487,0.3947,0.3411,0.3052,0.2852,0.2841,0.284,0.2821,0.2808,0.2808,0.2808,0.2808,0.2808,0.2808,0.2808,0.2808,0.2808,0.2808,0.2808,0.2808,0.2807,0.2799,0.2823,0.284,0.2842,0.2868,0.2894,0.2912,0.2921,0.2939,0.2968,0.2975,0.299,0.3025,0.3052,0.3076,0.3103,0.311,0.312,0.3146,0.3156,0.3165,0.3194,0.32,0.3191,0.3171,0.3171,0.3179,0.3189,0.3,0.3006,0.323,0.2221,0.1212,0.0,-0.0807,-0.2017,-0.3418,-0.4833,-0.6251,-0.7663,-0.9275,-1.0676,-1.0667,-1.1488,-1.1683,1.5512,1.552,1.552,1.5536,1.552,1.5536,1.5528,1.5553,1.5536,1.5696,1.588,1.5704,1.561,1.5723,1.5593,1.5512,1.5528,1.5545,1.5561,1.5577,1.5699,1.5764,1.5788,1.6113,1.6276,1.6267,1.6422,1.6535,1.6576,1.6747,1.649,1.5979,1.525,1.4088,1.2845,1.1444,1.0026,0.8794,0.8159,0.7502,0.6654,0.6715,0.6535,0.5937,0.5921,0.5894,0.5845,0.5283,0.4894,0.5025,0.413,0.359,0.359,0.305,0.287,0.287,0.287,0.2868,0.2867,0.2866,0.2866,0.2867,0.2863,0.2868,0.2866,0.2866,0.2867,0.287,0.287,0.2859,0.284,0.2856,0.2872,0.2876,0.2898,0.2915,0.2919,0.2946,0.2972,0.2998,0.3007,0.3029,0.3082,0.3093,0.311,0.3131,0.3141,0.3152,0.3178,0.3186,0.3198,0.3216,0.3225,0.3227,0.3225,0.3213,0.3217,0.3221,0.322,0.3227,0.323,0.3029,0.2221,0.1818,0.1212,-0.0,-0.1816,-0.3228,-0.464,-0.6254,-0.8273,-0.9279,-0.907,-0.9468,-0.9669,1.5853,1.5861,1.5853,1.5853,1.5853,1.5853,1.5853,1.5853,1.5853,1.5861,1.6024,1.5861,1.5894,1.5951,1.5999,1.5959,1.5861,1.5853,1.5918,1.6016,1.6081,1.6178,1.63,1.643,1.6487,1.6495,1.6552,1.6641,1.6771,1.6933,1.6665,1.614,1.5491,1.4639,1.3578,1.2165,1.0595,0.9586,0.8957,0.8128,0.7277,0.6977,0.6813,0.66,0.6187,0.597,0.5951,0.5726,0.5495,0.5075,0.4532,0.3977,0.3592,0.3233,0.2874,0.2874,0.2874,0.2874,0.2874,0.2874,0.2874,0.2874,0.2874,0.2885,0.2897,0.2902,0.2909,0.2924,0.293,0.2923,0.2915,0.2908,0.2909,0.2927,0.2938,0.2953,0.2971,0.2984,0.3002,0.3031,0.3051,0.3076,0.3095,0.3114,0.3138,0.3165,0.3172,0.3185,0.3206,0.3215,0.3219,0.3227,0.323,0.323,0.323,0.323,0.323,0.323,0.323,0.323,0.3232,0.3234,0.2629,0.2635,0.2228,0.1618,-0.0202,-0.1618,-0.3234,-0.4855,-0.6676,-0.7496,-0.7261,-0.7487,-0.8082,1.6048,1.6056,1.6105,1.6129,1.6137,1.6194,1.6052,1.6044,1.6052,1.6219,1.6219,1.6219,1.6219,1.6235,1.6341,1.6332,1.6227,1.6219,1.6284,1.6389,1.6389,1.6462,1.6576,1.6641,1.6674,1.6682,1.673,1.682,1.6933,1.7055,1.6928,1.6577,1.5873,1.5197,1.4346,1.2936,1.1563,1.0775,0.96,0.876,0.8076,0.7393,0.7052,0.6856,0.6441,0.603,0.6014,0.5973,0.5739,0.532,0.4764,0.4018,0.3448,0.3084,0.2902,0.2902,0.2902,0.2902,0.2902,0.2902,0.2902,0.2902,0.2902,0.2912,0.2928,0.2931,0.2942,0.2957,0.2962,0.2964,0.2971,0.2957,0.295,0.2962,0.2969,0.2984,0.3005,0.3016,0.3035,0.3063,0.3092,0.3112,0.3127,0.3145,0.317,0.3198,0.3201,0.3212,0.3225,0.323,0.323,0.323,0.323,0.323,0.323,0.323,0.3231,0.3231,0.3235,0.3235,0.3245,0.3245,0.3249,0.3255,0.3051,0.2437,0.142,-0.0,-0.1624,-0.3253,-0.449,-0.5324,-0.5512,-0.5707,-0.6114,1.6056,1.6089,1.6235,1.6308,1.6332,1.6462,1.6382,1.618,1.6374,1.6527,1.6511,1.6544,1.6519,1.656,1.656,1.6576,1.656,1.6576,1.6576,1.6584,1.6584,1.6592,1.6633,1.6787,1.6852,1.686,1.7015,1.7088,1.7088,1.7104,1.7112,1.6944,1.6608,1.5979,1.5234,1.379,1.2589,1.1803,1.062,0.9564,0.902,0.8153,0.7429,0.7052,0.6473,0.6068,0.6022,0.6016,0.5987,0.5747,0.4999,0.4073,0.3325,0.2954,0.2958,0.2954,0.2957,0.2958,0.2957,0.2954,0.2951,0.2951,0.2957,0.2954,0.296,0.2962,0.2965,0.2972,0.2972,0.2977,0.3002,0.3007,0.2996,0.2972,0.2995,0.3014,0.3018,0.3037,0.3065,0.3095,0.3125,0.3155,0.3178,0.3186,0.3198,0.3217,0.3225,0.3225,0.3228,0.323,0.323,0.323,0.323,0.323,0.323,0.3231,0.3232,0.3234,0.3238,0.3243,0.3268,0.3276,0.3283,0.3288,0.3283,0.2868,0.2457,0.1024,0.0205,-0.1234,-0.2478,-0.3514,-0.3711,-0.3909,-0.4331,1.6227,1.6243,1.6422,1.6495,1.6495,1.656,1.6576,1.6584,1.6584,1.6584,1.6754,1.6584,1.6584,1.6617,1.6706,1.6763,1.6779,1.6885,1.6885,1.6787,1.6771,1.6828,1.6933,1.6998,1.7031,1.7039,1.708,1.7112,1.712,1.712,1.7169,1.7274,1.6766,1.6495,1.6295,1.5035,1.3821,1.2835,1.178,1.0717,0.9659,0.8932,0.8185,0.7429,0.6862,0.647,0.6074,0.6071,0.6044,0.5987,0.5424,0.4475,0.3709,0.3147,0.2962,0.2962,0.2962,0.2962,0.2962,0.2962,0.2964,0.2962,0.2962,0.2972,0.299,0.2992,0.3002,0.3018,0.3024,0.3029,0.3039,0.3058,0.3054,0.3028,0.3051,0.3067,0.3069,0.3095,0.3116,0.3129,0.3156,0.3178,0.3189,0.3201,0.3219,0.3227,0.323,0.323,0.323,0.323,0.323,0.323,0.323,0.3234,0.3238,0.3249,0.3258,0.3264,0.3266,0.3272,0.3294,0.3307,0.3315,0.3317,0.3311,0.3102,0.2894,0.2275,0.1451,0.0622,-0.0415,-0.1246,-0.1867,-0.2286,-0.25,1.6405,1.6422,1.66,1.6682,1.669,1.6747,1.6779,1.6951,1.6779,1.6779,1.6959,1.6779,1.6779,1.6803,1.6901,1.695,1.6966,1.7063,1.7055,1.6958,1.695,1.7015,1.7104,1.7112,1.7112,1.7128,1.7185,1.721,1.7218,1.7283,1.7364,1.7461,1.7119,1.7026,1.7001,1.5927,1.4889,1.4082,1.2981,1.1715,1.0829,0.9707,0.8755,0.8185,0.7429,0.6672,0.6479,0.6288,0.6082,0.5863,0.5478,0.4708,0.3747,0.3371,0.2995,0.2995,0.2995,0.2996,0.2995,0.2999,0.2995,0.2995,0.2995,0.3003,0.302,0.3024,0.3035,0.3048,0.3062,0.307,0.3073,0.3096,0.3103,0.3089,0.3101,0.3114,0.3119,0.3141,0.3157,0.3165,0.3185,0.32,0.3209,0.3216,0.323,0.323,0.323,0.323,0.323,0.323,0.323,0.323,0.323,0.3236,0.3249,0.3265,0.3284,0.3294,0.3302,0.3313,0.3329,0.3336,0.3341,0.3343,0.3339,0.3339,0.3129,0.313,0.2715,0.2089,0.1464,0.1259,0.0631,0.0,-0.0421,1.6592,1.6617,1.6787,1.6868,1.6885,1.7015,1.7071,1.7088,1.7088,1.7071,1.708,1.7063,1.7071,1.7096,1.7071,1.708,1.7112,1.7096,1.7104,1.7096,1.7088,1.7104,1.7112,1.7136,1.7161,1.7177,1.7323,1.7396,1.7404,1.7526,1.7648,1.7656,1.7664,1.7563,1.7157,1.6634,1.5968,1.514,1.3858,1.2933,1.2194,1.0303,0.9163,0.8976,0.7841,0.689,0.6893,0.6319,0.6115,0.5908,0.514,0.4567,0.3812,0.3434,0.3236,0.3044,0.3051,0.3047,0.305,0.3043,0.3043,0.3043,0.3041,0.3052,0.3047,0.3046,0.305,0.3059,0.308,0.3096,0.3103,0.3127,0.3142,0.3148,0.3146,0.3146,0.315,0.3175,0.3187,0.3194,0.3213,0.323,0.3227,0.3228,0.323,0.323,0.323,0.323,0.323,0.323,0.323,0.3231,0.3234,0.3247,0.3261,0.3296,0.3315,0.3326,0.3337,0.3352,0.336,0.3365,0.3369,0.3369,0.3367,0.3367,0.3369,0.3369,0.3375,0.296,0.2757,0.3195,0.298,0.191,0.1484,1.6779,1.6803,1.6974,1.7039,1.7047,1.7096,1.7112,1.7112,1.7112,1.7112,1.7112,1.7112,1.7112,1.7112,1.7112,1.7112,1.7112,1.7112,1.7112,1.7112,1.7112,1.7112,1.7145,1.725,1.7315,1.7339,1.7486,1.7575,1.7575,1.764,1.7729,1.7843,1.7851,1.7932,1.7893,1.7359,1.6823,1.6321,1.5303,1.4013,1.2881,1.1802,1.0496,0.9334,0.8167,0.7394,0.7006,0.6621,0.6183,0.6104,0.553,0.4958,0.4391,0.382,0.344,0.3249,0.3055,0.3054,0.3054,0.3054,0.3054,0.3052,0.3052,0.3052,0.3052,0.3052,0.3063,0.308,0.3095,0.3108,0.313,0.3159,0.3182,0.3201,0.3187,0.3183,0.3201,0.3213,0.3219,0.3221,0.3225,0.323,0.323,0.323,0.323,0.323,0.323,0.323,0.323,0.3235,0.3238,0.3242,0.3246,0.3261,0.3283,0.3321,0.3347,0.3359,0.3373,0.3389,0.3395,0.3395,0.3397,0.34,0.3392,0.339,0.3396,0.3399,0.341,0.3411,0.3411,0.3411,0.3412,0.2767,0.2768,1.6966,1.6974,1.7063,1.7112,1.7112,1.7112,1.7112,1.7112,1.7112,1.7112,1.7112,1.7112,1.7112,1.7112,1.7112,1.7112,1.7112,1.7112,1.7112,1.7112,1.7112,1.7153,1.7234,1.7348,1.7421,1.7518,1.7672,1.7746,1.7778,1.7827,1.7924,1.8005,1.803,1.8079,1.8168,1.8078,1.7538,1.7004,1.618,1.5116,1.3969,1.2676,1.1543,1.0184,0.9017,0.8235,0.7254,0.667,0.6243,0.5998,0.5599,0.5211,0.5018,0.4247,0.3668,0.3475,0.3284,0.3086,0.3073,0.3071,0.3065,0.3055,0.3052,0.3059,0.3069,0.3071,0.3084,0.3111,0.3126,0.3144,0.3161,0.3189,0.321,0.3223,0.3216,0.3212,0.323,0.3228,0.323,0.323,0.323,0.323,0.323,0.323,0.323,0.323,0.323,0.323,0.3231,0.3239,0.325,0.3257,0.3275,0.3295,0.3313,0.3345,0.3369,0.3382,0.3389,0.341,0.3411,0.3411,0.3411,0.341,0.3411,0.3411,0.3412,0.3411,0.3411,0.3411,0.3411,0.3414,0.3416,0.343,0.343,1.708,1.7088,1.7104,1.7112,1.7112,1.7112,1.7112,1.7112,1.7112,1.7112,1.7112,1.7112,1.7112,1.7112,1.7112,1.7112,1.7112,1.7112,1.7112,1.712,1.7153,1.7242,1.7404,1.7429,1.7534,1.7681,1.7851,1.7924,1.7965,1.8087,1.8152,1.8152,1.816,1.8168,1.8208,1.8347,1.8247,1.7702,1.7098,1.6229,1.5087,1.375,1.2411,1.104,0.9665,0.8482,0.7295,0.6702,0.6303,0.6297,0.5894,0.5482,0.5485,0.451,0.4117,0.3721,0.3523,0.3318,0.3107,0.3101,0.3093,0.3074,0.3067,0.3071,0.3096,0.3103,0.3115,0.3145,0.3172,0.3182,0.3194,0.3215,0.3225,0.323,0.3228,0.323,0.323,0.323,0.323,0.323,0.323,0.323,0.323,0.323,0.323,0.323,0.3232,0.3236,0.3243,0.3255,0.3269,0.3281,0.3305,0.3333,0.3351,0.3369,0.3386,0.34,0.3401,0.3411,0.3411,0.3411,0.3411,0.3411,0.3411,0.3412,0.3412,0.3412,0.3418,0.3426,0.3437,0.3431,0.3429,0.3452,0.3461,1.6909,1.6917,1.7055,1.7112,1.7112,1.7112,1.7112,1.7112,1.7112,1.7112,1.7112,1.7112,1.7112,1.7112,1.7112,1.7112,1.7112,1.7112,1.7112,1.7128,1.7274,1.7413,1.7551,1.7575,1.7681,1.7859,1.803,1.8111,1.8135,1.8144,1.8176,1.8176,1.8176,1.8176,1.8208,1.8379,1.8452,1.8311,1.799,1.7172,1.6028,1.4724,1.3376,1.1793,0.9604,0.8214,0.7421,0.6823,0.6422,0.6401,0.614,0.5899,0.5506,0.5305,0.4718,0.4131,0.3931,0.3533,0.3134,0.3133,0.313,0.3119,0.3115,0.3126,0.313,0.3133,0.3148,0.3172,0.3185,0.32,0.3216,0.3225,0.323,0.323,0.323,0.323,0.323,0.323,0.323,0.323,0.323,0.323,0.323,0.323,0.323,0.323,0.3236,0.3242,0.3258,0.3276,0.3292,0.331,0.3337,0.3363,0.337,0.3384,0.3396,0.3407,0.341,0.3419,0.3419,0.3419,0.3422,0.3418,0.3411,0.3415,0.3429,0.3438,0.3449,0.3456,0.3463,0.3464,0.3469,0.3486,0.3493,1.6852,1.6868,1.7039,1.7112,1.7112,1.7112,1.7112,1.7112,1.7112,1.7112,1.7112,1.7112,1.7112,1.7112,1.7112,1.7112,1.7112,1.7112,1.7161,1.7218,1.7283,1.7388,1.7607,1.7672,1.7762,1.8005,1.8127,1.8176,1.8176,1.8176,1.8176,1.8176,1.8184,1.8233,1.8322,1.8485,1.8631,1.8744,1.8372,1.7735,1.6764,1.583,1.4083,1.2284,1.0079,0.8471,0.7663,0.7264,0.6861,0.6645,0.6401,0.6363,0.5965,0.5767,0.5367,0.4774,0.4177,0.3968,0.3564,0.336,0.3157,0.3145,0.3144,0.3152,0.3159,0.3164,0.3178,0.32,0.3209,0.3215,0.3228,0.323,0.323,0.323,0.323,0.323,0.323,0.323,0.323,0.323,0.323,0.323,0.323,0.3232,0.3243,0.325,0.3257,0.3265,0.3295,0.3313,0.3326,0.3345,0.3371,0.3388,0.3392,0.3399,0.3404,0.341,0.3411,0.3426,0.3437,0.3435,0.3435,0.3434,0.3435,0.3449,0.3461,0.3471,0.3478,0.3482,0.3489,0.3499,0.3508,0.3512,0.3519,1.6812,1.6828,1.7031,1.7112,1.7112,1.7112,1.7112,1.7112,1.7112,1.7112,1.7112,1.7112,1.7128,1.7153,1.7169,1.7153,1.7161,1.7169,1.7242,1.7266,1.7291,1.7421,1.7616,1.7746,1.7892,1.816,1.8176,1.8176,1.8176,1.8176,1.8176,1.8184,1.8225,1.8298,1.846,1.8663,1.8809,1.8939,1.8717,1.8236,1.7246,1.6467,1.4881,1.2484,1.048,0.9275,0.8471,0.7666,0.7065,0.6662,0.6461,0.6463,0.6461,0.6057,0.5652,0.5647,0.4833,0.4217,0.3997,0.3592,0.3382,0.3157,0.3157,0.317,0.3189,0.3195,0.3205,0.3217,0.3227,0.3227,0.323,0.323,0.323,0.323,0.323,0.323,0.323,0.323,0.323,0.323,0.323,0.323,0.3234,0.3238,0.3254,0.327,0.3277,0.3294,0.3324,0.3344,0.3355,0.337,0.3392,0.34,0.3403,0.3404,0.3411,0.3418,0.3416,0.3435,0.3453,0.346,0.3463,0.3464,0.3468,0.3479,0.349,0.3499,0.3505,0.3508,0.352,0.3535,0.3539,0.3539,0.3543,1.6625,1.6657,1.6974,1.7112,1.7112,1.7112,1.7112,1.7112,1.7112,1.7112,1.7112,1.7112,1.7193,1.7291,1.7339,1.7339,1.7331,1.7307,1.7266,1.7283,1.7372,1.7395,1.7681,1.7884,1.807,1.8152,1.8176,1.8176,1.8176,1.8176,1.8176,1.8208,1.8322,1.842,1.8541,1.8753,1.8939,1.9021,1.897,1.8655,1.8061,1.707,1.5479,1.2884,1.1082,0.9882,0.9074,0.8069,0.7264,0.7065,0.6662,0.6461,0.6463,0.6461,0.6057,0.5853,0.545,0.4837,0.4226,0.4026,0.3622,0.3417,0.3209,0.321,0.322,0.3221,0.3223,0.3225,0.323,0.323,0.323,0.323,0.323,0.323,0.323,0.323,0.323,0.323,0.323,0.323,0.323,0.3234,0.3242,0.3253,0.3272,0.3292,0.3307,0.3326,0.3355,0.3367,0.3374,0.339,0.3407,0.341,0.341,0.341,0.3414,0.3425,0.3431,0.345,0.3468,0.3484,0.3491,0.3501,0.3499,0.3501,0.3512,0.3527,0.3534,0.3538,0.3555,0.3572,0.3568,0.3564,0.3569,1.6633,1.6747,1.6998,1.7112,1.7112,1.7112,1.7112,1.7112,1.7112,1.7112,1.7112,1.7112,1.7153,1.725,1.7356,1.7429,1.7469,1.7299,1.7299,1.738,1.7298,1.7443,1.7754,1.7981,1.8079,1.8152,1.8176,1.8176,1.8176,1.8176,1.8184,1.8217,1.8363,1.8493,1.8623,1.8842,1.9021,1.911,1.9207,1.9058,1.8457,1.7268,1.5479,1.3878,1.1884,1.0685,0.9476,0.8471,0.7666,0.7264,0.6864,0.6461,0.6463,0.6461,0.6461,0.6057,0.5853,0.545,0.4845,0.4442,0.3835,0.3633,0.3433,0.323,0.323,0.323,0.323,0.323,0.323,0.323,0.323,0.323,0.323,0.323,0.323,0.323,0.323,0.323,0.323,0.3231,0.3232,0.324,0.3258,0.3272,0.3291,0.3311,0.3333,0.3358,0.3384,0.3389,0.3392,0.3399,0.3411,0.3411,0.3414,0.3418,0.3422,0.3433,0.3452,0.3472,0.3493,0.3513,0.3534,0.3549,0.3543,0.3528,0.3546,0.3564,0.3566,0.3566,0.3574,0.3581,0.3585,0.3589,0.3589,1.669,1.6868,1.7039,1.7112,1.7112,1.7112,1.7112,1.7112,1.7112,1.7112,1.7112,1.7112,1.7136,1.7226,1.7396,1.7559,1.7632,1.7364,1.7461,1.7551,1.7395,1.7491,1.7843,1.7973,1.8054,1.816,1.8176,1.8176,1.8176,1.8176,1.8192,1.829,1.8428,1.8598,1.8785,1.8972,1.9126,1.9207,1.9264,1.9058,1.8259,1.707,1.5678,1.4676,1.3084,1.1488,1.0279,0.9074,0.827,0.7666,0.7065,0.6662,0.6461,0.6463,0.6463,0.6461,0.6057,0.5853,0.545,0.4845,0.424,0.3836,0.3433,0.3231,0.323,0.323,0.323,0.323,0.323,0.323,0.323,0.323,0.323,0.323,0.323,0.323,0.323,0.323,0.323,0.3231,0.3235,0.3249,0.3269,0.3291,0.331,0.3339,0.336,0.3375,0.3399,0.3403,0.3405,0.3407,0.3411,0.3411,0.3416,0.3426,0.3434,0.3446,0.3474,0.3502,0.3524,0.3546,0.3564,0.3574,0.3569,0.3558,0.358,0.3589,0.3583,0.358,0.3587,0.3589,0.3589,0.3589,0.3589,1.669,1.6868,1.7039,1.7112,1.7112,1.7112,1.7112,1.7112,1.7112,1.7112,1.7112,1.712,1.7201,1.7388,1.7681,1.7737,1.7705,1.7697,1.7681,1.7689,1.7571,1.7644,1.7949,1.8087,1.8135,1.8208,1.82,1.8176,1.8225,1.8225,1.8282,1.842,1.8598,1.8777,1.8915,1.9094,1.9232,1.9256,1.9264,1.9058,1.8457,1.7466,1.6275,1.5081,1.3684,1.2289,1.1082,0.9878,0.8873,0.8065,0.7465,0.7065,0.6662,0.6463,0.6463,0.6463,0.6461,0.6259,0.5652,0.5047,0.4444,0.4038,0.3433,0.3231,0.323,0.323,0.323,0.323,0.323,0.323,0.323,0.323,0.323,0.323,0.323,0.323,0.323,0.3231,0.3231,0.3243,0.325,0.3266,0.3284,0.3306,0.3329,0.3359,0.3386,0.34,0.3408,0.3411,0.3411,0.3411,0.3414,0.3415,0.3426,0.3434,0.3454,0.3465,0.3494,0.3528,0.3549,0.3566,0.3576,0.3584,0.3579,0.3577,0.3585,0.3589,0.3589,0.3589,0.3589,0.3589,0.3589,0.3589,0.3589,1.6836,1.7006,1.708,1.7112,1.7112,1.7112,1.7112,1.7112,1.7112,1.7112,1.7112,1.7112,1.7266,1.7526,1.7713,1.777,1.7786,1.7794,1.7794,1.7802,1.77,1.778,1.8062,1.8144,1.8208,1.8306,1.8347,1.8428,1.842,1.8403,1.8428,1.8606,1.8769,1.8891,1.9013,1.9167,1.924,1.9264,1.9256,1.9256,1.8861,1.8259,1.7261,1.6275,1.4682,1.3284,1.1884,1.048,0.9275,0.827,0.7666,0.7065,0.6662,0.6463,0.6463,0.6463,0.6463,0.6461,0.6057,0.5251,0.4645,0.424,0.3635,0.323,0.323,0.323,0.323,0.323,0.323,0.323,0.323,0.323,0.323,0.323,0.323,0.3232,0.3232,0.3232,0.3235,0.3251,0.3269,0.329,0.331,0.3333,0.3356,0.338,0.3397,0.3404,0.341,0.3411,0.3411,0.3411,0.3415,0.3419,0.3435,0.3449,0.3482,0.3498,0.3514,0.3544,0.3566,0.3583,0.3587,0.3589,0.3585,0.3585,0.3589,0.3589,0.3589,0.3589,0.3589,0.3589,0.3589,0.3589,0.3589,1.6998,1.7112,1.7112,1.7112,1.7112,1.7112,1.7136,1.7185,1.7185,1.721,1.7234,1.7266,1.7413,1.7607,1.7705,1.7802,1.79,1.7811,1.7859,1.794,1.7805,1.7869,1.8152,1.8217,1.8322,1.846,1.8501,1.8606,1.8688,1.868,1.8671,1.8793,1.8891,1.9004,1.9077,1.9183,1.9264,1.9264,1.9264,1.9256,1.9058,1.8655,1.7863,1.6871,1.5678,1.4289,1.2484,1.0877,0.9472,0.8672,0.8069,0.7468,0.6864,0.6864,0.6662,0.6662,0.6463,0.6259,0.5856,0.5251,0.4645,0.424,0.3635,0.323,0.323,0.323,0.323,0.323,0.323,0.323,0.323,0.323,0.323,0.323,0.3231,0.3235,0.324,0.3246,0.3261,0.3284,0.3305,0.3324,0.3344,0.3366,0.3386,0.3404,0.3411,0.3411,0.3411,0.3411,0.3411,0.3412,0.3427,0.3433,0.3446,0.3468,0.3501,0.3527,0.3544,0.3559,0.3579,0.3585,0.3588,0.3589,0.3589,0.3589,0.3589,0.3589,0.3589,0.3589,0.3589,0.3589,0.3589,0.3589,0.3589,1.7096,1.7112,1.7112,1.7112,1.7112,1.7112,1.721,1.7339,1.7364,1.7445,1.7543,1.7599,1.7599,1.7689,1.7827,1.7908,1.7932,1.807,1.8103,1.8127,1.816,1.816,1.8241,1.8527,1.8633,1.8517,1.8631,1.8793,1.8923,1.8939,1.8939,1.8972,1.9013,1.9102,1.9175,1.9232,1.9264,1.9264,1.9264,1.9264,1.9256,1.8853,1.8053,1.7062,1.6275,1.5081,1.2884,1.1473,1.0271,0.9476,0.8877,0.8072,0.7267,0.7065,0.6864,0.6662,0.6463,0.6259,0.5652,0.5251,0.4645,0.424,0.3635,0.323,0.323,0.323,0.323,0.323,0.323,0.323,0.323,0.323,0.323,0.3232,0.3238,0.325,0.3258,0.3272,0.3288,0.3315,0.3336,0.3351,0.3367,0.3386,0.3393,0.341,0.3411,0.3411,0.3411,0.3411,0.3411,0.3418,0.344,0.3452,0.3461,0.3489,0.3525,0.3547,0.3564,0.3573,0.3585,0.3589,0.3589,0.3589,0.3589,0.3589,0.3589,0.3589,0.3589,0.3589,0.3589,0.3589,0.3589,0.3589,0.3589,1.7112,1.7112,1.7112,1.7112,1.712,1.7234,1.7323,1.7396,1.7494,1.7575,1.7656,1.7754,1.7811,1.7859,1.7989,1.8079,1.8079,1.8135,1.8168,1.8176,1.8176,1.8241,1.833,1.8633,1.8748,1.8736,1.8858,1.898,1.9134,1.9134,1.9151,1.9151,1.9134,1.9183,1.9248,1.9264,1.9264,1.9264,1.9264,1.9264,1.9256,1.9058,1.8655,1.7863,1.7283,1.5884,1.4083,1.2679,1.1278,1.0079,0.9681,0.8676,0.7666,0.7465,0.7062,0.6662,0.6461,0.6057,0.545,0.5049,0.4444,0.3635,0.3433,0.323,0.323,0.323,0.323,0.323,0.323,0.323,0.323,0.323,0.3231,0.3235,0.3246,0.3261,0.328,0.3296,0.3317,0.3345,0.3358,0.337,0.3386,0.3404,0.3407,0.3411,0.3411,0.3411,0.3411,0.3414,0.3414,0.3426,0.3449,0.3474,0.3484,0.3516,0.355,0.3566,0.3581,0.3585,0.3589,0.3589,0.3589,0.3589,0.3589,0.3589,0.3589,0.3589,0.3589,0.3589,0.3589,0.3589,0.3589,0.3589,0.3589,1.7112,1.712,1.7169,1.7193,1.721,1.7331,1.7453,1.7559,1.7672,1.7762,1.7802,1.794,1.7997,1.803,1.8103,1.8168,1.816,1.8176,1.8176,1.82,1.8249,1.833,1.8444,1.8789,1.8961,1.8964,1.9061,1.9151,1.924,1.9256,1.9248,1.924,1.9264,1.9256,1.9256,1.9264,1.9264,1.9264,1.9264,1.9264,1.9264,1.9256,1.9058,1.8457,1.8275,1.7084,1.5074,1.3473,1.2079,1.0881,1.0083,0.9078,0.8069,0.7465,0.7062,0.6662,0.6461,0.6057,0.545,0.4643,0.4038,0.3433,0.3231,0.323,0.323,0.323,0.323,0.323,0.323,0.323,0.323,0.323,0.324,0.3247,0.326,0.3276,0.3307,0.3329,0.3352,0.3375,0.3384,0.339,0.3395,0.341,0.341,0.3411,0.3411,0.3411,0.3411,0.3415,0.3419,0.3435,0.3459,0.3484,0.351,0.3542,0.3569,0.3573,0.3585,0.3587,0.3589,0.3589,0.3589,0.3589,0.3589,0.3589,0.3589,0.3589,0.3589,0.3589,0.3589,0.3589,0.3589,0.3589,0.3589,1.7112,1.7128,1.7299,1.738,1.7396,1.7388,1.7583,1.7835,1.79,1.7989,1.8095,1.8144,1.8152,1.8152,1.8168,1.8176,1.8176,1.8176,1.8192,1.8241,1.8142,1.842,1.859,1.8961,1.9117,1.9013,1.9126,1.9216,1.9264,1.9264,1.9264,1.9264,1.9264,1.9264,1.9264,1.9264,1.9264,1.9264,1.9264,1.9264,1.9264,1.9264,1.9058,1.8861,1.8877,1.7878,1.6076,1.4065,1.2868,1.1884,1.0881,0.9677,0.8266,0.8065,0.7465,0.6662,0.6461,0.6057,0.4847,0.3836,0.3433,0.3231,0.323,0.323,0.323,0.323,0.323,0.323,0.323,0.323,0.323,0.3234,0.325,0.3264,0.3276,0.33,0.3333,0.3359,0.3381,0.3392,0.3401,0.341,0.341,0.3411,0.3411,0.3411,0.3411,0.3411,0.3411,0.3415,0.342,0.3445,0.3468,0.3498,0.3527,0.3564,0.3585,0.3589,0.3589,0.3589,0.3589,0.3589,0.3589,0.3589,0.3589,0.3589,0.3589,0.3589,0.3589,0.3589,0.3589,0.3589,0.3589,0.3589,0.3589,1.7185,1.7299,1.7364,1.7526,1.7721,1.7737,1.7819,1.7924,1.803,1.8119,1.8168,1.8176,1.8176,1.8176,1.8176,1.8176,1.8176,1.8184,1.8208,1.8363,1.8247,1.8423,1.8777,1.9109,1.9257,1.9151,1.9248,1.9264,1.9264,1.9264,1.9264,1.9264,1.9264,1.9264,1.9264,1.9264,1.9264,1.9264,1.9264,1.9264,1.9264,1.9264,1.9256,1.9058,1.9272,1.8473,1.6672,1.4856,1.3667,1.2684,1.1683,1.0279,0.8869,0.8467,0.7666,0.6864,0.6463,0.6057,0.4847,0.3836,0.3231,0.323,0.323,0.323,0.323,0.323,0.323,0.323,0.323,0.323,0.323,0.3251,0.3269,0.3281,0.3299,0.3333,0.3363,0.3385,0.3403,0.3404,0.3411,0.3411,0.3411,0.3411,0.3411,0.3411,0.3411,0.3411,0.3411,0.3415,0.342,0.345,0.3479,0.3509,0.354,0.3572,0.3588,0.3589,0.3589,0.3589,0.3589,0.3589,0.3589,0.3589,0.3589,0.3589,0.3589,0.3589,0.3589,0.3589,0.3589,0.3589,0.3589,0.3589,0.3589,1.7364,1.7478,1.7543,1.7705,1.79,1.7916,1.7949,1.8014,1.8127,1.8176,1.8176,1.8176,1.8176,1.8176,1.8176,1.8176,1.8176,1.8176,1.8273,1.8444,1.8525,1.8712,1.8899,1.9249,1.9347,1.924,1.9264,1.9264,1.9264,1.9264,1.9264,1.9264,1.9264,1.9264,1.9264,1.9264,1.9264,1.9264,1.9264,1.9264,1.9264,1.9264,1.9264,1.9256,1.9067,1.8671,1.7466,1.6062,1.4464,1.3478,1.2284,1.0881,0.9472,0.8467,0.7666,0.7065,0.6259,0.5856,0.4847,0.4038,0.3433,0.323,0.323,0.323,0.323,0.323,0.323,0.323,0.3231,0.3239,0.3249,0.3272,0.3288,0.3302,0.3329,0.3363,0.3384,0.3404,0.3408,0.3411,0.3411,0.3411,0.3411,0.3411,0.3411,0.3411,0.3411,0.3414,0.3416,0.3423,0.3435,0.3468,0.3497,0.3528,0.3554,0.3576,0.3588,0.3589,0.3589,0.3589,0.3589,0.3589,0.3589,0.3589,0.3589,0.3589,0.3589,0.3589,0.3589,0.3589,0.3589,0.3589,0.3589,0.3589,0.3589,1.764,1.7672,1.7843,1.7916,1.7932,1.7949,1.803,1.816,1.8168,1.8176,1.8176,1.8176,1.8176,1.8176,1.8176,1.8176,1.82,1.82,1.833,1.8493,1.8655,1.8842,1.9013,1.9159,1.9216,1.9248,1.9264,1.9264,1.9264,1.9264,1.9264,1.9264,1.9264,1.9264,1.9264,1.9264,1.9264,1.9264,1.9264,1.9264,1.9264,1.9264,1.9264,1.9264,1.9264,1.8861,1.8053,1.6857,1.5665,1.4277,1.2884,1.1282,0.9878,0.8672,0.7867,0.7062,0.6256,0.545,0.4847,0.424,0.3635,0.3231,0.323,0.323,0.323,0.3231,0.3234,0.3238,0.3242,0.3258,0.3273,0.3292,0.331,0.3333,0.3359,0.3382,0.3401,0.3411,0.3411,0.3411,0.3411,0.3411,0.3411,0.3411,0.3416,0.3425,0.3429,0.3434,0.3438,0.3442,0.346,0.3497,0.3525,0.3551,0.3572,0.3585,0.3588,0.3589,0.3589,0.3589,0.3589,0.3589,0.3589,0.3589,0.3589,0.3589,0.3589,0.3589,0.3589,0.3589,0.3589,0.3589,0.3589,0.3589,0.3589,1.7721,1.7843,1.7892,1.7989,1.8087,1.8103,1.8127,1.8176,1.8176,1.8176,1.8176,1.8176,1.8176,1.8176,1.8176,1.8176,1.8233,1.8322,1.8485,1.8647,1.8608,1.8996,1.9134,1.9232,1.9256,1.9264,1.9264,1.9264,1.9264,1.9264,1.9264,1.9264,1.9264,1.9264,1.9264,1.9264,1.9264,1.9264,1.9264,1.9264,1.9264,1.9264,1.9264,1.9264,1.9264,1.9058,1.8457,1.7665,1.6474,1.5074,1.3084,1.1483,1.0284,0.8873,0.7867,0.6861,0.6055,0.545,0.4847,0.4242,0.3836,0.3433,0.3232,0.3231,0.323,0.3235,0.3242,0.3254,0.3264,0.328,0.3302,0.3322,0.3339,0.3359,0.3382,0.3396,0.3411,0.3411,0.3411,0.3411,0.3411,0.3411,0.3411,0.3418,0.3425,0.3437,0.3448,0.3456,0.3464,0.3469,0.348,0.3517,0.3542,0.3565,0.3577,0.3588,0.3589,0.3589,0.3589,0.3589,0.3589,0.3589,0.3589,0.3589,0.3589,0.3589,0.3589,0.3589,0.3589,0.3589,0.3589,0.3589,0.3589,0.3589,0.3589,1.7916,1.8014,1.8022,1.8087,1.8168,1.8176,1.8176,1.8176,1.8176,1.8176,1.8176,1.8176,1.8176,1.8176,1.8184,1.8217,1.8306,1.8395,1.8566,1.8818,1.8737,1.9069,1.9199,1.9264,1.9264,1.9264,1.9264,1.9264,1.9264,1.9264,1.9264,1.9264,1.9264,1.9264,1.9264,1.9264,1.9264,1.9264,1.9264,1.9264,1.9264,1.9264,1.9264,1.9264,1.9264,1.9058,1.8663,1.8076,1.6878,1.5671,1.3678,1.2084,1.0881,0.9074,0.7666,0.6662,0.6259,0.5856,0.5251,0.4643,0.4038,0.3639,0.3242,0.3249,0.325,0.3254,0.327,0.3285,0.3294,0.3306,0.333,0.3355,0.3369,0.3384,0.3397,0.341,0.3411,0.3411,0.3411,0.3411,0.3411,0.3411,0.3415,0.3423,0.3434,0.3449,0.3469,0.349,0.3499,0.3506,0.3513,0.3534,0.3554,0.3573,0.3583,0.3589,0.3589,0.3589,0.3589,0.3589,0.3589,0.3589,0.3589,0.3589,0.3589,0.3589,0.3589,0.3589,0.3589,0.3589,0.3589,0.3589,0.3589,0.3589,0.3589,1.8168,1.8168,1.8176,1.8168,1.8176,1.8176,1.8176,1.8176,1.8176,1.8176,1.8176,1.8176,1.8176,1.8184,1.8217,1.8306,1.842,1.8525,1.8704,1.898,1.9029,1.9134,1.9216,1.9264,1.9264,1.9264,1.9264,1.9264,1.9264,1.9264,1.9264,1.9264,1.9264,1.9264,1.9264,1.9264,1.9264,1.9264,1.9264,1.9264,1.9264,1.9264,1.9264,1.9264,1.9264,1.9256,1.9058,1.8267,1.7268,1.587,1.447,1.2879,1.0877,0.9271,0.7666,0.6864,0.6461,0.6057,0.5659,0.5057,0.4455,0.406,0.367,0.328,0.3287,0.3281,0.3295,0.3317,0.3326,0.334,0.3363,0.3374,0.3386,0.3396,0.3405,0.3411,0.3411,0.3411,0.3411,0.3411,0.3411,0.3414,0.3429,0.3438,0.346,0.3469,0.349,0.3516,0.3532,0.3542,0.3544,0.3551,0.3565,0.358,0.3584,0.3589,0.3589,0.3589,0.3589,0.3589,0.3589,0.3589,0.3589,0.3589,0.3589,0.3589,0.3589,0.3589,0.3589,0.3589,0.3589,0.3589,0.3589,0.3589,0.3589,1.8549,1.8176,1.8176,1.8176,1.8176,1.8176,1.8176,1.8176,1.8176,1.8176,1.8176,1.8176,1.8176,1.8184,1.8314,1.8412,1.8485,1.8696,1.8883,1.9021,1.911,1.9175,1.9248,1.9264,1.9264,1.9264,1.9264,1.9264,1.9264,1.9264,1.9264,1.9264,1.9264,1.9264,1.9264,1.9264,1.9264,1.9264,1.9264,1.9264,1.9264,1.9264,1.9264,1.9264,1.9264,1.9264,1.9058,1.8267,1.7268,1.6069,1.447,1.2274,0.9669,0.8668,0.7666,0.6662,0.6463,0.6262,0.5871,0.528,0.4685,0.4091,0.3704,0.3527,0.3329,0.3317,0.3321,0.3343,0.336,0.3377,0.3388,0.3395,0.34,0.3407,0.3411,0.3411,0.3411,0.3411,0.3411,0.3411,0.3411,0.3425,0.344,0.3461,0.3482,0.3502,0.3521,0.3543,0.3561,0.3572,0.3569,0.3573,0.3577,0.3587,0.3589,0.3589,0.3589,0.3589,0.3589,0.3589,0.3589,0.3589,0.3589,0.3589,0.3589,0.3589,0.3589,0.3589,0.3589,0.3589,0.3589,0.3589,0.3589,0.3589,0.3589,1.8549,1.8176,1.8176,1.8176,1.8176,1.8176,1.8176,1.8176,1.8176,1.8176,1.8176,1.8176,1.8176,1.8208,1.8371,1.8525,1.8606,1.885,1.9013,1.9126,1.9183,1.9232,1.9264,1.9264,1.9264,1.9264,1.9264,1.9264,1.9264,1.9264,1.9264,1.9264,1.9264,1.9264,1.9264,1.9264,1.9264,1.9264,1.9264,1.9264,1.9264,1.9264,1.9264,1.9264,1.9264,1.9264,1.8861,1.8259,1.7062,1.5665,1.3872,1.1874,0.9673,0.8668,0.7666,0.6864,0.6466,0.6472,0.589,0.5512,0.4925,0.4537,0.3948,0.377,0.3358,0.335,0.3366,0.3386,0.3386,0.34,0.34,0.3405,0.3407,0.341,0.3411,0.3411,0.3411,0.3411,0.3412,0.3412,0.342,0.344,0.3461,0.3494,0.3513,0.3525,0.3546,0.3561,0.358,0.3589,0.3589,0.3589,0.3589,0.3589,0.3589,0.3589,0.3589,0.3589,0.3589,0.3589,0.3589,0.3589,0.3589,0.3589,0.3589,0.3589,0.3589,0.3589,0.3589,0.3589,0.3589,0.3589,0.3589,0.3589,0.3589,1.8744,1.8176,1.8176,1.8176,1.8176,1.8176,1.8176,1.8176,1.8176,1.8176,1.8176,1.8176,1.8184,1.8273,1.8403,1.8582,1.8777,1.898,1.9126,1.9199,1.9248,1.9264,1.9264,1.9264,1.9264,1.9264,1.9264,1.9264,1.9264,1.9264,1.9264,1.9264,1.9264,1.9264,1.9264,1.9264,1.9264,1.9264,1.9264,1.9264,1.9264,1.9264,1.9264,1.9264,1.9264,1.9264,1.8861,1.8053,1.6857,1.5267,1.3273,1.1073,0.9673,0.8467,0.7666,0.6864,0.6482,0.6504,0.6333,0.596,0.5373,0.4988,0.4405,0.4005,0.3589,0.3388,0.3404,0.341,0.341,0.341,0.3411,0.3411,0.3411,0.3411,0.3411,0.3411,0.3411,0.3412,0.3415,0.3416,0.3435,0.3456,0.3489,0.3521,0.3538,0.3551,0.3565,0.3579,0.3589,0.3589,0.3589,0.3589,0.3589,0.3589,0.3589,0.3589,0.3589,0.3589,0.3589,0.3589,0.3589,0.3589,0.3589,0.3589,0.3589,0.3589,0.3589,0.3589,0.3589,0.3589,0.3589,0.3589,0.3589,0.3589,0.3589,1.8922,1.8176,1.8176,1.8176,1.8176,1.8176,1.8176,1.8176,1.8176,1.8176,1.8176,1.8192,1.8241,1.8412,1.859,1.8761,1.8899,1.9086,1.9183,1.9256,1.9264,1.9264,1.9264,1.9264,1.9264,1.9264,1.9264,1.9264,1.9264,1.9264,1.9264,1.9264,1.9264,1.9264,1.9264,1.9264,1.9264,1.9264,1.9264,1.9264,1.9264,1.9264,1.9264,1.9264,1.9264,1.9264,1.8861,1.7855,1.6857,1.5466,1.3073,1.0877,0.9472,0.8471,0.7669,0.6887,0.6502,0.6542,0.6373,0.6221,0.5636,0.5241,0.4648,0.4032,0.3825,0.3401,0.3411,0.3411,0.3411,0.3411,0.3411,0.3411,0.3411,0.3411,0.3411,0.3411,0.3411,0.3418,0.3423,0.3437,0.3454,0.3484,0.3521,0.3544,0.3555,0.3568,0.3577,0.3589,0.3589,0.3589,0.3589,0.3589,0.3589,0.3589,0.3589,0.3589,0.3589,0.3589,0.3589,0.3589,0.3589,0.3589,0.3589,0.3589,0.3589,0.3589,0.3589,0.3589,0.3589,0.3589,0.3589,0.3589,0.3589,0.3589,0.3589]}]]